<?xml version="1.0" encoding="UTF-8" standalone="no" ?>
<gpx xmlns="http://www.topografix.com/GPX/1/1" xmlns:xsi="http://www.w3.org/2001/XMLSchema-instance" xsi:schemaLocation="http://www.topografix.com/GPX/1/1 http://www.topografix.com/GPX/1/1/gpx.xsd" version="1.1" creator="VisuGPX - https://www.visugpx.com">
  <metadata>
    <name>Bièvres Verrieres</name>
    <desc><![CDATA[AVF Antony JP Brethes Bievres Verrières]]></desc>
  </metadata>
  <trk>
    <name><![CDATA[bievres verrieres ]]></name>
    <cmt><![CDATA[3 nov. 2013 14:00:50]]></cmt>
    <trkseg>
      <trkpt lat="48.75171" lon="2.21593">
        <ele>79</ele>
        <time>2013-11-03T13:00:51Z</time>
      </trkpt>
      <trkpt lat="48.75173" lon="2.21596">
        <ele>77</ele>
        <time>2013-11-03T13:00:56Z</time>
      </trkpt>
      <trkpt lat="48.75176" lon="2.21598">
        <ele>75</ele>
        <time>2013-11-03T13:01:03Z</time>
      </trkpt>
      <trkpt lat="48.75181" lon="2.21593">
        <ele>73</ele>
        <time>2013-11-03T13:01:16Z</time>
      </trkpt>
      <trkpt lat="48.75195" lon="2.21585">
        <ele>66</ele>
        <time>2013-11-03T13:01:28Z</time>
      </trkpt>
      <trkpt lat="48.75198" lon="2.21579">
        <ele>64</ele>
        <time>2013-11-03T13:01:30Z</time>
      </trkpt>
      <trkpt lat="48.752" lon="2.21571">
        <ele>63</ele>
        <time>2013-11-03T13:01:33Z</time>
      </trkpt>
      <trkpt lat="48.75202" lon="2.21564">
        <ele>62</ele>
        <time>2013-11-03T13:01:38Z</time>
      </trkpt>
      <trkpt lat="48.75206" lon="2.21557">
        <ele>63</ele>
        <time>2013-11-03T13:01:43Z</time>
      </trkpt>
      <trkpt lat="48.7521" lon="2.21551">
        <ele>63</ele>
        <time>2013-11-03T13:01:50Z</time>
      </trkpt>
      <trkpt lat="48.75215" lon="2.21553">
        <ele>63</ele>
        <time>2013-11-03T13:01:54Z</time>
      </trkpt>
      <trkpt lat="48.75224" lon="2.21546">
        <ele>64</ele>
        <time>2013-11-03T13:02:02Z</time>
      </trkpt>
      <trkpt lat="48.75228" lon="2.21538">
        <ele>65</ele>
        <time>2013-11-03T13:02:06Z</time>
      </trkpt>
      <trkpt lat="48.75231" lon="2.21532">
        <ele>66</ele>
        <time>2013-11-03T13:02:10Z</time>
      </trkpt>
      <trkpt lat="48.75233" lon="2.21525">
        <ele>66</ele>
        <time>2013-11-03T13:02:17Z</time>
      </trkpt>
      <trkpt lat="48.75235" lon="2.21518">
        <ele>66</ele>
        <time>2013-11-03T13:02:21Z</time>
      </trkpt>
      <trkpt lat="48.75239" lon="2.21513">
        <ele>66</ele>
        <time>2013-11-03T13:02:25Z</time>
      </trkpt>
      <trkpt lat="48.75242" lon="2.21507">
        <ele>67</ele>
        <time>2013-11-03T13:02:29Z</time>
      </trkpt>
      <trkpt lat="48.75245" lon="2.21502">
        <ele>67</ele>
        <time>2013-11-03T13:02:32Z</time>
      </trkpt>
      <trkpt lat="48.7525" lon="2.21499">
        <ele>68</ele>
        <time>2013-11-03T13:02:36Z</time>
      </trkpt>
      <trkpt lat="48.75255" lon="2.21499">
        <ele>68</ele>
        <time>2013-11-03T13:02:40Z</time>
      </trkpt>
      <trkpt lat="48.75259" lon="2.21492">
        <ele>69</ele>
        <time>2013-11-03T13:02:44Z</time>
      </trkpt>
      <trkpt lat="48.75263" lon="2.21489">
        <ele>70</ele>
        <time>2013-11-03T13:02:48Z</time>
      </trkpt>
      <trkpt lat="48.75268" lon="2.2149">
        <ele>72</ele>
        <time>2013-11-03T13:02:57Z</time>
      </trkpt>
      <trkpt lat="48.75271" lon="2.21487">
        <ele>73</ele>
        <time>2013-11-03T13:03:05Z</time>
      </trkpt>
      <trkpt lat="48.7527" lon="2.21479">
        <ele>73</ele>
        <time>2013-11-03T13:03:09Z</time>
      </trkpt>
      <trkpt lat="48.75271" lon="2.2147">
        <ele>72</ele>
        <time>2013-11-03T13:03:15Z</time>
      </trkpt>
      <trkpt lat="48.75272" lon="2.21459">
        <ele>73</ele>
        <time>2013-11-03T13:03:18Z</time>
      </trkpt>
      <trkpt lat="48.75273" lon="2.21449">
        <ele>73</ele>
        <time>2013-11-03T13:03:20Z</time>
      </trkpt>
      <trkpt lat="48.75273" lon="2.21442">
        <ele>73</ele>
        <time>2013-11-03T13:03:22Z</time>
      </trkpt>
      <trkpt lat="48.75277" lon="2.21439">
        <ele>75</ele>
        <time>2013-11-03T13:03:32Z</time>
      </trkpt>
      <trkpt lat="48.75276" lon="2.21432">
        <ele>76</ele>
        <time>2013-11-03T13:03:38Z</time>
      </trkpt>
      <trkpt lat="48.75278" lon="2.2143">
        <ele>76</ele>
        <time>2013-11-03T13:03:44Z</time>
      </trkpt>
      <trkpt lat="48.75282" lon="2.21426">
        <ele>77</ele>
        <time>2013-11-03T13:03:48Z</time>
      </trkpt>
      <trkpt lat="48.75287" lon="2.2142">
        <ele>77</ele>
        <time>2013-11-03T13:03:53Z</time>
      </trkpt>
      <trkpt lat="48.75291" lon="2.21415">
        <ele>77</ele>
        <time>2013-11-03T13:03:56Z</time>
      </trkpt>
      <trkpt lat="48.75294" lon="2.21407">
        <ele>77</ele>
        <time>2013-11-03T13:03:59Z</time>
      </trkpt>
      <trkpt lat="48.75298" lon="2.21401">
        <ele>77</ele>
        <time>2013-11-03T13:04:04Z</time>
      </trkpt>
      <trkpt lat="48.75302" lon="2.21388">
        <ele>77</ele>
        <time>2013-11-03T13:04:13Z</time>
      </trkpt>
      <trkpt lat="48.75301" lon="2.21381">
        <ele>76</ele>
        <time>2013-11-03T13:04:16Z</time>
      </trkpt>
      <trkpt lat="48.75301" lon="2.21372">
        <ele>75</ele>
        <time>2013-11-03T13:04:19Z</time>
      </trkpt>
      <trkpt lat="48.753" lon="2.21362">
        <ele>75</ele>
        <time>2013-11-03T13:04:22Z</time>
      </trkpt>
      <trkpt lat="48.75299" lon="2.21355">
        <ele>76</ele>
        <time>2013-11-03T13:04:24Z</time>
      </trkpt>
      <trkpt lat="48.75298" lon="2.21345">
        <ele>76</ele>
        <time>2013-11-03T13:04:27Z</time>
      </trkpt>
      <trkpt lat="48.75302" lon="2.21332">
        <ele>77</ele>
        <time>2013-11-03T13:04:34Z</time>
      </trkpt>
      <trkpt lat="48.75307" lon="2.2132">
        <ele>77</ele>
        <time>2013-11-03T13:04:41Z</time>
      </trkpt>
      <trkpt lat="48.7531" lon="2.21306">
        <ele>77</ele>
        <time>2013-11-03T13:04:48Z</time>
      </trkpt>
      <trkpt lat="48.75308" lon="2.21304">
        <ele>77</ele>
        <time>2013-11-03T13:05:13Z</time>
      </trkpt>
      <trkpt lat="48.75307" lon="2.21296">
        <ele>78</ele>
        <time>2013-11-03T13:05:16Z</time>
      </trkpt>
      <trkpt lat="48.75307" lon="2.21289">
        <ele>77</ele>
        <time>2013-11-03T13:05:18Z</time>
      </trkpt>
      <trkpt lat="48.75312" lon="2.21286">
        <ele>73</ele>
        <time>2013-11-03T13:05:22Z</time>
      </trkpt>
      <trkpt lat="48.75316" lon="2.21289">
        <ele>72</ele>
        <time>2013-11-03T13:05:25Z</time>
      </trkpt>
      <trkpt lat="48.7532" lon="2.21291">
        <ele>71</ele>
        <time>2013-11-03T13:05:28Z</time>
      </trkpt>
      <trkpt lat="48.75325" lon="2.21293">
        <ele>69</ele>
        <time>2013-11-03T13:05:33Z</time>
      </trkpt>
      <trkpt lat="48.75329" lon="2.21291">
        <ele>70</ele>
        <time>2013-11-03T13:05:38Z</time>
      </trkpt>
      <trkpt lat="48.75334" lon="2.21294">
        <ele>70</ele>
        <time>2013-11-03T13:05:44Z</time>
      </trkpt>
      <trkpt lat="48.75338" lon="2.21301">
        <ele>69</ele>
        <time>2013-11-03T13:05:48Z</time>
      </trkpt>
      <trkpt lat="48.75344" lon="2.21307">
        <ele>68</ele>
        <time>2013-11-03T13:05:53Z</time>
      </trkpt>
      <trkpt lat="48.75349" lon="2.2131">
        <ele>67</ele>
        <time>2013-11-03T13:05:56Z</time>
      </trkpt>
      <trkpt lat="48.75353" lon="2.21312">
        <ele>65</ele>
        <time>2013-11-03T13:06:02Z</time>
      </trkpt>
      <trkpt lat="48.75358" lon="2.21312">
        <ele>64</ele>
        <time>2013-11-03T13:06:12Z</time>
      </trkpt>
      <trkpt lat="48.75363" lon="2.21314">
        <ele>64</ele>
        <time>2013-11-03T13:06:17Z</time>
      </trkpt>
      <trkpt lat="48.75368" lon="2.21317">
        <ele>64</ele>
        <time>2013-11-03T13:06:21Z</time>
      </trkpt>
      <trkpt lat="48.75373" lon="2.21321">
        <ele>64</ele>
        <time>2013-11-03T13:06:24Z</time>
      </trkpt>
      <trkpt lat="48.75378" lon="2.21326">
        <ele>63</ele>
        <time>2013-11-03T13:06:27Z</time>
      </trkpt>
      <trkpt lat="48.75383" lon="2.21328">
        <ele>63</ele>
        <time>2013-11-03T13:06:30Z</time>
      </trkpt>
      <trkpt lat="48.75389" lon="2.2133">
        <ele>63</ele>
        <time>2013-11-03T13:06:31Z</time>
      </trkpt>
      <trkpt lat="48.75394" lon="2.21331">
        <ele>64</ele>
        <time>2013-11-03T13:06:33Z</time>
      </trkpt>
      <trkpt lat="48.75399" lon="2.21333">
        <ele>64</ele>
        <time>2013-11-03T13:06:36Z</time>
      </trkpt>
      <trkpt lat="48.75403" lon="2.21336">
        <ele>65</ele>
        <time>2013-11-03T13:06:38Z</time>
      </trkpt>
      <trkpt lat="48.75407" lon="2.21338">
        <ele>66</ele>
        <time>2013-11-03T13:06:41Z</time>
      </trkpt>
      <trkpt lat="48.75412" lon="2.21339">
        <ele>66</ele>
        <time>2013-11-03T13:06:47Z</time>
      </trkpt>
      <trkpt lat="48.75416" lon="2.21341">
        <ele>67</ele>
        <time>2013-11-03T13:06:54Z</time>
      </trkpt>
      <trkpt lat="48.75415" lon="2.21344">
        <ele>66</ele>
        <time>2013-11-03T13:06:59Z</time>
      </trkpt>
      <trkpt lat="48.75419" lon="2.21348">
        <ele>67</ele>
        <time>2013-11-03T13:07:04Z</time>
      </trkpt>
      <trkpt lat="48.75424" lon="2.21348">
        <ele>68</ele>
        <time>2013-11-03T13:07:09Z</time>
      </trkpt>
      <trkpt lat="48.75429" lon="2.21351">
        <ele>68</ele>
        <time>2013-11-03T13:07:13Z</time>
      </trkpt>
      <trkpt lat="48.75433" lon="2.21355">
        <ele>69</ele>
        <time>2013-11-03T13:07:17Z</time>
      </trkpt>
      <trkpt lat="48.75438" lon="2.21357">
        <ele>70</ele>
        <time>2013-11-03T13:07:23Z</time>
      </trkpt>
      <trkpt lat="48.75439" lon="2.21354">
        <ele>70</ele>
        <time>2013-11-03T13:07:30Z</time>
      </trkpt>
      <trkpt lat="48.7544" lon="2.21347">
        <ele>70</ele>
        <time>2013-11-03T13:07:34Z</time>
      </trkpt>
      <trkpt lat="48.75443" lon="2.2134">
        <ele>72</ele>
        <time>2013-11-03T13:07:39Z</time>
      </trkpt>
      <trkpt lat="48.75446" lon="2.21332">
        <ele>73</ele>
        <time>2013-11-03T13:07:44Z</time>
      </trkpt>
      <trkpt lat="48.75449" lon="2.21327">
        <ele>75</ele>
        <time>2013-11-03T13:07:46Z</time>
      </trkpt>
      <trkpt lat="48.75453" lon="2.21321">
        <ele>77</ele>
        <time>2013-11-03T13:07:49Z</time>
      </trkpt>
      <trkpt lat="48.75457" lon="2.2132">
        <ele>80</ele>
        <time>2013-11-03T13:07:58Z</time>
      </trkpt>
      <trkpt lat="48.7546" lon="2.21325">
        <ele>80</ele>
        <time>2013-11-03T13:08:02Z</time>
      </trkpt>
      <trkpt lat="48.75463" lon="2.21332">
        <ele>82</ele>
        <time>2013-11-03T13:08:06Z</time>
      </trkpt>
      <trkpt lat="48.75466" lon="2.21337">
        <ele>83</ele>
        <time>2013-11-03T13:08:09Z</time>
      </trkpt>
      <trkpt lat="48.7547" lon="2.21343">
        <ele>85</ele>
        <time>2013-11-03T13:08:11Z</time>
      </trkpt>
      <trkpt lat="48.75473" lon="2.21348">
        <ele>85</ele>
        <time>2013-11-03T13:08:15Z</time>
      </trkpt>
      <trkpt lat="48.75477" lon="2.21354">
        <ele>86</ele>
        <time>2013-11-03T13:08:19Z</time>
      </trkpt>
      <trkpt lat="48.7548" lon="2.21359">
        <ele>87</ele>
        <time>2013-11-03T13:08:26Z</time>
      </trkpt>
      <trkpt lat="48.75483" lon="2.21367">
        <ele>87</ele>
        <time>2013-11-03T13:08:32Z</time>
      </trkpt>
      <trkpt lat="48.75484" lon="2.21374">
        <ele>87</ele>
        <time>2013-11-03T13:08:37Z</time>
      </trkpt>
      <trkpt lat="48.75487" lon="2.2138">
        <ele>86</ele>
        <time>2013-11-03T13:08:42Z</time>
      </trkpt>
      <trkpt lat="48.75492" lon="2.21383">
        <ele>86</ele>
        <time>2013-11-03T13:08:45Z</time>
      </trkpt>
      <trkpt lat="48.75498" lon="2.21386">
        <ele>86</ele>
        <time>2013-11-03T13:08:49Z</time>
      </trkpt>
      <trkpt lat="48.75502" lon="2.21389">
        <ele>86</ele>
        <time>2013-11-03T13:08:52Z</time>
      </trkpt>
      <trkpt lat="48.75503" lon="2.21392">
        <ele>86</ele>
        <time>2013-11-03T13:08:58Z</time>
      </trkpt>
      <trkpt lat="48.75508" lon="2.21395">
        <ele>87</ele>
        <time>2013-11-03T13:09:05Z</time>
      </trkpt>
      <trkpt lat="48.75508" lon="2.21399">
        <ele>86</ele>
        <time>2013-11-03T13:09:28Z</time>
      </trkpt>
      <trkpt lat="48.75507" lon="2.21407">
        <ele>86</ele>
        <time>2013-11-03T13:09:31Z</time>
      </trkpt>
      <trkpt lat="48.75508" lon="2.21414">
        <ele>86</ele>
        <time>2013-11-03T13:09:34Z</time>
      </trkpt>
      <trkpt lat="48.75508" lon="2.21422">
        <ele>87</ele>
        <time>2013-11-03T13:09:41Z</time>
      </trkpt>
      <trkpt lat="48.75521" lon="2.21421">
        <ele>89</ele>
        <time>2013-11-03T13:10:03Z</time>
      </trkpt>
      <trkpt lat="48.7553" lon="2.21425">
        <ele>89</ele>
        <time>2013-11-03T13:10:43Z</time>
      </trkpt>
      <trkpt lat="48.75532" lon="2.21426">
        <ele>89</ele>
        <time>2013-11-03T13:10:49Z</time>
      </trkpt>
      <trkpt lat="48.75537" lon="2.21425">
        <ele>89</ele>
        <time>2013-11-03T13:10:54Z</time>
      </trkpt>
      <trkpt lat="48.75542" lon="2.21425">
        <ele>88</ele>
        <time>2013-11-03T13:11:00Z</time>
      </trkpt>
      <trkpt lat="48.75548" lon="2.21426">
        <ele>88</ele>
        <time>2013-11-03T13:11:05Z</time>
      </trkpt>
      <trkpt lat="48.75552" lon="2.21428">
        <ele>87</ele>
        <time>2013-11-03T13:11:10Z</time>
      </trkpt>
      <trkpt lat="48.75556" lon="2.21431">
        <ele>88</ele>
        <time>2013-11-03T13:11:14Z</time>
      </trkpt>
      <trkpt lat="48.75562" lon="2.21434">
        <ele>88</ele>
        <time>2013-11-03T13:11:18Z</time>
      </trkpt>
      <trkpt lat="48.75566" lon="2.2143">
        <ele>89</ele>
        <time>2013-11-03T13:11:23Z</time>
      </trkpt>
      <trkpt lat="48.75569" lon="2.21423">
        <ele>90</ele>
        <time>2013-11-03T13:11:27Z</time>
      </trkpt>
      <trkpt lat="48.75572" lon="2.21416">
        <ele>91</ele>
        <time>2013-11-03T13:11:31Z</time>
      </trkpt>
      <trkpt lat="48.75574" lon="2.21409">
        <ele>92</ele>
        <time>2013-11-03T13:11:35Z</time>
      </trkpt>
      <trkpt lat="48.75578" lon="2.21406">
        <ele>94</ele>
        <time>2013-11-03T13:11:41Z</time>
      </trkpt>
      <trkpt lat="48.7558" lon="2.21396">
        <ele>96</ele>
        <time>2013-11-03T13:11:56Z</time>
      </trkpt>
      <trkpt lat="48.75584" lon="2.21392">
        <ele>97</ele>
        <time>2013-11-03T13:12:00Z</time>
      </trkpt>
      <trkpt lat="48.7559" lon="2.21393">
        <ele>99</ele>
        <time>2013-11-03T13:12:04Z</time>
      </trkpt>
      <trkpt lat="48.75594" lon="2.21397">
        <ele>100</ele>
        <time>2013-11-03T13:12:06Z</time>
      </trkpt>
      <trkpt lat="48.75599" lon="2.21401">
        <ele>101</ele>
        <time>2013-11-03T13:12:08Z</time>
      </trkpt>
      <trkpt lat="48.75603" lon="2.21406">
        <ele>103</ele>
        <time>2013-11-03T13:12:11Z</time>
      </trkpt>
      <trkpt lat="48.75608" lon="2.2141">
        <ele>104</ele>
        <time>2013-11-03T13:12:15Z</time>
      </trkpt>
      <trkpt lat="48.75611" lon="2.21414">
        <ele>105</ele>
        <time>2013-11-03T13:12:19Z</time>
      </trkpt>
      <trkpt lat="48.75615" lon="2.21418">
        <ele>105</ele>
        <time>2013-11-03T13:12:25Z</time>
      </trkpt>
      <trkpt lat="48.7562" lon="2.2142">
        <ele>105</ele>
        <time>2013-11-03T13:12:31Z</time>
      </trkpt>
      <trkpt lat="48.75624" lon="2.21425">
        <ele>105</ele>
        <time>2013-11-03T13:12:34Z</time>
      </trkpt>
      <trkpt lat="48.75632" lon="2.21425">
        <ele>98</ele>
        <time>2013-11-03T13:12:48Z</time>
      </trkpt>
      <trkpt lat="48.7565" lon="2.21434">
        <ele>107</ele>
        <time>2013-11-03T13:13:09Z</time>
      </trkpt>
      <trkpt lat="48.75655" lon="2.21434">
        <ele>108</ele>
        <time>2013-11-03T13:13:15Z</time>
      </trkpt>
      <trkpt lat="48.7566" lon="2.21435">
        <ele>109</ele>
        <time>2013-11-03T13:13:21Z</time>
      </trkpt>
      <trkpt lat="48.75665" lon="2.21437">
        <ele>109</ele>
        <time>2013-11-03T13:13:25Z</time>
      </trkpt>
      <trkpt lat="48.7567" lon="2.21438">
        <ele>110</ele>
        <time>2013-11-03T13:13:30Z</time>
      </trkpt>
      <trkpt lat="48.75675" lon="2.21436">
        <ele>111</ele>
        <time>2013-11-03T13:13:34Z</time>
      </trkpt>
      <trkpt lat="48.75679" lon="2.21434">
        <ele>112</ele>
        <time>2013-11-03T13:13:40Z</time>
      </trkpt>
      <trkpt lat="48.75681" lon="2.21436">
        <ele>112</ele>
        <time>2013-11-03T13:13:53Z</time>
      </trkpt>
      <trkpt lat="48.75686" lon="2.21433">
        <ele>112</ele>
        <time>2013-11-03T13:14:01Z</time>
      </trkpt>
      <trkpt lat="48.75686" lon="2.21426">
        <ele>113</ele>
        <time>2013-11-03T13:14:09Z</time>
      </trkpt>
      <trkpt lat="48.7569" lon="2.21421">
        <ele>114</ele>
        <time>2013-11-03T13:14:14Z</time>
      </trkpt>
      <trkpt lat="48.75695" lon="2.2142">
        <ele>115</ele>
        <time>2013-11-03T13:14:18Z</time>
      </trkpt>
      <trkpt lat="48.757" lon="2.21418">
        <ele>116</ele>
        <time>2013-11-03T13:14:24Z</time>
      </trkpt>
      <trkpt lat="48.75705" lon="2.21418">
        <ele>117</ele>
        <time>2013-11-03T13:14:27Z</time>
      </trkpt>
      <trkpt lat="48.7571" lon="2.21418">
        <ele>118</ele>
        <time>2013-11-03T13:14:32Z</time>
      </trkpt>
      <trkpt lat="48.75715" lon="2.21421">
        <ele>118</ele>
        <time>2013-11-03T13:14:37Z</time>
      </trkpt>
      <trkpt lat="48.7572" lon="2.2142">
        <ele>118</ele>
        <time>2013-11-03T13:14:41Z</time>
      </trkpt>
      <trkpt lat="48.75724" lon="2.21421">
        <ele>119</ele>
        <time>2013-11-03T13:14:48Z</time>
      </trkpt>
      <trkpt lat="48.75731" lon="2.21422">
        <ele>119</ele>
        <time>2013-11-03T13:14:57Z</time>
      </trkpt>
      <trkpt lat="48.75736" lon="2.21423">
        <ele>118</ele>
        <time>2013-11-03T13:15:02Z</time>
      </trkpt>
      <trkpt lat="48.75741" lon="2.21421">
        <ele>116</ele>
        <time>2013-11-03T13:15:10Z</time>
      </trkpt>
      <trkpt lat="48.75745" lon="2.21422">
        <ele>115</ele>
        <time>2013-11-03T13:15:15Z</time>
      </trkpt>
      <trkpt lat="48.7575" lon="2.21423">
        <ele>115</ele>
        <time>2013-11-03T13:15:20Z</time>
      </trkpt>
      <trkpt lat="48.75755" lon="2.21425">
        <ele>116</ele>
        <time>2013-11-03T13:15:24Z</time>
      </trkpt>
      <trkpt lat="48.75759" lon="2.21428">
        <ele>116</ele>
        <time>2013-11-03T13:15:28Z</time>
      </trkpt>
      <trkpt lat="48.75778" lon="2.21437">
        <ele>126</ele>
        <time>2013-11-03T13:15:50Z</time>
      </trkpt>
      <trkpt lat="48.75782" lon="2.21441">
        <ele>124</ele>
        <time>2013-11-03T13:15:57Z</time>
      </trkpt>
      <trkpt lat="48.75787" lon="2.21444">
        <ele>123</ele>
        <time>2013-11-03T13:15:59Z</time>
      </trkpt>
      <trkpt lat="48.75792" lon="2.21445">
        <ele>122</ele>
        <time>2013-11-03T13:16:03Z</time>
      </trkpt>
      <trkpt lat="48.75797" lon="2.21447">
        <ele>122</ele>
        <time>2013-11-03T13:16:06Z</time>
      </trkpt>
      <trkpt lat="48.75803" lon="2.2145">
        <ele>121</ele>
        <time>2013-11-03T13:16:10Z</time>
      </trkpt>
      <trkpt lat="48.75808" lon="2.21452">
        <ele>122</ele>
        <time>2013-11-03T13:16:14Z</time>
      </trkpt>
      <trkpt lat="48.75812" lon="2.21456">
        <ele>123</ele>
        <time>2013-11-03T13:16:18Z</time>
      </trkpt>
      <trkpt lat="48.75817" lon="2.21459">
        <ele>125</ele>
        <time>2013-11-03T13:16:22Z</time>
      </trkpt>
      <trkpt lat="48.7582" lon="2.21459">
        <ele>129</ele>
        <time>2013-11-03T13:16:30Z</time>
      </trkpt>
      <trkpt lat="48.75823" lon="2.21458">
        <ele>130</ele>
        <time>2013-11-03T13:16:36Z</time>
      </trkpt>
      <trkpt lat="48.75827" lon="2.21457">
        <ele>130</ele>
        <time>2013-11-03T13:16:42Z</time>
      </trkpt>
      <trkpt lat="48.75831" lon="2.21453">
        <ele>131</ele>
        <time>2013-11-03T13:16:52Z</time>
      </trkpt>
      <trkpt lat="48.75832" lon="2.21446">
        <ele>132</ele>
        <time>2013-11-03T13:16:56Z</time>
      </trkpt>
      <trkpt lat="48.75837" lon="2.21446">
        <ele>134</ele>
        <time>2013-11-03T13:17:06Z</time>
      </trkpt>
      <trkpt lat="48.75842" lon="2.21448">
        <ele>135</ele>
        <time>2013-11-03T13:17:11Z</time>
      </trkpt>
      <trkpt lat="48.75847" lon="2.2145">
        <ele>135</ele>
        <time>2013-11-03T13:17:15Z</time>
      </trkpt>
      <trkpt lat="48.75852" lon="2.21451">
        <ele>137</ele>
        <time>2013-11-03T13:17:21Z</time>
      </trkpt>
      <trkpt lat="48.75857" lon="2.21455">
        <ele>137</ele>
        <time>2013-11-03T13:17:25Z</time>
      </trkpt>
      <trkpt lat="48.7586" lon="2.2146">
        <ele>138</ele>
        <time>2013-11-03T13:17:30Z</time>
      </trkpt>
      <trkpt lat="48.75865" lon="2.21459">
        <ele>139</ele>
        <time>2013-11-03T13:17:38Z</time>
      </trkpt>
      <trkpt lat="48.75869" lon="2.21455">
        <ele>139</ele>
        <time>2013-11-03T13:17:44Z</time>
      </trkpt>
      <trkpt lat="48.75869" lon="2.21451">
        <ele>141</ele>
        <time>2013-11-03T13:17:55Z</time>
      </trkpt>
      <trkpt lat="48.75865" lon="2.21446">
        <ele>141</ele>
        <time>2013-11-03T13:18:02Z</time>
      </trkpt>
      <trkpt lat="48.75868" lon="2.2144">
        <ele>143</ele>
        <time>2013-11-03T13:18:16Z</time>
      </trkpt>
      <trkpt lat="48.75872" lon="2.21437">
        <ele>142</ele>
        <time>2013-11-03T13:18:26Z</time>
      </trkpt>
      <trkpt lat="48.75873" lon="2.2143">
        <ele>144</ele>
        <time>2013-11-03T13:18:33Z</time>
      </trkpt>
      <trkpt lat="48.75876" lon="2.21423">
        <ele>145</ele>
        <time>2013-11-03T13:18:40Z</time>
      </trkpt>
      <trkpt lat="48.75875" lon="2.21416">
        <ele>147</ele>
        <time>2013-11-03T13:18:47Z</time>
      </trkpt>
      <trkpt lat="48.75874" lon="2.21409">
        <ele>149</ele>
        <time>2013-11-03T13:18:52Z</time>
      </trkpt>
      <trkpt lat="48.75875" lon="2.21402">
        <ele>150</ele>
        <time>2013-11-03T13:18:58Z</time>
      </trkpt>
      <trkpt lat="48.75875" lon="2.21397">
        <ele>151</ele>
        <time>2013-11-03T13:19:05Z</time>
      </trkpt>
      <trkpt lat="48.75875" lon="2.21391">
        <ele>153</ele>
        <time>2013-11-03T13:19:37Z</time>
      </trkpt>
      <trkpt lat="48.75873" lon="2.2139">
        <ele>156</ele>
        <time>2013-11-03T13:20:31Z</time>
      </trkpt>
      <trkpt lat="48.75872" lon="2.21397">
        <ele>156</ele>
        <time>2013-11-03T13:20:38Z</time>
      </trkpt>
      <trkpt lat="48.75872" lon="2.21405">
        <ele>157</ele>
        <time>2013-11-03T13:20:42Z</time>
      </trkpt>
      <trkpt lat="48.75874" lon="2.21412">
        <ele>158</ele>
        <time>2013-11-03T13:20:46Z</time>
      </trkpt>
      <trkpt lat="48.75876" lon="2.21418">
        <ele>159</ele>
        <time>2013-11-03T13:20:53Z</time>
      </trkpt>
      <trkpt lat="48.75876" lon="2.21427">
        <ele>159</ele>
        <time>2013-11-03T13:20:56Z</time>
      </trkpt>
      <trkpt lat="48.75878" lon="2.21431">
        <ele>149</ele>
        <time>2013-11-03T13:21:23Z</time>
      </trkpt>
      <trkpt lat="48.75873" lon="2.21444">
        <ele>143</ele>
        <time>2013-11-03T13:21:38Z</time>
      </trkpt>
      <trkpt lat="48.75872" lon="2.21451">
        <ele>143</ele>
        <time>2013-11-03T13:21:42Z</time>
      </trkpt>
      <trkpt lat="48.75875" lon="2.21458">
        <ele>142</ele>
        <time>2013-11-03T13:21:46Z</time>
      </trkpt>
      <trkpt lat="48.75877" lon="2.21465">
        <ele>140</ele>
        <time>2013-11-03T13:21:51Z</time>
      </trkpt>
      <trkpt lat="48.75881" lon="2.21469">
        <ele>138</ele>
        <time>2013-11-03T13:21:57Z</time>
      </trkpt>
      <trkpt lat="48.75884" lon="2.21476">
        <ele>136</ele>
        <time>2013-11-03T13:22:04Z</time>
      </trkpt>
      <trkpt lat="48.75888" lon="2.21478">
        <ele>136</ele>
        <time>2013-11-03T13:22:10Z</time>
      </trkpt>
      <trkpt lat="48.75893" lon="2.21481">
        <ele>137</ele>
        <time>2013-11-03T13:22:14Z</time>
      </trkpt>
      <trkpt lat="48.75897" lon="2.21484">
        <ele>140</ele>
        <time>2013-11-03T13:22:18Z</time>
      </trkpt>
      <trkpt lat="48.75902" lon="2.21481">
        <ele>143</ele>
        <time>2013-11-03T13:22:24Z</time>
      </trkpt>
      <trkpt lat="48.75909" lon="2.2148">
        <ele>148</ele>
        <time>2013-11-03T13:22:35Z</time>
      </trkpt>
      <trkpt lat="48.7592" lon="2.21466">
        <ele>163</ele>
        <time>2013-11-03T13:23:02Z</time>
      </trkpt>
      <trkpt lat="48.75924" lon="2.21461">
        <ele>162</ele>
        <time>2013-11-03T13:23:07Z</time>
      </trkpt>
      <trkpt lat="48.75928" lon="2.21454">
        <ele>161</ele>
        <time>2013-11-03T13:23:10Z</time>
      </trkpt>
      <trkpt lat="48.75933" lon="2.21449">
        <ele>160</ele>
        <time>2013-11-03T13:23:13Z</time>
      </trkpt>
      <trkpt lat="48.75938" lon="2.21444">
        <ele>160</ele>
        <time>2013-11-03T13:23:17Z</time>
      </trkpt>
      <trkpt lat="48.75942" lon="2.21441">
        <ele>160</ele>
        <time>2013-11-03T13:23:24Z</time>
      </trkpt>
      <trkpt lat="48.75947" lon="2.21438">
        <ele>159</ele>
        <time>2013-11-03T13:23:31Z</time>
      </trkpt>
      <trkpt lat="48.7595" lon="2.21432">
        <ele>158</ele>
        <time>2013-11-03T13:23:38Z</time>
      </trkpt>
      <trkpt lat="48.75952" lon="2.21428">
        <ele>163</ele>
        <time>2013-11-03T13:24:00Z</time>
      </trkpt>
      <trkpt lat="48.75956" lon="2.21432">
        <ele>164</ele>
        <time>2013-11-03T13:24:15Z</time>
      </trkpt>
      <trkpt lat="48.75957" lon="2.21425">
        <ele>167</ele>
        <time>2013-11-03T13:24:22Z</time>
      </trkpt>
      <trkpt lat="48.75957" lon="2.21421">
        <ele>168</ele>
        <time>2013-11-03T13:24:33Z</time>
      </trkpt>
      <trkpt lat="48.75956" lon="2.21437">
        <ele>168</ele>
        <time>2013-11-03T13:24:44Z</time>
      </trkpt>
      <trkpt lat="48.75953" lon="2.21442">
        <ele>168</ele>
        <time>2013-11-03T13:24:46Z</time>
      </trkpt>
      <trkpt lat="48.75948" lon="2.21446">
        <ele>167</ele>
        <time>2013-11-03T13:24:49Z</time>
      </trkpt>
      <trkpt lat="48.75948" lon="2.21442">
        <ele>165</ele>
        <time>2013-11-03T13:25:06Z</time>
      </trkpt>
      <trkpt lat="48.75948" lon="2.21437">
        <ele>164</ele>
        <time>2013-11-03T13:25:34Z</time>
      </trkpt>
      <trkpt lat="48.75952" lon="2.21439">
        <ele>164</ele>
        <time>2013-11-03T13:25:40Z</time>
      </trkpt>
      <trkpt lat="48.75957" lon="2.21431">
        <ele>164</ele>
        <time>2013-11-03T13:25:49Z</time>
      </trkpt>
      <trkpt lat="48.75962" lon="2.21427">
        <ele>162</ele>
        <time>2013-11-03T13:25:53Z</time>
      </trkpt>
      <trkpt lat="48.75966" lon="2.21423">
        <ele>160</ele>
        <time>2013-11-03T13:25:56Z</time>
      </trkpt>
      <trkpt lat="48.7597" lon="2.2142">
        <ele>158</ele>
        <time>2013-11-03T13:25:59Z</time>
      </trkpt>
      <trkpt lat="48.75974" lon="2.21416">
        <ele>158</ele>
        <time>2013-11-03T13:26:04Z</time>
      </trkpt>
      <trkpt lat="48.75978" lon="2.21412">
        <ele>159</ele>
        <time>2013-11-03T13:26:05Z</time>
      </trkpt>
      <trkpt lat="48.75983" lon="2.21407">
        <ele>159</ele>
        <time>2013-11-03T13:26:10Z</time>
      </trkpt>
      <trkpt lat="48.75985" lon="2.21401">
        <ele>159</ele>
        <time>2013-11-03T13:26:14Z</time>
      </trkpt>
      <trkpt lat="48.75984" lon="2.21393">
        <ele>161</ele>
        <time>2013-11-03T13:26:19Z</time>
      </trkpt>
      <trkpt lat="48.75989" lon="2.2139">
        <ele>162</ele>
        <time>2013-11-03T13:26:24Z</time>
      </trkpt>
      <trkpt lat="48.75991" lon="2.21385">
        <ele>163</ele>
        <time>2013-11-03T13:26:33Z</time>
      </trkpt>
      <trkpt lat="48.75994" lon="2.21378">
        <ele>163</ele>
        <time>2013-11-03T13:26:36Z</time>
      </trkpt>
      <trkpt lat="48.75997" lon="2.21373">
        <ele>162</ele>
        <time>2013-11-03T13:26:39Z</time>
      </trkpt>
      <trkpt lat="48.76" lon="2.21367">
        <ele>162</ele>
        <time>2013-11-03T13:26:43Z</time>
      </trkpt>
      <trkpt lat="48.76001" lon="2.21361">
        <ele>163</ele>
        <time>2013-11-03T13:26:48Z</time>
      </trkpt>
      <trkpt lat="48.76005" lon="2.21356">
        <ele>164</ele>
        <time>2013-11-03T13:26:54Z</time>
      </trkpt>
      <trkpt lat="48.76009" lon="2.21351">
        <ele>166</ele>
        <time>2013-11-03T13:26:58Z</time>
      </trkpt>
      <trkpt lat="48.76013" lon="2.21345">
        <ele>167</ele>
        <time>2013-11-03T13:27:02Z</time>
      </trkpt>
      <trkpt lat="48.76016" lon="2.2134">
        <ele>167</ele>
        <time>2013-11-03T13:27:06Z</time>
      </trkpt>
      <trkpt lat="48.7602" lon="2.21335">
        <ele>166</ele>
        <time>2013-11-03T13:27:11Z</time>
      </trkpt>
      <trkpt lat="48.76023" lon="2.21329">
        <ele>165</ele>
        <time>2013-11-03T13:27:17Z</time>
      </trkpt>
      <trkpt lat="48.76027" lon="2.21325">
        <ele>164</ele>
        <time>2013-11-03T13:27:23Z</time>
      </trkpt>
      <trkpt lat="48.76031" lon="2.21322">
        <ele>163</ele>
        <time>2013-11-03T13:27:26Z</time>
      </trkpt>
      <trkpt lat="48.76035" lon="2.21318">
        <ele>163</ele>
        <time>2013-11-03T13:27:29Z</time>
      </trkpt>
      <trkpt lat="48.76036" lon="2.2131">
        <ele>162</ele>
        <time>2013-11-03T13:27:31Z</time>
      </trkpt>
      <trkpt lat="48.7604" lon="2.21304">
        <ele>162</ele>
        <time>2013-11-03T13:27:34Z</time>
      </trkpt>
      <trkpt lat="48.76044" lon="2.21301">
        <ele>162</ele>
        <time>2013-11-03T13:27:37Z</time>
      </trkpt>
      <trkpt lat="48.76049" lon="2.21297">
        <ele>162</ele>
        <time>2013-11-03T13:27:42Z</time>
      </trkpt>
      <trkpt lat="48.76053" lon="2.21295">
        <ele>161</ele>
        <time>2013-11-03T13:27:47Z</time>
      </trkpt>
      <trkpt lat="48.76059" lon="2.21293">
        <ele>161</ele>
        <time>2013-11-03T13:27:52Z</time>
      </trkpt>
      <trkpt lat="48.76064" lon="2.21292">
        <ele>161</ele>
        <time>2013-11-03T13:27:55Z</time>
      </trkpt>
      <trkpt lat="48.76067" lon="2.21287">
        <ele>163</ele>
        <time>2013-11-03T13:28:00Z</time>
      </trkpt>
      <trkpt lat="48.76071" lon="2.21292">
        <ele>165</ele>
        <time>2013-11-03T13:28:08Z</time>
      </trkpt>
      <trkpt lat="48.76071" lon="2.21299">
        <ele>165</ele>
        <time>2013-11-03T13:28:12Z</time>
      </trkpt>
      <trkpt lat="48.7607" lon="2.21305">
        <ele>165</ele>
        <time>2013-11-03T13:28:15Z</time>
      </trkpt>
      <trkpt lat="48.76071" lon="2.21314">
        <ele>164</ele>
        <time>2013-11-03T13:28:19Z</time>
      </trkpt>
      <trkpt lat="48.76072" lon="2.21322">
        <ele>163</ele>
        <time>2013-11-03T13:28:22Z</time>
      </trkpt>
      <trkpt lat="48.76071" lon="2.2133">
        <ele>162</ele>
        <time>2013-11-03T13:28:26Z</time>
      </trkpt>
      <trkpt lat="48.76069" lon="2.21338">
        <ele>162</ele>
        <time>2013-11-03T13:28:31Z</time>
      </trkpt>
      <trkpt lat="48.76067" lon="2.21344">
        <ele>162</ele>
        <time>2013-11-03T13:28:35Z</time>
      </trkpt>
      <trkpt lat="48.76067" lon="2.21352">
        <ele>162</ele>
        <time>2013-11-03T13:28:38Z</time>
      </trkpt>
      <trkpt lat="48.76068" lon="2.21362">
        <ele>163</ele>
        <time>2013-11-03T13:28:41Z</time>
      </trkpt>
      <trkpt lat="48.76069" lon="2.2137">
        <ele>163</ele>
        <time>2013-11-03T13:28:44Z</time>
      </trkpt>
      <trkpt lat="48.76069" lon="2.21377">
        <ele>163</ele>
        <time>2013-11-03T13:28:49Z</time>
      </trkpt>
      <trkpt lat="48.76068" lon="2.21385">
        <ele>162</ele>
        <time>2013-11-03T13:28:52Z</time>
      </trkpt>
      <trkpt lat="48.76064" lon="2.21388">
        <ele>161</ele>
        <time>2013-11-03T13:28:57Z</time>
      </trkpt>
      <trkpt lat="48.76059" lon="2.2139">
        <ele>159</ele>
        <time>2013-11-03T13:29:02Z</time>
      </trkpt>
      <trkpt lat="48.76063" lon="2.21397">
        <ele>161</ele>
        <time>2013-11-03T13:29:12Z</time>
      </trkpt>
      <trkpt lat="48.76074" lon="2.21421">
        <ele>171</ele>
        <time>2013-11-03T13:29:33Z</time>
      </trkpt>
      <trkpt lat="48.76076" lon="2.21427">
        <ele>172</ele>
        <time>2013-11-03T13:29:37Z</time>
      </trkpt>
      <trkpt lat="48.76078" lon="2.21434">
        <ele>172</ele>
        <time>2013-11-03T13:29:44Z</time>
      </trkpt>
      <trkpt lat="48.7614" lon="2.21545">
        <ele>172</ele>
        <time>2013-11-03T13:31:28Z</time>
      </trkpt>
      <trkpt lat="48.76139" lon="2.21559">
        <ele>172</ele>
        <time>2013-11-03T13:31:33Z</time>
      </trkpt>
      <trkpt lat="48.76142" lon="2.21572">
        <ele>172</ele>
        <time>2013-11-03T13:31:37Z</time>
      </trkpt>
      <trkpt lat="48.7615" lon="2.21574">
        <ele>172</ele>
        <time>2013-11-03T13:32:04Z</time>
      </trkpt>
      <trkpt lat="48.76151" lon="2.2159">
        <ele>172</ele>
        <time>2013-11-03T13:32:11Z</time>
      </trkpt>
      <trkpt lat="48.76153" lon="2.21604">
        <ele>172</ele>
        <time>2013-11-03T13:32:15Z</time>
      </trkpt>
      <trkpt lat="48.76157" lon="2.21617">
        <ele>171</ele>
        <time>2013-11-03T13:32:21Z</time>
      </trkpt>
      <trkpt lat="48.76164" lon="2.21628">
        <ele>171</ele>
        <time>2013-11-03T13:32:31Z</time>
      </trkpt>
      <trkpt lat="48.76164" lon="2.21642">
        <ele>170</ele>
        <time>2013-11-03T13:32:40Z</time>
      </trkpt>
      <trkpt lat="48.76168" lon="2.21655">
        <ele>170</ele>
        <time>2013-11-03T13:32:50Z</time>
      </trkpt>
      <trkpt lat="48.7617" lon="2.2167">
        <ele>170</ele>
        <time>2013-11-03T13:32:59Z</time>
      </trkpt>
      <trkpt lat="48.76174" lon="2.21683">
        <ele>170</ele>
        <time>2013-11-03T13:33:04Z</time>
      </trkpt>
      <trkpt lat="48.76175" lon="2.21697">
        <ele>171</ele>
        <time>2013-11-03T13:33:14Z</time>
      </trkpt>
      <trkpt lat="48.76179" lon="2.21705">
        <ele>171</ele>
        <time>2013-11-03T13:33:20Z</time>
      </trkpt>
      <trkpt lat="48.76182" lon="2.2171">
        <ele>171</ele>
        <time>2013-11-03T13:33:24Z</time>
      </trkpt>
      <trkpt lat="48.76187" lon="2.21714">
        <ele>171</ele>
        <time>2013-11-03T13:33:27Z</time>
      </trkpt>
      <trkpt lat="48.76191" lon="2.21716">
        <ele>172</ele>
        <time>2013-11-03T13:33:37Z</time>
      </trkpt>
      <trkpt lat="48.76194" lon="2.21724">
        <ele>171</ele>
        <time>2013-11-03T13:33:40Z</time>
      </trkpt>
      <trkpt lat="48.76198" lon="2.21729">
        <ele>171</ele>
        <time>2013-11-03T13:33:43Z</time>
      </trkpt>
      <trkpt lat="48.76202" lon="2.21734">
        <ele>171</ele>
        <time>2013-11-03T13:33:45Z</time>
      </trkpt>
      <trkpt lat="48.76205" lon="2.21739">
        <ele>172</ele>
        <time>2013-11-03T13:33:47Z</time>
      </trkpt>
      <trkpt lat="48.76208" lon="2.21744">
        <ele>171</ele>
        <time>2013-11-03T13:33:50Z</time>
      </trkpt>
      <trkpt lat="48.76211" lon="2.2175">
        <ele>169</ele>
        <time>2013-11-03T13:33:55Z</time>
      </trkpt>
      <trkpt lat="48.76214" lon="2.21757">
        <ele>168</ele>
        <time>2013-11-03T13:33:58Z</time>
      </trkpt>
      <trkpt lat="48.7622" lon="2.2176">
        <ele>167</ele>
        <time>2013-11-03T13:34:01Z</time>
      </trkpt>
      <trkpt lat="48.76222" lon="2.21758">
        <ele>165</ele>
        <time>2013-11-03T13:34:07Z</time>
      </trkpt>
      <trkpt lat="48.76224" lon="2.21751">
        <ele>164</ele>
        <time>2013-11-03T13:34:12Z</time>
      </trkpt>
      <trkpt lat="48.76228" lon="2.21745">
        <ele>163</ele>
        <time>2013-11-03T13:34:16Z</time>
      </trkpt>
      <trkpt lat="48.76233" lon="2.21742">
        <ele>163</ele>
        <time>2013-11-03T13:34:23Z</time>
      </trkpt>
      <trkpt lat="48.76237" lon="2.2174">
        <ele>164</ele>
        <time>2013-11-03T13:34:31Z</time>
      </trkpt>
      <trkpt lat="48.76242" lon="2.21739">
        <ele>164</ele>
        <time>2013-11-03T13:34:34Z</time>
      </trkpt>
      <trkpt lat="48.76247" lon="2.2174">
        <ele>165</ele>
        <time>2013-11-03T13:34:38Z</time>
      </trkpt>
      <trkpt lat="48.76252" lon="2.21738">
        <ele>165</ele>
        <time>2013-11-03T13:34:42Z</time>
      </trkpt>
      <trkpt lat="48.76257" lon="2.21737">
        <ele>166</ele>
        <time>2013-11-03T13:34:45Z</time>
      </trkpt>
      <trkpt lat="48.76261" lon="2.21737">
        <ele>165</ele>
        <time>2013-11-03T13:34:49Z</time>
      </trkpt>
      <trkpt lat="48.76267" lon="2.21738">
        <ele>165</ele>
        <time>2013-11-03T13:34:54Z</time>
      </trkpt>
      <trkpt lat="48.76272" lon="2.21742">
        <ele>164</ele>
        <time>2013-11-03T13:34:57Z</time>
      </trkpt>
      <trkpt lat="48.76277" lon="2.21742">
        <ele>164</ele>
        <time>2013-11-03T13:35:01Z</time>
      </trkpt>
      <trkpt lat="48.76283" lon="2.21744">
        <ele>165</ele>
        <time>2013-11-03T13:35:06Z</time>
      </trkpt>
      <trkpt lat="48.76288" lon="2.21747">
        <ele>166</ele>
        <time>2013-11-03T13:35:11Z</time>
      </trkpt>
      <trkpt lat="48.76292" lon="2.21749">
        <ele>166</ele>
        <time>2013-11-03T13:35:17Z</time>
      </trkpt>
      <trkpt lat="48.76295" lon="2.21753">
        <ele>165</ele>
        <time>2013-11-03T13:35:27Z</time>
      </trkpt>
      <trkpt lat="48.76301" lon="2.21754">
        <ele>165</ele>
        <time>2013-11-03T13:35:31Z</time>
      </trkpt>
      <trkpt lat="48.76306" lon="2.21755">
        <ele>164</ele>
        <time>2013-11-03T13:35:34Z</time>
      </trkpt>
      <trkpt lat="48.76311" lon="2.21756">
        <ele>164</ele>
        <time>2013-11-03T13:35:36Z</time>
      </trkpt>
      <trkpt lat="48.76316" lon="2.21758">
        <ele>163</ele>
        <time>2013-11-03T13:35:38Z</time>
      </trkpt>
      <trkpt lat="48.7632" lon="2.21761">
        <ele>163</ele>
        <time>2013-11-03T13:35:40Z</time>
      </trkpt>
      <trkpt lat="48.76327" lon="2.21764">
        <ele>163</ele>
        <time>2013-11-03T13:35:43Z</time>
      </trkpt>
      <trkpt lat="48.76331" lon="2.21769">
        <ele>162</ele>
        <time>2013-11-03T13:35:45Z</time>
      </trkpt>
      <trkpt lat="48.76333" lon="2.21777">
        <ele>162</ele>
        <time>2013-11-03T13:35:48Z</time>
      </trkpt>
      <trkpt lat="48.76334" lon="2.21782">
        <ele>162</ele>
        <time>2013-11-03T13:35:57Z</time>
      </trkpt>
      <trkpt lat="48.76338" lon="2.21785">
        <ele>162</ele>
        <time>2013-11-03T13:36:05Z</time>
      </trkpt>
      <trkpt lat="48.76341" lon="2.21785">
        <ele>162</ele>
        <time>2013-11-03T13:36:13Z</time>
      </trkpt>
      <trkpt lat="48.76348" lon="2.21792">
        <ele>161</ele>
        <time>2013-11-03T13:36:23Z</time>
      </trkpt>
      <trkpt lat="48.76351" lon="2.21797">
        <ele>161</ele>
        <time>2013-11-03T13:36:27Z</time>
      </trkpt>
      <trkpt lat="48.76352" lon="2.21804">
        <ele>161</ele>
        <time>2013-11-03T13:36:36Z</time>
      </trkpt>
      <trkpt lat="48.76352" lon="2.21811">
        <ele>161</ele>
        <time>2013-11-03T13:36:44Z</time>
      </trkpt>
      <trkpt lat="48.76354" lon="2.21818">
        <ele>161</ele>
        <time>2013-11-03T13:36:50Z</time>
      </trkpt>
      <trkpt lat="48.76353" lon="2.21826">
        <ele>159</ele>
        <time>2013-11-03T13:36:55Z</time>
      </trkpt>
      <trkpt lat="48.76349" lon="2.21831">
        <ele>157</ele>
        <time>2013-11-03T13:37:01Z</time>
      </trkpt>
      <trkpt lat="48.76347" lon="2.21837">
        <ele>156</ele>
        <time>2013-11-03T13:37:06Z</time>
      </trkpt>
      <trkpt lat="48.76344" lon="2.21842">
        <ele>155</ele>
        <time>2013-11-03T13:37:16Z</time>
      </trkpt>
      <trkpt lat="48.76344" lon="2.21848">
        <ele>155</ele>
        <time>2013-11-03T13:37:19Z</time>
      </trkpt>
      <trkpt lat="48.76341" lon="2.21855">
        <ele>155</ele>
        <time>2013-11-03T13:37:24Z</time>
      </trkpt>
      <trkpt lat="48.76338" lon="2.21862">
        <ele>155</ele>
        <time>2013-11-03T13:37:28Z</time>
      </trkpt>
      <trkpt lat="48.76334" lon="2.21868">
        <ele>154</ele>
        <time>2013-11-03T13:37:31Z</time>
      </trkpt>
      <trkpt lat="48.7633" lon="2.21873">
        <ele>154</ele>
        <time>2013-11-03T13:37:37Z</time>
      </trkpt>
      <trkpt lat="48.76327" lon="2.21878">
        <ele>153</ele>
        <time>2013-11-03T13:37:44Z</time>
      </trkpt>
      <trkpt lat="48.76322" lon="2.21884">
        <ele>151</ele>
        <time>2013-11-03T13:37:51Z</time>
      </trkpt>
      <trkpt lat="48.76318" lon="2.21885">
        <ele>151</ele>
        <time>2013-11-03T13:37:54Z</time>
      </trkpt>
      <trkpt lat="48.76319" lon="2.21892">
        <ele>151</ele>
        <time>2013-11-03T13:38:01Z</time>
      </trkpt>
      <trkpt lat="48.76317" lon="2.21899">
        <ele>151</ele>
        <time>2013-11-03T13:38:05Z</time>
      </trkpt>
      <trkpt lat="48.76317" lon="2.21906">
        <ele>151</ele>
        <time>2013-11-03T13:38:08Z</time>
      </trkpt>
      <trkpt lat="48.76317" lon="2.21913">
        <ele>152</ele>
        <time>2013-11-03T13:38:11Z</time>
      </trkpt>
      <trkpt lat="48.76314" lon="2.2192">
        <ele>153</ele>
        <time>2013-11-03T13:38:14Z</time>
      </trkpt>
      <trkpt lat="48.76311" lon="2.21926">
        <ele>154</ele>
        <time>2013-11-03T13:38:18Z</time>
      </trkpt>
      <trkpt lat="48.76309" lon="2.21934">
        <ele>154</ele>
        <time>2013-11-03T13:38:27Z</time>
      </trkpt>
      <trkpt lat="48.76308" lon="2.21941">
        <ele>155</ele>
        <time>2013-11-03T13:38:38Z</time>
      </trkpt>
      <trkpt lat="48.76307" lon="2.21949">
        <ele>154</ele>
        <time>2013-11-03T13:38:42Z</time>
      </trkpt>
      <trkpt lat="48.76305" lon="2.21956">
        <ele>154</ele>
        <time>2013-11-03T13:38:47Z</time>
      </trkpt>
      <trkpt lat="48.76303" lon="2.21963">
        <ele>154</ele>
        <time>2013-11-03T13:38:53Z</time>
      </trkpt>
      <trkpt lat="48.76303" lon="2.2197">
        <ele>153</ele>
        <time>2013-11-03T13:38:58Z</time>
      </trkpt>
      <trkpt lat="48.76299" lon="2.21976">
        <ele>152</ele>
        <time>2013-11-03T13:39:03Z</time>
      </trkpt>
      <trkpt lat="48.76294" lon="2.21981">
        <ele>151</ele>
        <time>2013-11-03T13:39:07Z</time>
      </trkpt>
      <trkpt lat="48.7629" lon="2.21986">
        <ele>149</ele>
        <time>2013-11-03T13:39:11Z</time>
      </trkpt>
      <trkpt lat="48.76288" lon="2.21993">
        <ele>146</ele>
        <time>2013-11-03T13:39:14Z</time>
      </trkpt>
      <trkpt lat="48.76285" lon="2.22">
        <ele>144</ele>
        <time>2013-11-03T13:39:19Z</time>
      </trkpt>
      <trkpt lat="48.76282" lon="2.22007">
        <ele>144</ele>
        <time>2013-11-03T13:39:23Z</time>
      </trkpt>
      <trkpt lat="48.76281" lon="2.22014">
        <ele>143</ele>
        <time>2013-11-03T13:39:28Z</time>
      </trkpt>
      <trkpt lat="48.76281" lon="2.22023">
        <ele>143</ele>
        <time>2013-11-03T13:39:33Z</time>
      </trkpt>
      <trkpt lat="48.76282" lon="2.2203">
        <ele>143</ele>
        <time>2013-11-03T13:39:38Z</time>
      </trkpt>
      <trkpt lat="48.76279" lon="2.22037">
        <ele>143</ele>
        <time>2013-11-03T13:39:42Z</time>
      </trkpt>
      <trkpt lat="48.76279" lon="2.22044">
        <ele>142</ele>
        <time>2013-11-03T13:39:45Z</time>
      </trkpt>
      <trkpt lat="48.76277" lon="2.22051">
        <ele>142</ele>
        <time>2013-11-03T13:39:50Z</time>
      </trkpt>
      <trkpt lat="48.76274" lon="2.22059">
        <ele>141</ele>
        <time>2013-11-03T13:39:56Z</time>
      </trkpt>
      <trkpt lat="48.76272" lon="2.22065">
        <ele>141</ele>
        <time>2013-11-03T13:39:59Z</time>
      </trkpt>
      <trkpt lat="48.76269" lon="2.22071">
        <ele>140</ele>
        <time>2013-11-03T13:40:03Z</time>
      </trkpt>
      <trkpt lat="48.76265" lon="2.22074">
        <ele>138</ele>
        <time>2013-11-03T13:40:07Z</time>
      </trkpt>
      <trkpt lat="48.76261" lon="2.22079">
        <ele>136</ele>
        <time>2013-11-03T13:40:10Z</time>
      </trkpt>
      <trkpt lat="48.76258" lon="2.22084">
        <ele>136</ele>
        <time>2013-11-03T13:40:13Z</time>
      </trkpt>
      <trkpt lat="48.76255" lon="2.2209">
        <ele>135</ele>
        <time>2013-11-03T13:40:16Z</time>
      </trkpt>
      <trkpt lat="48.76255" lon="2.22098">
        <ele>134</ele>
        <time>2013-11-03T13:40:21Z</time>
      </trkpt>
      <trkpt lat="48.76246" lon="2.22133">
        <ele>121</ele>
        <time>2013-11-03T13:40:51Z</time>
      </trkpt>
      <trkpt lat="48.76244" lon="2.22141">
        <ele>120</ele>
        <time>2013-11-03T13:40:55Z</time>
      </trkpt>
      <trkpt lat="48.76242" lon="2.22147">
        <ele>119</ele>
        <time>2013-11-03T13:40:59Z</time>
      </trkpt>
      <trkpt lat="48.76233" lon="2.22153">
        <ele>113</ele>
        <time>2013-11-03T13:41:14Z</time>
      </trkpt>
      <trkpt lat="48.76228" lon="2.22156">
        <ele>112</ele>
        <time>2013-11-03T13:41:17Z</time>
      </trkpt>
      <trkpt lat="48.76224" lon="2.22164">
        <ele>111</ele>
        <time>2013-11-03T13:41:21Z</time>
      </trkpt>
      <trkpt lat="48.76223" lon="2.22172">
        <ele>111</ele>
        <time>2013-11-03T13:41:24Z</time>
      </trkpt>
      <trkpt lat="48.76223" lon="2.22181">
        <ele>111</ele>
        <time>2013-11-03T13:41:26Z</time>
      </trkpt>
      <trkpt lat="48.76223" lon="2.2219">
        <ele>112</ele>
        <time>2013-11-03T13:41:29Z</time>
      </trkpt>
      <trkpt lat="48.76223" lon="2.22198">
        <ele>112</ele>
        <time>2013-11-03T13:41:34Z</time>
      </trkpt>
      <trkpt lat="48.76222" lon="2.22207">
        <ele>113</ele>
        <time>2013-11-03T13:41:40Z</time>
      </trkpt>
      <trkpt lat="48.76218" lon="2.22213">
        <ele>114</ele>
        <time>2013-11-03T13:41:44Z</time>
      </trkpt>
      <trkpt lat="48.76218" lon="2.22218">
        <ele>114</ele>
        <time>2013-11-03T13:41:55Z</time>
      </trkpt>
      <trkpt lat="48.76216" lon="2.22224">
        <ele>114</ele>
        <time>2013-11-03T13:42:02Z</time>
      </trkpt>
      <trkpt lat="48.76212" lon="2.22231">
        <ele>112</ele>
        <time>2013-11-03T13:42:16Z</time>
      </trkpt>
      <trkpt lat="48.7621" lon="2.22238">
        <ele>112</ele>
        <time>2013-11-03T13:42:22Z</time>
      </trkpt>
      <trkpt lat="48.7621" lon="2.22245">
        <ele>112</ele>
        <time>2013-11-03T13:42:36Z</time>
      </trkpt>
      <trkpt lat="48.76204" lon="2.22245">
        <ele>111</ele>
        <time>2013-11-03T13:42:40Z</time>
      </trkpt>
      <trkpt lat="48.762" lon="2.22248">
        <ele>108</ele>
        <time>2013-11-03T13:42:46Z</time>
      </trkpt>
      <trkpt lat="48.76198" lon="2.22255">
        <ele>107</ele>
        <time>2013-11-03T13:42:52Z</time>
      </trkpt>
      <trkpt lat="48.76196" lon="2.22262">
        <ele>104</ele>
        <time>2013-11-03T13:43:00Z</time>
      </trkpt>
      <trkpt lat="48.76194" lon="2.22271">
        <ele>103</ele>
        <time>2013-11-03T13:43:03Z</time>
      </trkpt>
      <trkpt lat="48.76191" lon="2.22276">
        <ele>102</ele>
        <time>2013-11-03T13:43:06Z</time>
      </trkpt>
      <trkpt lat="48.76189" lon="2.22283">
        <ele>102</ele>
        <time>2013-11-03T13:43:11Z</time>
      </trkpt>
      <trkpt lat="48.76187" lon="2.22289">
        <ele>103</ele>
        <time>2013-11-03T13:43:17Z</time>
      </trkpt>
      <trkpt lat="48.76187" lon="2.22297">
        <ele>101</ele>
        <time>2013-11-03T13:43:24Z</time>
      </trkpt>
      <trkpt lat="48.76185" lon="2.22305">
        <ele>100</ele>
        <time>2013-11-03T13:43:30Z</time>
      </trkpt>
      <trkpt lat="48.76183" lon="2.22312">
        <ele>99</ele>
        <time>2013-11-03T13:43:35Z</time>
      </trkpt>
      <trkpt lat="48.76179" lon="2.22318">
        <ele>99</ele>
        <time>2013-11-03T13:43:39Z</time>
      </trkpt>
      <trkpt lat="48.76176" lon="2.22322">
        <ele>98</ele>
        <time>2013-11-03T13:43:45Z</time>
      </trkpt>
      <trkpt lat="48.76172" lon="2.22328">
        <ele>98</ele>
        <time>2013-11-03T13:43:49Z</time>
      </trkpt>
      <trkpt lat="48.7617" lon="2.22335">
        <ele>97</ele>
        <time>2013-11-03T13:43:53Z</time>
      </trkpt>
      <trkpt lat="48.76172" lon="2.22342">
        <ele>97</ele>
        <time>2013-11-03T13:43:57Z</time>
      </trkpt>
      <trkpt lat="48.76175" lon="2.22348">
        <ele>95</ele>
        <time>2013-11-03T13:43:59Z</time>
      </trkpt>
      <trkpt lat="48.76177" lon="2.22354">
        <ele>94</ele>
        <time>2013-11-03T13:44:02Z</time>
      </trkpt>
      <trkpt lat="48.76179" lon="2.22361">
        <ele>93</ele>
        <time>2013-11-03T13:44:05Z</time>
      </trkpt>
      <trkpt lat="48.76182" lon="2.22369">
        <ele>93</ele>
        <time>2013-11-03T13:44:09Z</time>
      </trkpt>
      <trkpt lat="48.76184" lon="2.22375">
        <ele>93</ele>
        <time>2013-11-03T13:44:14Z</time>
      </trkpt>
      <trkpt lat="48.76186" lon="2.22378">
        <ele>94</ele>
        <time>2013-11-03T13:44:22Z</time>
      </trkpt>
      <trkpt lat="48.76183" lon="2.22387">
        <ele>94</ele>
        <time>2013-11-03T13:44:27Z</time>
      </trkpt>
      <trkpt lat="48.76182" lon="2.22397">
        <ele>95</ele>
        <time>2013-11-03T13:44:38Z</time>
      </trkpt>
      <trkpt lat="48.76185" lon="2.22402">
        <ele>94</ele>
        <time>2013-11-03T13:44:42Z</time>
      </trkpt>
      <trkpt lat="48.76187" lon="2.22409">
        <ele>94</ele>
        <time>2013-11-03T13:44:49Z</time>
      </trkpt>
      <trkpt lat="48.76192" lon="2.22414">
        <ele>94</ele>
        <time>2013-11-03T13:44:52Z</time>
      </trkpt>
      <trkpt lat="48.76196" lon="2.22418">
        <ele>94</ele>
        <time>2013-11-03T13:44:56Z</time>
      </trkpt>
      <trkpt lat="48.762" lon="2.22422">
        <ele>94</ele>
        <time>2013-11-03T13:45:00Z</time>
      </trkpt>
      <trkpt lat="48.76204" lon="2.22426">
        <ele>93</ele>
        <time>2013-11-03T13:45:03Z</time>
      </trkpt>
      <trkpt lat="48.76208" lon="2.22431">
        <ele>93</ele>
        <time>2013-11-03T13:45:06Z</time>
      </trkpt>
      <trkpt lat="48.76211" lon="2.22435">
        <ele>93</ele>
        <time>2013-11-03T13:45:10Z</time>
      </trkpt>
      <trkpt lat="48.76215" lon="2.2244">
        <ele>93</ele>
        <time>2013-11-03T13:45:14Z</time>
      </trkpt>
      <trkpt lat="48.7622" lon="2.22445">
        <ele>93</ele>
        <time>2013-11-03T13:45:18Z</time>
      </trkpt>
      <trkpt lat="48.76225" lon="2.22448">
        <ele>94</ele>
        <time>2013-11-03T13:45:22Z</time>
      </trkpt>
      <trkpt lat="48.76229" lon="2.22452">
        <ele>95</ele>
        <time>2013-11-03T13:45:26Z</time>
      </trkpt>
      <trkpt lat="48.76233" lon="2.22456">
        <ele>95</ele>
        <time>2013-11-03T13:45:32Z</time>
      </trkpt>
      <trkpt lat="48.76238" lon="2.2246">
        <ele>95</ele>
        <time>2013-11-03T13:45:36Z</time>
      </trkpt>
      <trkpt lat="48.76243" lon="2.22463">
        <ele>95</ele>
        <time>2013-11-03T13:45:40Z</time>
      </trkpt>
      <trkpt lat="48.76247" lon="2.22467">
        <ele>95</ele>
        <time>2013-11-03T13:45:44Z</time>
      </trkpt>
      <trkpt lat="48.76251" lon="2.22471">
        <ele>95</ele>
        <time>2013-11-03T13:45:48Z</time>
      </trkpt>
      <trkpt lat="48.76254" lon="2.22475">
        <ele>96</ele>
        <time>2013-11-03T13:45:52Z</time>
      </trkpt>
      <trkpt lat="48.76258" lon="2.2248">
        <ele>97</ele>
        <time>2013-11-03T13:45:57Z</time>
      </trkpt>
      <trkpt lat="48.76262" lon="2.22485">
        <ele>98</ele>
        <time>2013-11-03T13:46:02Z</time>
      </trkpt>
      <trkpt lat="48.76267" lon="2.22494">
        <ele>98</ele>
        <time>2013-11-03T13:46:08Z</time>
      </trkpt>
      <trkpt lat="48.76271" lon="2.22498">
        <ele>99</ele>
        <time>2013-11-03T13:46:11Z</time>
      </trkpt>
      <trkpt lat="48.76274" lon="2.22504">
        <ele>100</ele>
        <time>2013-11-03T13:46:15Z</time>
      </trkpt>
      <trkpt lat="48.76279" lon="2.22509">
        <ele>101</ele>
        <time>2013-11-03T13:46:21Z</time>
      </trkpt>
      <trkpt lat="48.76283" lon="2.22512">
        <ele>102</ele>
        <time>2013-11-03T13:46:26Z</time>
      </trkpt>
      <trkpt lat="48.76287" lon="2.22517">
        <ele>102</ele>
        <time>2013-11-03T13:46:34Z</time>
      </trkpt>
      <trkpt lat="48.7629" lon="2.22523">
        <ele>101</ele>
        <time>2013-11-03T13:46:38Z</time>
      </trkpt>
      <trkpt lat="48.76293" lon="2.2253">
        <ele>100</ele>
        <time>2013-11-03T13:46:43Z</time>
      </trkpt>
      <trkpt lat="48.76297" lon="2.22535">
        <ele>99</ele>
        <time>2013-11-03T13:46:47Z</time>
      </trkpt>
      <trkpt lat="48.76301" lon="2.22539">
        <ele>99</ele>
        <time>2013-11-03T13:46:51Z</time>
      </trkpt>
      <trkpt lat="48.76304" lon="2.22545">
        <ele>100</ele>
        <time>2013-11-03T13:46:55Z</time>
      </trkpt>
      <trkpt lat="48.76308" lon="2.22551">
        <ele>100</ele>
        <time>2013-11-03T13:46:59Z</time>
      </trkpt>
      <trkpt lat="48.76312" lon="2.22555">
        <ele>102</ele>
        <time>2013-11-03T13:47:02Z</time>
      </trkpt>
      <trkpt lat="48.76315" lon="2.22561">
        <ele>103</ele>
        <time>2013-11-03T13:47:07Z</time>
      </trkpt>
      <trkpt lat="48.76318" lon="2.22566">
        <ele>104</ele>
        <time>2013-11-03T13:47:10Z</time>
      </trkpt>
      <trkpt lat="48.76322" lon="2.22574">
        <ele>104</ele>
        <time>2013-11-03T13:47:21Z</time>
      </trkpt>
      <trkpt lat="48.76325" lon="2.2258">
        <ele>105</ele>
        <time>2013-11-03T13:47:24Z</time>
      </trkpt>
      <trkpt lat="48.76328" lon="2.22585">
        <ele>107</ele>
        <time>2013-11-03T13:47:30Z</time>
      </trkpt>
      <trkpt lat="48.76332" lon="2.22591">
        <ele>108</ele>
        <time>2013-11-03T13:47:33Z</time>
      </trkpt>
      <trkpt lat="48.76336" lon="2.22595">
        <ele>110</ele>
        <time>2013-11-03T13:47:37Z</time>
      </trkpt>
      <trkpt lat="48.76337" lon="2.22602">
        <ele>108</ele>
        <time>2013-11-03T13:47:44Z</time>
      </trkpt>
      <trkpt lat="48.76342" lon="2.22608">
        <ele>107</ele>
        <time>2013-11-03T13:47:52Z</time>
      </trkpt>
      <trkpt lat="48.76346" lon="2.22611">
        <ele>107</ele>
        <time>2013-11-03T13:47:54Z</time>
      </trkpt>
      <trkpt lat="48.76349" lon="2.22617">
        <ele>107</ele>
        <time>2013-11-03T13:48:00Z</time>
      </trkpt>
      <trkpt lat="48.76353" lon="2.22623">
        <ele>106</ele>
        <time>2013-11-03T13:48:07Z</time>
      </trkpt>
      <trkpt lat="48.76355" lon="2.22629">
        <ele>106</ele>
        <time>2013-11-03T13:48:13Z</time>
      </trkpt>
      <trkpt lat="48.7636" lon="2.22634">
        <ele>105</ele>
        <time>2013-11-03T13:48:17Z</time>
      </trkpt>
      <trkpt lat="48.76364" lon="2.22639">
        <ele>103</ele>
        <time>2013-11-03T13:48:23Z</time>
      </trkpt>
      <trkpt lat="48.76369" lon="2.22641">
        <ele>103</ele>
        <time>2013-11-03T13:48:28Z</time>
      </trkpt>
      <trkpt lat="48.76373" lon="2.22645">
        <ele>104</ele>
        <time>2013-11-03T13:48:33Z</time>
      </trkpt>
      <trkpt lat="48.76376" lon="2.2265">
        <ele>104</ele>
        <time>2013-11-03T13:48:37Z</time>
      </trkpt>
      <trkpt lat="48.76379" lon="2.22656">
        <ele>105</ele>
        <time>2013-11-03T13:48:41Z</time>
      </trkpt>
      <trkpt lat="48.76382" lon="2.22662">
        <ele>106</ele>
        <time>2013-11-03T13:48:48Z</time>
      </trkpt>
      <trkpt lat="48.76387" lon="2.22665">
        <ele>107</ele>
        <time>2013-11-03T13:48:52Z</time>
      </trkpt>
      <trkpt lat="48.7639" lon="2.22669">
        <ele>107</ele>
        <time>2013-11-03T13:48:56Z</time>
      </trkpt>
      <trkpt lat="48.76394" lon="2.22673">
        <ele>107</ele>
        <time>2013-11-03T13:48:59Z</time>
      </trkpt>
      <trkpt lat="48.76399" lon="2.22676">
        <ele>108</ele>
        <time>2013-11-03T13:49:04Z</time>
      </trkpt>
      <trkpt lat="48.76404" lon="2.2268">
        <ele>109</ele>
        <time>2013-11-03T13:49:09Z</time>
      </trkpt>
      <trkpt lat="48.76407" lon="2.22685">
        <ele>109</ele>
        <time>2013-11-03T13:49:12Z</time>
      </trkpt>
      <trkpt lat="48.76412" lon="2.22692">
        <ele>110</ele>
        <time>2013-11-03T13:49:17Z</time>
      </trkpt>
      <trkpt lat="48.76415" lon="2.22697">
        <ele>110</ele>
        <time>2013-11-03T13:49:20Z</time>
      </trkpt>
      <trkpt lat="48.76419" lon="2.22701">
        <ele>110</ele>
        <time>2013-11-03T13:49:24Z</time>
      </trkpt>
      <trkpt lat="48.7642" lon="2.22705">
        <ele>107</ele>
        <time>2013-11-03T13:49:37Z</time>
      </trkpt>
      <trkpt lat="48.76424" lon="2.22708">
        <ele>107</ele>
        <time>2013-11-03T13:49:55Z</time>
      </trkpt>
      <trkpt lat="48.76428" lon="2.22711">
        <ele>107</ele>
        <time>2013-11-03T13:49:59Z</time>
      </trkpt>
      <trkpt lat="48.76433" lon="2.22716">
        <ele>107</ele>
        <time>2013-11-03T13:50:03Z</time>
      </trkpt>
      <trkpt lat="48.76437" lon="2.2272">
        <ele>107</ele>
        <time>2013-11-03T13:50:06Z</time>
      </trkpt>
      <trkpt lat="48.76442" lon="2.22724">
        <ele>108</ele>
        <time>2013-11-03T13:50:09Z</time>
      </trkpt>
      <trkpt lat="48.76446" lon="2.2273">
        <ele>109</ele>
        <time>2013-11-03T13:50:12Z</time>
      </trkpt>
      <trkpt lat="48.76449" lon="2.22736">
        <ele>110</ele>
        <time>2013-11-03T13:50:16Z</time>
      </trkpt>
      <trkpt lat="48.76453" lon="2.22739">
        <ele>110</ele>
        <time>2013-11-03T13:50:20Z</time>
      </trkpt>
      <trkpt lat="48.76457" lon="2.22743">
        <ele>111</ele>
        <time>2013-11-03T13:50:24Z</time>
      </trkpt>
      <trkpt lat="48.76461" lon="2.22746">
        <ele>110</ele>
        <time>2013-11-03T13:50:30Z</time>
      </trkpt>
      <trkpt lat="48.76466" lon="2.2275">
        <ele>110</ele>
        <time>2013-11-03T13:50:36Z</time>
      </trkpt>
      <trkpt lat="48.76469" lon="2.22756">
        <ele>111</ele>
        <time>2013-11-03T13:50:40Z</time>
      </trkpt>
      <trkpt lat="48.76466" lon="2.22761">
        <ele>109</ele>
        <time>2013-11-03T13:51:06Z</time>
      </trkpt>
      <trkpt lat="48.76462" lon="2.22761">
        <ele>108</ele>
        <time>2013-11-03T13:51:46Z</time>
      </trkpt>
      <trkpt lat="48.76458" lon="2.22766">
        <ele>108</ele>
        <time>2013-11-03T13:51:47Z</time>
      </trkpt>
      <trkpt lat="48.76456" lon="2.2277">
        <ele>107</ele>
        <time>2013-11-03T13:52:12Z</time>
      </trkpt>
      <trkpt lat="48.76455" lon="2.22764">
        <ele>105</ele>
        <time>2013-11-03T13:54:55Z</time>
      </trkpt>
      <trkpt lat="48.76458" lon="2.22763">
        <ele>105</ele>
        <time>2013-11-03T13:55:27Z</time>
      </trkpt>
      <trkpt lat="48.76463" lon="2.22765">
        <ele>105</ele>
        <time>2013-11-03T13:55:35Z</time>
      </trkpt>
      <trkpt lat="48.76468" lon="2.2276">
        <ele>105</ele>
        <time>2013-11-03T13:55:39Z</time>
      </trkpt>
      <trkpt lat="48.76473" lon="2.2276">
        <ele>107</ele>
        <time>2013-11-03T13:55:46Z</time>
      </trkpt>
      <trkpt lat="48.76477" lon="2.22766">
        <ele>108</ele>
        <time>2013-11-03T13:55:49Z</time>
      </trkpt>
      <trkpt lat="48.76481" lon="2.2277">
        <ele>109</ele>
        <time>2013-11-03T13:55:54Z</time>
      </trkpt>
      <trkpt lat="48.76486" lon="2.22775">
        <ele>106</ele>
        <time>2013-11-03T13:55:59Z</time>
      </trkpt>
      <trkpt lat="48.76491" lon="2.22779">
        <ele>108</ele>
        <time>2013-11-03T13:56:08Z</time>
      </trkpt>
      <trkpt lat="48.76494" lon="2.22784">
        <ele>109</ele>
        <time>2013-11-03T13:56:11Z</time>
      </trkpt>
      <trkpt lat="48.76499" lon="2.2279">
        <ele>109</ele>
        <time>2013-11-03T13:56:14Z</time>
      </trkpt>
      <trkpt lat="48.76503" lon="2.22793">
        <ele>110</ele>
        <time>2013-11-03T13:56:18Z</time>
      </trkpt>
      <trkpt lat="48.76507" lon="2.22797">
        <ele>110</ele>
        <time>2013-11-03T13:56:22Z</time>
      </trkpt>
      <trkpt lat="48.76512" lon="2.22802">
        <ele>112</ele>
        <time>2013-11-03T13:56:28Z</time>
      </trkpt>
      <trkpt lat="48.76516" lon="2.22806">
        <ele>114</ele>
        <time>2013-11-03T13:56:32Z</time>
      </trkpt>
      <trkpt lat="48.7652" lon="2.2281">
        <ele>115</ele>
        <time>2013-11-03T13:56:38Z</time>
      </trkpt>
      <trkpt lat="48.76525" lon="2.22815">
        <ele>116</ele>
        <time>2013-11-03T13:56:42Z</time>
      </trkpt>
      <trkpt lat="48.76529" lon="2.2282">
        <ele>116</ele>
        <time>2013-11-03T13:56:46Z</time>
      </trkpt>
      <trkpt lat="48.76534" lon="2.22824">
        <ele>116</ele>
        <time>2013-11-03T13:56:50Z</time>
      </trkpt>
      <trkpt lat="48.76538" lon="2.2283">
        <ele>116</ele>
        <time>2013-11-03T13:56:54Z</time>
      </trkpt>
      <trkpt lat="48.76541" lon="2.22837">
        <ele>112</ele>
        <time>2013-11-03T13:56:58Z</time>
      </trkpt>
      <trkpt lat="48.76545" lon="2.22842">
        <ele>110</ele>
        <time>2013-11-03T13:57:03Z</time>
      </trkpt>
      <trkpt lat="48.76549" lon="2.22845">
        <ele>110</ele>
        <time>2013-11-03T13:57:09Z</time>
      </trkpt>
      <trkpt lat="48.76554" lon="2.22849">
        <ele>111</ele>
        <time>2013-11-03T13:57:13Z</time>
      </trkpt>
      <trkpt lat="48.76558" lon="2.22854">
        <ele>111</ele>
        <time>2013-11-03T13:57:19Z</time>
      </trkpt>
      <trkpt lat="48.76562" lon="2.22859">
        <ele>112</ele>
        <time>2013-11-03T13:57:22Z</time>
      </trkpt>
      <trkpt lat="48.76567" lon="2.22863">
        <ele>112</ele>
        <time>2013-11-03T13:57:26Z</time>
      </trkpt>
      <trkpt lat="48.76571" lon="2.22868">
        <ele>112</ele>
        <time>2013-11-03T13:57:33Z</time>
      </trkpt>
      <trkpt lat="48.76575" lon="2.22873">
        <ele>112</ele>
        <time>2013-11-03T13:57:36Z</time>
      </trkpt>
      <trkpt lat="48.76578" lon="2.22877">
        <ele>113</ele>
        <time>2013-11-03T13:57:41Z</time>
      </trkpt>
      <trkpt lat="48.76582" lon="2.22882">
        <ele>113</ele>
        <time>2013-11-03T13:57:45Z</time>
      </trkpt>
      <trkpt lat="48.76587" lon="2.22886">
        <ele>113</ele>
        <time>2013-11-03T13:57:49Z</time>
      </trkpt>
      <trkpt lat="48.76592" lon="2.22889">
        <ele>114</ele>
        <time>2013-11-03T13:57:55Z</time>
      </trkpt>
      <trkpt lat="48.76596" lon="2.22893">
        <ele>115</ele>
        <time>2013-11-03T13:58:00Z</time>
      </trkpt>
      <trkpt lat="48.766" lon="2.22897">
        <ele>115</ele>
        <time>2013-11-03T13:58:05Z</time>
      </trkpt>
      <trkpt lat="48.76604" lon="2.22902">
        <ele>115</ele>
        <time>2013-11-03T13:58:09Z</time>
      </trkpt>
      <trkpt lat="48.76607" lon="2.22906">
        <ele>115</ele>
        <time>2013-11-03T13:58:12Z</time>
      </trkpt>
      <trkpt lat="48.76612" lon="2.22911">
        <ele>115</ele>
        <time>2013-11-03T13:58:16Z</time>
      </trkpt>
      <trkpt lat="48.76616" lon="2.22917">
        <ele>116</ele>
        <time>2013-11-03T13:58:22Z</time>
      </trkpt>
      <trkpt lat="48.76619" lon="2.22922">
        <ele>116</ele>
        <time>2013-11-03T13:58:25Z</time>
      </trkpt>
      <trkpt lat="48.76623" lon="2.22927">
        <ele>116</ele>
        <time>2013-11-03T13:58:29Z</time>
      </trkpt>
      <trkpt lat="48.76628" lon="2.22931">
        <ele>115</ele>
        <time>2013-11-03T13:58:32Z</time>
      </trkpt>
      <trkpt lat="48.76631" lon="2.22935">
        <ele>115</ele>
        <time>2013-11-03T13:58:37Z</time>
      </trkpt>
      <trkpt lat="48.76636" lon="2.2294">
        <ele>115</ele>
        <time>2013-11-03T13:58:40Z</time>
      </trkpt>
      <trkpt lat="48.76641" lon="2.22944">
        <ele>115</ele>
        <time>2013-11-03T13:58:46Z</time>
      </trkpt>
      <trkpt lat="48.76645" lon="2.22947">
        <ele>116</ele>
        <time>2013-11-03T13:58:50Z</time>
      </trkpt>
      <trkpt lat="48.76648" lon="2.22953">
        <ele>116</ele>
        <time>2013-11-03T13:58:55Z</time>
      </trkpt>
      <trkpt lat="48.76651" lon="2.22958">
        <ele>116</ele>
        <time>2013-11-03T13:59:00Z</time>
      </trkpt>
      <trkpt lat="48.76652" lon="2.22966">
        <ele>115</ele>
        <time>2013-11-03T13:59:05Z</time>
      </trkpt>
      <trkpt lat="48.76654" lon="2.22975">
        <ele>114</ele>
        <time>2013-11-03T13:59:10Z</time>
      </trkpt>
      <trkpt lat="48.76657" lon="2.22979">
        <ele>114</ele>
        <time>2013-11-03T13:59:14Z</time>
      </trkpt>
      <trkpt lat="48.76657" lon="2.22986">
        <ele>114</ele>
        <time>2013-11-03T13:59:19Z</time>
      </trkpt>
      <trkpt lat="48.76658" lon="2.22995">
        <ele>115</ele>
        <time>2013-11-03T13:59:25Z</time>
      </trkpt>
      <trkpt lat="48.7666" lon="2.23008">
        <ele>115</ele>
        <time>2013-11-03T13:59:34Z</time>
      </trkpt>
      <trkpt lat="48.76663" lon="2.23021">
        <ele>114</ele>
        <time>2013-11-03T13:59:40Z</time>
      </trkpt>
      <trkpt lat="48.7666" lon="2.23027">
        <ele>113</ele>
        <time>2013-11-03T13:59:42Z</time>
      </trkpt>
      <trkpt lat="48.76658" lon="2.23034">
        <ele>113</ele>
        <time>2013-11-03T13:59:45Z</time>
      </trkpt>
      <trkpt lat="48.76656" lon="2.2304">
        <ele>113</ele>
        <time>2013-11-03T13:59:49Z</time>
      </trkpt>
      <trkpt lat="48.76652" lon="2.23045">
        <ele>113</ele>
        <time>2013-11-03T13:59:52Z</time>
      </trkpt>
      <trkpt lat="48.76648" lon="2.23049">
        <ele>112</ele>
        <time>2013-11-03T13:59:56Z</time>
      </trkpt>
      <trkpt lat="48.76648" lon="2.23056">
        <ele>112</ele>
        <time>2013-11-03T14:00:01Z</time>
      </trkpt>
      <trkpt lat="48.76646" lon="2.23064">
        <ele>110</ele>
        <time>2013-11-03T14:00:07Z</time>
      </trkpt>
      <trkpt lat="48.76646" lon="2.23074">
        <ele>110</ele>
        <time>2013-11-03T14:00:31Z</time>
      </trkpt>
      <trkpt lat="48.76646" lon="2.23082">
        <ele>109</ele>
        <time>2013-11-03T14:00:33Z</time>
      </trkpt>
      <trkpt lat="48.76646" lon="2.2309">
        <ele>108</ele>
        <time>2013-11-03T14:00:38Z</time>
      </trkpt>
      <trkpt lat="48.76645" lon="2.23096">
        <ele>108</ele>
        <time>2013-11-03T14:00:49Z</time>
      </trkpt>
      <trkpt lat="48.76643" lon="2.23103">
        <ele>109</ele>
        <time>2013-11-03T14:00:56Z</time>
      </trkpt>
      <trkpt lat="48.76639" lon="2.23109">
        <ele>110</ele>
        <time>2013-11-03T14:01:02Z</time>
      </trkpt>
      <trkpt lat="48.76637" lon="2.23116">
        <ele>111</ele>
        <time>2013-11-03T14:01:06Z</time>
      </trkpt>
      <trkpt lat="48.76636" lon="2.23123">
        <ele>112</ele>
        <time>2013-11-03T14:01:11Z</time>
      </trkpt>
      <trkpt lat="48.76634" lon="2.2313">
        <ele>111</ele>
        <time>2013-11-03T14:01:15Z</time>
      </trkpt>
      <trkpt lat="48.76633" lon="2.23137">
        <ele>109</ele>
        <time>2013-11-03T14:01:20Z</time>
      </trkpt>
      <trkpt lat="48.76633" lon="2.23146">
        <ele>109</ele>
        <time>2013-11-03T14:01:24Z</time>
      </trkpt>
      <trkpt lat="48.76632" lon="2.23152">
        <ele>109</ele>
        <time>2013-11-03T14:01:28Z</time>
      </trkpt>
      <trkpt lat="48.7663" lon="2.23159">
        <ele>109</ele>
        <time>2013-11-03T14:01:32Z</time>
      </trkpt>
      <trkpt lat="48.76627" lon="2.23164">
        <ele>108</ele>
        <time>2013-11-03T14:01:34Z</time>
      </trkpt>
      <trkpt lat="48.76622" lon="2.23169">
        <ele>107</ele>
        <time>2013-11-03T14:01:38Z</time>
      </trkpt>
      <trkpt lat="48.7662" lon="2.23175">
        <ele>106</ele>
        <time>2013-11-03T14:01:42Z</time>
      </trkpt>
      <trkpt lat="48.76619" lon="2.23182">
        <ele>105</ele>
        <time>2013-11-03T14:01:49Z</time>
      </trkpt>
      <trkpt lat="48.76618" lon="2.23189">
        <ele>105</ele>
        <time>2013-11-03T14:01:53Z</time>
      </trkpt>
      <trkpt lat="48.76619" lon="2.23196">
        <ele>103</ele>
        <time>2013-11-03T14:01:57Z</time>
      </trkpt>
      <trkpt lat="48.76616" lon="2.23202">
        <ele>102</ele>
        <time>2013-11-03T14:02:05Z</time>
      </trkpt>
      <trkpt lat="48.76614" lon="2.23205">
        <ele>101</ele>
        <time>2013-11-03T14:02:12Z</time>
      </trkpt>
      <trkpt lat="48.76611" lon="2.23209">
        <ele>101</ele>
        <time>2013-11-03T14:02:30Z</time>
      </trkpt>
      <trkpt lat="48.76606" lon="2.23213">
        <ele>101</ele>
        <time>2013-11-03T14:02:33Z</time>
      </trkpt>
      <trkpt lat="48.76602" lon="2.23218">
        <ele>101</ele>
        <time>2013-11-03T14:02:38Z</time>
      </trkpt>
      <trkpt lat="48.76601" lon="2.2323">
        <ele>101</ele>
        <time>2013-11-03T14:02:43Z</time>
      </trkpt>
      <trkpt lat="48.76604" lon="2.23237">
        <ele>100</ele>
        <time>2013-11-03T14:02:49Z</time>
      </trkpt>
      <trkpt lat="48.76603" lon="2.23244">
        <ele>100</ele>
        <time>2013-11-03T14:02:55Z</time>
      </trkpt>
      <trkpt lat="48.76602" lon="2.23252">
        <ele>100</ele>
        <time>2013-11-03T14:02:59Z</time>
      </trkpt>
      <trkpt lat="48.76599" lon="2.23258">
        <ele>100</ele>
        <time>2013-11-03T14:03:05Z</time>
      </trkpt>
      <trkpt lat="48.76597" lon="2.23263">
        <ele>100</ele>
        <time>2013-11-03T14:03:28Z</time>
      </trkpt>
      <trkpt lat="48.76596" lon="2.23272">
        <ele>100</ele>
        <time>2013-11-03T14:03:39Z</time>
      </trkpt>
      <trkpt lat="48.76597" lon="2.23279">
        <ele>99</ele>
        <time>2013-11-03T14:03:43Z</time>
      </trkpt>
      <trkpt lat="48.76595" lon="2.23287">
        <ele>99</ele>
        <time>2013-11-03T14:03:48Z</time>
      </trkpt>
      <trkpt lat="48.76593" lon="2.23294">
        <ele>99</ele>
        <time>2013-11-03T14:03:53Z</time>
      </trkpt>
      <trkpt lat="48.7659" lon="2.23299">
        <ele>99</ele>
        <time>2013-11-03T14:03:58Z</time>
      </trkpt>
      <trkpt lat="48.76589" lon="2.23303">
        <ele>101</ele>
        <time>2013-11-03T14:04:04Z</time>
      </trkpt>
      <trkpt lat="48.76593" lon="2.23307">
        <ele>101</ele>
        <time>2013-11-03T14:04:13Z</time>
      </trkpt>
      <trkpt lat="48.76598" lon="2.23311">
        <ele>103</ele>
        <time>2013-11-03T14:04:17Z</time>
      </trkpt>
      <trkpt lat="48.76603" lon="2.23312">
        <ele>105</ele>
        <time>2013-11-03T14:04:22Z</time>
      </trkpt>
      <trkpt lat="48.76607" lon="2.23317">
        <ele>106</ele>
        <time>2013-11-03T14:04:27Z</time>
      </trkpt>
      <trkpt lat="48.76612" lon="2.23318">
        <ele>106</ele>
        <time>2013-11-03T14:04:31Z</time>
      </trkpt>
      <trkpt lat="48.76617" lon="2.23315">
        <ele>108</ele>
        <time>2013-11-03T14:04:34Z</time>
      </trkpt>
      <trkpt lat="48.76622" lon="2.23318">
        <ele>110</ele>
        <time>2013-11-03T14:04:41Z</time>
      </trkpt>
      <trkpt lat="48.76626" lon="2.23318">
        <ele>111</ele>
        <time>2013-11-03T14:04:45Z</time>
      </trkpt>
      <trkpt lat="48.76629" lon="2.23312">
        <ele>112</ele>
        <time>2013-11-03T14:04:49Z</time>
      </trkpt>
      <trkpt lat="48.76634" lon="2.2331">
        <ele>113</ele>
        <time>2013-11-03T14:04:56Z</time>
      </trkpt>
      <trkpt lat="48.76639" lon="2.23315">
        <ele>114</ele>
        <time>2013-11-03T14:05:00Z</time>
      </trkpt>
      <trkpt lat="48.76644" lon="2.23319">
        <ele>116</ele>
        <time>2013-11-03T14:05:05Z</time>
      </trkpt>
      <trkpt lat="48.76649" lon="2.23323">
        <ele>118</ele>
        <time>2013-11-03T14:05:09Z</time>
      </trkpt>
      <trkpt lat="48.76653" lon="2.23328">
        <ele>119</ele>
        <time>2013-11-03T14:05:13Z</time>
      </trkpt>
      <trkpt lat="48.76657" lon="2.23338">
        <ele>120</ele>
        <time>2013-11-03T14:05:21Z</time>
      </trkpt>
      <trkpt lat="48.7666" lon="2.23345">
        <ele>120</ele>
        <time>2013-11-03T14:05:25Z</time>
      </trkpt>
      <trkpt lat="48.76664" lon="2.23348">
        <ele>119</ele>
        <time>2013-11-03T14:05:29Z</time>
      </trkpt>
      <trkpt lat="48.7667" lon="2.2335">
        <ele>118</ele>
        <time>2013-11-03T14:05:34Z</time>
      </trkpt>
      <trkpt lat="48.76678" lon="2.23355">
        <ele>117</ele>
        <time>2013-11-03T14:05:45Z</time>
      </trkpt>
      <trkpt lat="48.76682" lon="2.23364">
        <ele>115</ele>
        <time>2013-11-03T14:05:49Z</time>
      </trkpt>
      <trkpt lat="48.76686" lon="2.23372">
        <ele>113</ele>
        <time>2013-11-03T14:05:53Z</time>
      </trkpt>
      <trkpt lat="48.76689" lon="2.23378">
        <ele>112</ele>
        <time>2013-11-03T14:05:57Z</time>
      </trkpt>
      <trkpt lat="48.7669" lon="2.23385">
        <ele>111</ele>
        <time>2013-11-03T14:06:02Z</time>
      </trkpt>
      <trkpt lat="48.76693" lon="2.2339">
        <ele>110</ele>
        <time>2013-11-03T14:06:07Z</time>
      </trkpt>
      <trkpt lat="48.76697" lon="2.23397">
        <ele>109</ele>
        <time>2013-11-03T14:06:11Z</time>
      </trkpt>
      <trkpt lat="48.767" lon="2.23403">
        <ele>110</ele>
        <time>2013-11-03T14:06:16Z</time>
      </trkpt>
      <trkpt lat="48.76699" lon="2.2341">
        <ele>110</ele>
        <time>2013-11-03T14:06:19Z</time>
      </trkpt>
      <trkpt lat="48.76699" lon="2.23417">
        <ele>109</ele>
        <time>2013-11-03T14:06:22Z</time>
      </trkpt>
      <trkpt lat="48.76696" lon="2.23424">
        <ele>108</ele>
        <time>2013-11-03T14:06:27Z</time>
      </trkpt>
      <trkpt lat="48.76694" lon="2.2343">
        <ele>107</ele>
        <time>2013-11-03T14:06:34Z</time>
      </trkpt>
      <trkpt lat="48.76694" lon="2.23438">
        <ele>108</ele>
        <time>2013-11-03T14:06:40Z</time>
      </trkpt>
      <trkpt lat="48.76694" lon="2.23446">
        <ele>109</ele>
        <time>2013-11-03T14:06:44Z</time>
      </trkpt>
      <trkpt lat="48.76694" lon="2.23453">
        <ele>110</ele>
        <time>2013-11-03T14:06:48Z</time>
      </trkpt>
      <trkpt lat="48.7669" lon="2.23459">
        <ele>111</ele>
        <time>2013-11-03T14:06:53Z</time>
      </trkpt>
      <trkpt lat="48.76688" lon="2.23465">
        <ele>112</ele>
        <time>2013-11-03T14:06:56Z</time>
      </trkpt>
      <trkpt lat="48.76687" lon="2.23472">
        <ele>113</ele>
        <time>2013-11-03T14:07:00Z</time>
      </trkpt>
      <trkpt lat="48.76687" lon="2.2348">
        <ele>116</ele>
        <time>2013-11-03T14:07:07Z</time>
      </trkpt>
      <trkpt lat="48.76692" lon="2.23488">
        <ele>119</ele>
        <time>2013-11-03T14:07:17Z</time>
      </trkpt>
      <trkpt lat="48.76696" lon="2.23491">
        <ele>120</ele>
        <time>2013-11-03T14:07:19Z</time>
      </trkpt>
      <trkpt lat="48.76699" lon="2.23493">
        <ele>120</ele>
        <time>2013-11-03T14:07:20Z</time>
      </trkpt>
      <trkpt lat="48.76701" lon="2.23495">
        <ele>121</ele>
        <time>2013-11-03T14:07:21Z</time>
      </trkpt>
      <trkpt lat="48.76706" lon="2.235">
        <ele>121</ele>
        <time>2013-11-03T14:07:24Z</time>
      </trkpt>
      <trkpt lat="48.76712" lon="2.23504">
        <ele>123</ele>
        <time>2013-11-03T14:07:43Z</time>
      </trkpt>
      <trkpt lat="48.76717" lon="2.23501">
        <ele>124</ele>
        <time>2013-11-03T14:07:49Z</time>
      </trkpt>
      <trkpt lat="48.76722" lon="2.23498">
        <ele>124</ele>
        <time>2013-11-03T14:07:53Z</time>
      </trkpt>
      <trkpt lat="48.76727" lon="2.23496">
        <ele>125</ele>
        <time>2013-11-03T14:07:57Z</time>
      </trkpt>
      <trkpt lat="48.76731" lon="2.23493">
        <ele>126</ele>
        <time>2013-11-03T14:08:02Z</time>
      </trkpt>
      <trkpt lat="48.7674" lon="2.23492">
        <ele>126</ele>
        <time>2013-11-03T14:08:13Z</time>
      </trkpt>
      <trkpt lat="48.76746" lon="2.23492">
        <ele>125</ele>
        <time>2013-11-03T14:08:18Z</time>
      </trkpt>
      <trkpt lat="48.7675" lon="2.23492">
        <ele>125</ele>
        <time>2013-11-03T14:08:22Z</time>
      </trkpt>
      <trkpt lat="48.76754" lon="2.23496">
        <ele>126</ele>
        <time>2013-11-03T14:08:30Z</time>
      </trkpt>
      <trkpt lat="48.76757" lon="2.23503">
        <ele>126</ele>
        <time>2013-11-03T14:08:34Z</time>
      </trkpt>
      <trkpt lat="48.76761" lon="2.23515">
        <ele>126</ele>
        <time>2013-11-03T14:08:41Z</time>
      </trkpt>
      <trkpt lat="48.76757" lon="2.23521">
        <ele>127</ele>
        <time>2013-11-03T14:08:45Z</time>
      </trkpt>
      <trkpt lat="48.76753" lon="2.23526">
        <ele>128</ele>
        <time>2013-11-03T14:08:47Z</time>
      </trkpt>
      <trkpt lat="48.7675" lon="2.23533">
        <ele>129</ele>
        <time>2013-11-03T14:08:52Z</time>
      </trkpt>
      <trkpt lat="48.76747" lon="2.23539">
        <ele>129</ele>
        <time>2013-11-03T14:08:57Z</time>
      </trkpt>
      <trkpt lat="48.76746" lon="2.23546">
        <ele>130</ele>
        <time>2013-11-03T14:09:01Z</time>
      </trkpt>
      <trkpt lat="48.76745" lon="2.23553">
        <ele>130</ele>
        <time>2013-11-03T14:09:05Z</time>
      </trkpt>
      <trkpt lat="48.76742" lon="2.23558">
        <ele>130</ele>
        <time>2013-11-03T14:09:09Z</time>
      </trkpt>
      <trkpt lat="48.76741" lon="2.23566">
        <ele>130</ele>
        <time>2013-11-03T14:09:14Z</time>
      </trkpt>
      <trkpt lat="48.76739" lon="2.23572">
        <ele>131</ele>
        <time>2013-11-03T14:09:19Z</time>
      </trkpt>
      <trkpt lat="48.76736" lon="2.23579">
        <ele>131</ele>
        <time>2013-11-03T14:09:24Z</time>
      </trkpt>
      <trkpt lat="48.76732" lon="2.23583">
        <ele>132</ele>
        <time>2013-11-03T14:09:31Z</time>
      </trkpt>
      <trkpt lat="48.7673" lon="2.23592">
        <ele>133</ele>
        <time>2013-11-03T14:09:35Z</time>
      </trkpt>
      <trkpt lat="48.76729" lon="2.236">
        <ele>134</ele>
        <time>2013-11-03T14:09:40Z</time>
      </trkpt>
      <trkpt lat="48.7673" lon="2.23606">
        <ele>136</ele>
        <time>2013-11-03T14:09:43Z</time>
      </trkpt>
      <trkpt lat="48.76729" lon="2.23613">
        <ele>137</ele>
        <time>2013-11-03T14:09:46Z</time>
      </trkpt>
      <trkpt lat="48.76728" lon="2.2362">
        <ele>138</ele>
        <time>2013-11-03T14:09:52Z</time>
      </trkpt>
      <trkpt lat="48.76728" lon="2.23627">
        <ele>139</ele>
        <time>2013-11-03T14:09:57Z</time>
      </trkpt>
      <trkpt lat="48.76726" lon="2.23635">
        <ele>139</ele>
        <time>2013-11-03T14:10:02Z</time>
      </trkpt>
      <trkpt lat="48.76724" lon="2.23642">
        <ele>139</ele>
        <time>2013-11-03T14:10:07Z</time>
      </trkpt>
      <trkpt lat="48.76722" lon="2.23648">
        <ele>139</ele>
        <time>2013-11-03T14:10:12Z</time>
      </trkpt>
      <trkpt lat="48.76717" lon="2.23651">
        <ele>139</ele>
        <time>2013-11-03T14:10:17Z</time>
      </trkpt>
      <trkpt lat="48.76711" lon="2.23655">
        <ele>137</ele>
        <time>2013-11-03T14:10:21Z</time>
      </trkpt>
      <trkpt lat="48.76707" lon="2.23661">
        <ele>136</ele>
        <time>2013-11-03T14:10:25Z</time>
      </trkpt>
      <trkpt lat="48.76703" lon="2.23666">
        <ele>135</ele>
        <time>2013-11-03T14:10:29Z</time>
      </trkpt>
      <trkpt lat="48.767" lon="2.23673">
        <ele>135</ele>
        <time>2013-11-03T14:10:34Z</time>
      </trkpt>
      <trkpt lat="48.76695" lon="2.23674">
        <ele>135</ele>
        <time>2013-11-03T14:10:37Z</time>
      </trkpt>
      <trkpt lat="48.7669" lon="2.23676">
        <ele>137</ele>
        <time>2013-11-03T14:10:41Z</time>
      </trkpt>
      <trkpt lat="48.76686" lon="2.2368">
        <ele>138</ele>
        <time>2013-11-03T14:10:46Z</time>
      </trkpt>
      <trkpt lat="48.76681" lon="2.23683">
        <ele>140</ele>
        <time>2013-11-03T14:10:50Z</time>
      </trkpt>
      <trkpt lat="48.76676" lon="2.23685">
        <ele>141</ele>
        <time>2013-11-03T14:10:54Z</time>
      </trkpt>
      <trkpt lat="48.76672" lon="2.23688">
        <ele>143</ele>
        <time>2013-11-03T14:10:59Z</time>
      </trkpt>
      <trkpt lat="48.76668" lon="2.23692">
        <ele>143</ele>
        <time>2013-11-03T14:11:04Z</time>
      </trkpt>
      <trkpt lat="48.76664" lon="2.23696">
        <ele>142</ele>
        <time>2013-11-03T14:11:09Z</time>
      </trkpt>
      <trkpt lat="48.7666" lon="2.23701">
        <ele>142</ele>
        <time>2013-11-03T14:11:13Z</time>
      </trkpt>
      <trkpt lat="48.76656" lon="2.23706">
        <ele>143</ele>
        <time>2013-11-03T14:11:18Z</time>
      </trkpt>
      <trkpt lat="48.76651" lon="2.23708">
        <ele>143</ele>
        <time>2013-11-03T14:11:26Z</time>
      </trkpt>
      <trkpt lat="48.76648" lon="2.23715">
        <ele>142</ele>
        <time>2013-11-03T14:11:30Z</time>
      </trkpt>
      <trkpt lat="48.76645" lon="2.23721">
        <ele>143</ele>
        <time>2013-11-03T14:11:34Z</time>
      </trkpt>
      <trkpt lat="48.76644" lon="2.23728">
        <ele>144</ele>
        <time>2013-11-03T14:11:38Z</time>
      </trkpt>
      <trkpt lat="48.76642" lon="2.23734">
        <ele>146</ele>
        <time>2013-11-03T14:11:45Z</time>
      </trkpt>
      <trkpt lat="48.76641" lon="2.23741">
        <ele>147</ele>
        <time>2013-11-03T14:11:50Z</time>
      </trkpt>
      <trkpt lat="48.76638" lon="2.23749">
        <ele>147</ele>
        <time>2013-11-03T14:11:54Z</time>
      </trkpt>
      <trkpt lat="48.76634" lon="2.23754">
        <ele>148</ele>
        <time>2013-11-03T14:11:57Z</time>
      </trkpt>
      <trkpt lat="48.76633" lon="2.23762">
        <ele>149</ele>
        <time>2013-11-03T14:12:02Z</time>
      </trkpt>
      <trkpt lat="48.76631" lon="2.23768">
        <ele>149</ele>
        <time>2013-11-03T14:12:08Z</time>
      </trkpt>
      <trkpt lat="48.76633" lon="2.23775">
        <ele>147</ele>
        <time>2013-11-03T14:12:16Z</time>
      </trkpt>
      <trkpt lat="48.76632" lon="2.23783">
        <ele>146</ele>
        <time>2013-11-03T14:12:21Z</time>
      </trkpt>
      <trkpt lat="48.76632" lon="2.23791">
        <ele>147</ele>
        <time>2013-11-03T14:12:25Z</time>
      </trkpt>
      <trkpt lat="48.76631" lon="2.23798">
        <ele>148</ele>
        <time>2013-11-03T14:12:30Z</time>
      </trkpt>
      <trkpt lat="48.7663" lon="2.23806">
        <ele>148</ele>
        <time>2013-11-03T14:12:34Z</time>
      </trkpt>
      <trkpt lat="48.76632" lon="2.23814">
        <ele>148</ele>
        <time>2013-11-03T14:12:39Z</time>
      </trkpt>
      <trkpt lat="48.76636" lon="2.23816">
        <ele>148</ele>
        <time>2013-11-03T14:12:51Z</time>
      </trkpt>
      <trkpt lat="48.76636" lon="2.23825">
        <ele>150</ele>
        <time>2013-11-03T14:12:58Z</time>
      </trkpt>
      <trkpt lat="48.7664" lon="2.23831">
        <ele>153</ele>
        <time>2013-11-03T14:13:07Z</time>
      </trkpt>
      <trkpt lat="48.76645" lon="2.23843">
        <ele>154</ele>
        <time>2013-11-03T14:13:17Z</time>
      </trkpt>
      <trkpt lat="48.76649" lon="2.23848">
        <ele>154</ele>
        <time>2013-11-03T14:13:21Z</time>
      </trkpt>
      <trkpt lat="48.76647" lon="2.23862">
        <ele>154</ele>
        <time>2013-11-03T14:13:29Z</time>
      </trkpt>
      <trkpt lat="48.76642" lon="2.23868">
        <ele>154</ele>
        <time>2013-11-03T14:13:32Z</time>
      </trkpt>
      <trkpt lat="48.76637" lon="2.23871">
        <ele>154</ele>
        <time>2013-11-03T14:13:36Z</time>
      </trkpt>
      <trkpt lat="48.76634" lon="2.23877">
        <ele>153</ele>
        <time>2013-11-03T14:13:41Z</time>
      </trkpt>
      <trkpt lat="48.7663" lon="2.23883">
        <ele>154</ele>
        <time>2013-11-03T14:13:46Z</time>
      </trkpt>
      <trkpt lat="48.76627" lon="2.23888">
        <ele>155</ele>
        <time>2013-11-03T14:13:54Z</time>
      </trkpt>
      <trkpt lat="48.76622" lon="2.23891">
        <ele>156</ele>
        <time>2013-11-03T14:13:58Z</time>
      </trkpt>
      <trkpt lat="48.76617" lon="2.23893">
        <ele>156</ele>
        <time>2013-11-03T14:14:01Z</time>
      </trkpt>
      <trkpt lat="48.76613" lon="2.23896">
        <ele>157</ele>
        <time>2013-11-03T14:14:05Z</time>
      </trkpt>
      <trkpt lat="48.76608" lon="2.23899">
        <ele>158</ele>
        <time>2013-11-03T14:14:10Z</time>
      </trkpt>
      <trkpt lat="48.76604" lon="2.23904">
        <ele>158</ele>
        <time>2013-11-03T14:14:13Z</time>
      </trkpt>
      <trkpt lat="48.76604" lon="2.23911">
        <ele>158</ele>
        <time>2013-11-03T14:14:18Z</time>
      </trkpt>
      <trkpt lat="48.76599" lon="2.23914">
        <ele>159</ele>
        <time>2013-11-03T14:14:23Z</time>
      </trkpt>
      <trkpt lat="48.76593" lon="2.23916">
        <ele>159</ele>
        <time>2013-11-03T14:14:32Z</time>
      </trkpt>
      <trkpt lat="48.76588" lon="2.23919">
        <ele>159</ele>
        <time>2013-11-03T14:14:35Z</time>
      </trkpt>
      <trkpt lat="48.76584" lon="2.23921">
        <ele>159</ele>
        <time>2013-11-03T14:14:41Z</time>
      </trkpt>
      <trkpt lat="48.76579" lon="2.23923">
        <ele>161</ele>
        <time>2013-11-03T14:14:46Z</time>
      </trkpt>
      <trkpt lat="48.76574" lon="2.23921">
        <ele>159</ele>
        <time>2013-11-03T14:14:53Z</time>
      </trkpt>
      <trkpt lat="48.76569" lon="2.23927">
        <ele>158</ele>
        <time>2013-11-03T14:14:57Z</time>
      </trkpt>
      <trkpt lat="48.76565" lon="2.23931">
        <ele>157</ele>
        <time>2013-11-03T14:14:59Z</time>
      </trkpt>
      <trkpt lat="48.76559" lon="2.23933">
        <ele>156</ele>
        <time>2013-11-03T14:15:03Z</time>
      </trkpt>
      <trkpt lat="48.76554" lon="2.23937">
        <ele>156</ele>
        <time>2013-11-03T14:15:07Z</time>
      </trkpt>
      <trkpt lat="48.76549" lon="2.2394">
        <ele>156</ele>
        <time>2013-11-03T14:15:11Z</time>
      </trkpt>
      <trkpt lat="48.76546" lon="2.23946">
        <ele>156</ele>
        <time>2013-11-03T14:15:14Z</time>
      </trkpt>
      <trkpt lat="48.76541" lon="2.2395">
        <ele>156</ele>
        <time>2013-11-03T14:15:19Z</time>
      </trkpt>
      <trkpt lat="48.76537" lon="2.23954">
        <ele>155</ele>
        <time>2013-11-03T14:15:23Z</time>
      </trkpt>
      <trkpt lat="48.76532" lon="2.23959">
        <ele>155</ele>
        <time>2013-11-03T14:15:28Z</time>
      </trkpt>
      <trkpt lat="48.76527" lon="2.23962">
        <ele>155</ele>
        <time>2013-11-03T14:15:31Z</time>
      </trkpt>
      <trkpt lat="48.76524" lon="2.23967">
        <ele>155</ele>
        <time>2013-11-03T14:15:34Z</time>
      </trkpt>
      <trkpt lat="48.7652" lon="2.23972">
        <ele>156</ele>
        <time>2013-11-03T14:15:37Z</time>
      </trkpt>
      <trkpt lat="48.76516" lon="2.23973">
        <ele>156</ele>
        <time>2013-11-03T14:15:41Z</time>
      </trkpt>
      <trkpt lat="48.76511" lon="2.23976">
        <ele>157</ele>
        <time>2013-11-03T14:15:46Z</time>
      </trkpt>
      <trkpt lat="48.76502" lon="2.2397">
        <ele>159</ele>
        <time>2013-11-03T14:15:56Z</time>
      </trkpt>
      <trkpt lat="48.76492" lon="2.23967">
        <ele>159</ele>
        <time>2013-11-03T14:16:03Z</time>
      </trkpt>
      <trkpt lat="48.76482" lon="2.23967">
        <ele>160</ele>
        <time>2013-11-03T14:16:10Z</time>
      </trkpt>
      <trkpt lat="48.76475" lon="2.23977">
        <ele>160</ele>
        <time>2013-11-03T14:16:14Z</time>
      </trkpt>
      <trkpt lat="48.76471" lon="2.2399">
        <ele>161</ele>
        <time>2013-11-03T14:16:20Z</time>
      </trkpt>
      <trkpt lat="48.76471" lon="2.24">
        <ele>162</ele>
        <time>2013-11-03T14:16:23Z</time>
      </trkpt>
      <trkpt lat="48.76468" lon="2.24008">
        <ele>164</ele>
        <time>2013-11-03T14:16:27Z</time>
      </trkpt>
      <trkpt lat="48.76463" lon="2.24011">
        <ele>167</ele>
        <time>2013-11-03T14:16:36Z</time>
      </trkpt>
      <trkpt lat="48.76458" lon="2.24013">
        <ele>167</ele>
        <time>2013-11-03T14:16:41Z</time>
      </trkpt>
      <trkpt lat="48.76454" lon="2.24016">
        <ele>167</ele>
        <time>2013-11-03T14:16:44Z</time>
      </trkpt>
      <trkpt lat="48.7645" lon="2.2402">
        <ele>167</ele>
        <time>2013-11-03T14:16:47Z</time>
      </trkpt>
      <trkpt lat="48.76444" lon="2.24022">
        <ele>168</ele>
        <time>2013-11-03T14:16:51Z</time>
      </trkpt>
      <trkpt lat="48.76439" lon="2.24025">
        <ele>168</ele>
        <time>2013-11-03T14:16:55Z</time>
      </trkpt>
      <trkpt lat="48.76435" lon="2.24029">
        <ele>169</ele>
        <time>2013-11-03T14:17:00Z</time>
      </trkpt>
      <trkpt lat="48.76431" lon="2.24034">
        <ele>170</ele>
        <time>2013-11-03T14:17:05Z</time>
      </trkpt>
      <trkpt lat="48.76426" lon="2.24036">
        <ele>172</ele>
        <time>2013-11-03T14:17:10Z</time>
      </trkpt>
      <trkpt lat="48.7642" lon="2.2404">
        <ele>172</ele>
        <time>2013-11-03T14:17:15Z</time>
      </trkpt>
      <trkpt lat="48.76415" lon="2.24042">
        <ele>172</ele>
        <time>2013-11-03T14:17:20Z</time>
      </trkpt>
      <trkpt lat="48.76412" lon="2.24047">
        <ele>171</ele>
        <time>2013-11-03T14:17:25Z</time>
      </trkpt>
      <trkpt lat="48.76407" lon="2.24052">
        <ele>170</ele>
        <time>2013-11-03T14:17:30Z</time>
      </trkpt>
      <trkpt lat="48.76403" lon="2.24056">
        <ele>170</ele>
        <time>2013-11-03T14:17:34Z</time>
      </trkpt>
      <trkpt lat="48.76399" lon="2.24061">
        <ele>169</ele>
        <time>2013-11-03T14:17:39Z</time>
      </trkpt>
      <trkpt lat="48.76393" lon="2.24064">
        <ele>167</ele>
        <time>2013-11-03T14:17:44Z</time>
      </trkpt>
      <trkpt lat="48.76389" lon="2.24068">
        <ele>167</ele>
        <time>2013-11-03T14:17:50Z</time>
      </trkpt>
      <trkpt lat="48.76379" lon="2.24072">
        <ele>159</ele>
        <time>2013-11-03T14:18:03Z</time>
      </trkpt>
      <trkpt lat="48.76374" lon="2.24076">
        <ele>158</ele>
        <time>2013-11-03T14:18:07Z</time>
      </trkpt>
      <trkpt lat="48.76367" lon="2.24077">
        <ele>158</ele>
        <time>2013-11-03T14:18:12Z</time>
      </trkpt>
      <trkpt lat="48.76362" lon="2.24076">
        <ele>157</ele>
        <time>2013-11-03T14:18:18Z</time>
      </trkpt>
      <trkpt lat="48.76359" lon="2.2407">
        <ele>157</ele>
        <time>2013-11-03T14:18:22Z</time>
      </trkpt>
      <trkpt lat="48.76356" lon="2.24064">
        <ele>156</ele>
        <time>2013-11-03T14:18:26Z</time>
      </trkpt>
      <trkpt lat="48.76354" lon="2.24057">
        <ele>156</ele>
        <time>2013-11-03T14:18:31Z</time>
      </trkpt>
      <trkpt lat="48.7635" lon="2.24052">
        <ele>156</ele>
        <time>2013-11-03T14:18:37Z</time>
      </trkpt>
      <trkpt lat="48.76346" lon="2.24047">
        <ele>155</ele>
        <time>2013-11-03T14:18:44Z</time>
      </trkpt>
      <trkpt lat="48.76343" lon="2.24041">
        <ele>156</ele>
        <time>2013-11-03T14:18:47Z</time>
      </trkpt>
      <trkpt lat="48.7634" lon="2.24036">
        <ele>157</ele>
        <time>2013-11-03T14:18:50Z</time>
      </trkpt>
      <trkpt lat="48.76337" lon="2.24029">
        <ele>157</ele>
        <time>2013-11-03T14:18:55Z</time>
      </trkpt>
      <trkpt lat="48.76334" lon="2.24023">
        <ele>158</ele>
        <time>2013-11-03T14:19:00Z</time>
      </trkpt>
      <trkpt lat="48.76331" lon="2.24018">
        <ele>158</ele>
        <time>2013-11-03T14:19:05Z</time>
      </trkpt>
      <trkpt lat="48.76328" lon="2.24011">
        <ele>159</ele>
        <time>2013-11-03T14:19:09Z</time>
      </trkpt>
      <trkpt lat="48.76325" lon="2.24006">
        <ele>159</ele>
        <time>2013-11-03T14:19:13Z</time>
      </trkpt>
      <trkpt lat="48.76322" lon="2.24001">
        <ele>159</ele>
        <time>2013-11-03T14:19:17Z</time>
      </trkpt>
      <trkpt lat="48.76317" lon="2.23997">
        <ele>160</ele>
        <time>2013-11-03T14:19:22Z</time>
      </trkpt>
      <trkpt lat="48.76313" lon="2.23993">
        <ele>160</ele>
        <time>2013-11-03T14:19:24Z</time>
      </trkpt>
      <trkpt lat="48.76309" lon="2.23989">
        <ele>160</ele>
        <time>2013-11-03T14:19:27Z</time>
      </trkpt>
      <trkpt lat="48.76306" lon="2.23984">
        <ele>161</ele>
        <time>2013-11-03T14:19:34Z</time>
      </trkpt>
      <trkpt lat="48.76302" lon="2.23981">
        <ele>164</ele>
        <time>2013-11-03T14:19:42Z</time>
      </trkpt>
      <trkpt lat="48.76297" lon="2.23975">
        <ele>164</ele>
        <time>2013-11-03T14:19:48Z</time>
      </trkpt>
      <trkpt lat="48.76294" lon="2.23969">
        <ele>163</ele>
        <time>2013-11-03T14:19:52Z</time>
      </trkpt>
      <trkpt lat="48.7629" lon="2.23965">
        <ele>162</ele>
        <time>2013-11-03T14:19:57Z</time>
      </trkpt>
      <trkpt lat="48.76285" lon="2.2396">
        <ele>163</ele>
        <time>2013-11-03T14:20:01Z</time>
      </trkpt>
      <trkpt lat="48.76281" lon="2.23954">
        <ele>163</ele>
        <time>2013-11-03T14:20:06Z</time>
      </trkpt>
      <trkpt lat="48.76277" lon="2.2395">
        <ele>163</ele>
        <time>2013-11-03T14:20:10Z</time>
      </trkpt>
      <trkpt lat="48.76272" lon="2.23946">
        <ele>162</ele>
        <time>2013-11-03T14:20:16Z</time>
      </trkpt>
      <trkpt lat="48.76269" lon="2.23942">
        <ele>160</ele>
        <time>2013-11-03T14:20:22Z</time>
      </trkpt>
      <trkpt lat="48.76265" lon="2.23936">
        <ele>159</ele>
        <time>2013-11-03T14:20:27Z</time>
      </trkpt>
      <trkpt lat="48.76261" lon="2.23932">
        <ele>158</ele>
        <time>2013-11-03T14:20:30Z</time>
      </trkpt>
      <trkpt lat="48.76257" lon="2.23929">
        <ele>157</ele>
        <time>2013-11-03T14:20:35Z</time>
      </trkpt>
      <trkpt lat="48.76253" lon="2.23925">
        <ele>157</ele>
        <time>2013-11-03T14:20:39Z</time>
      </trkpt>
      <trkpt lat="48.76248" lon="2.23922">
        <ele>155</ele>
        <time>2013-11-03T14:20:45Z</time>
      </trkpt>
      <trkpt lat="48.76244" lon="2.23917">
        <ele>156</ele>
        <time>2013-11-03T14:20:51Z</time>
      </trkpt>
      <trkpt lat="48.7624" lon="2.2391">
        <ele>156</ele>
        <time>2013-11-03T14:20:56Z</time>
      </trkpt>
      <trkpt lat="48.76236" lon="2.23906">
        <ele>156</ele>
        <time>2013-11-03T14:21:00Z</time>
      </trkpt>
      <trkpt lat="48.76231" lon="2.23904">
        <ele>156</ele>
        <time>2013-11-03T14:21:04Z</time>
      </trkpt>
      <trkpt lat="48.76226" lon="2.239">
        <ele>156</ele>
        <time>2013-11-03T14:21:09Z</time>
      </trkpt>
      <trkpt lat="48.76222" lon="2.23897">
        <ele>156</ele>
        <time>2013-11-03T14:21:14Z</time>
      </trkpt>
      <trkpt lat="48.76218" lon="2.23893">
        <ele>156</ele>
        <time>2013-11-03T14:21:18Z</time>
      </trkpt>
      <trkpt lat="48.76214" lon="2.23889">
        <ele>156</ele>
        <time>2013-11-03T14:21:23Z</time>
      </trkpt>
      <trkpt lat="48.76209" lon="2.23885">
        <ele>155</ele>
        <time>2013-11-03T14:21:29Z</time>
      </trkpt>
      <trkpt lat="48.76205" lon="2.23882">
        <ele>154</ele>
        <time>2013-11-03T14:21:35Z</time>
      </trkpt>
      <trkpt lat="48.76201" lon="2.23878">
        <ele>155</ele>
        <time>2013-11-03T14:21:40Z</time>
      </trkpt>
      <trkpt lat="48.76197" lon="2.23871">
        <ele>156</ele>
        <time>2013-11-03T14:21:45Z</time>
      </trkpt>
      <trkpt lat="48.76194" lon="2.23865">
        <ele>157</ele>
        <time>2013-11-03T14:21:49Z</time>
      </trkpt>
      <trkpt lat="48.7619" lon="2.2386">
        <ele>158</ele>
        <time>2013-11-03T14:21:53Z</time>
      </trkpt>
      <trkpt lat="48.76187" lon="2.23855">
        <ele>158</ele>
        <time>2013-11-03T14:21:56Z</time>
      </trkpt>
      <trkpt lat="48.76183" lon="2.23849">
        <ele>159</ele>
        <time>2013-11-03T14:22:00Z</time>
      </trkpt>
      <trkpt lat="48.76179" lon="2.23845">
        <ele>159</ele>
        <time>2013-11-03T14:22:04Z</time>
      </trkpt>
      <trkpt lat="48.76176" lon="2.23839">
        <ele>159</ele>
        <time>2013-11-03T14:22:09Z</time>
      </trkpt>
      <trkpt lat="48.76173" lon="2.23832">
        <ele>160</ele>
        <time>2013-11-03T14:22:16Z</time>
      </trkpt>
      <trkpt lat="48.7617" lon="2.23826">
        <ele>160</ele>
        <time>2013-11-03T14:22:22Z</time>
      </trkpt>
      <trkpt lat="48.76165" lon="2.23823">
        <ele>160</ele>
        <time>2013-11-03T14:22:28Z</time>
      </trkpt>
      <trkpt lat="48.7616" lon="2.23821">
        <ele>161</ele>
        <time>2013-11-03T14:22:35Z</time>
      </trkpt>
      <trkpt lat="48.76156" lon="2.23817">
        <ele>161</ele>
        <time>2013-11-03T14:22:41Z</time>
      </trkpt>
      <trkpt lat="48.76152" lon="2.23811">
        <ele>162</ele>
        <time>2013-11-03T14:22:46Z</time>
      </trkpt>
      <trkpt lat="48.76148" lon="2.23806">
        <ele>162</ele>
        <time>2013-11-03T14:22:53Z</time>
      </trkpt>
      <trkpt lat="48.76144" lon="2.23801">
        <ele>162</ele>
        <time>2013-11-03T14:22:57Z</time>
      </trkpt>
      <trkpt lat="48.7614" lon="2.23797">
        <ele>162</ele>
        <time>2013-11-03T14:23:01Z</time>
      </trkpt>
      <trkpt lat="48.76139" lon="2.23789">
        <ele>162</ele>
        <time>2013-11-03T14:23:05Z</time>
      </trkpt>
      <trkpt lat="48.76137" lon="2.23782">
        <ele>162</ele>
        <time>2013-11-03T14:23:09Z</time>
      </trkpt>
      <trkpt lat="48.76134" lon="2.23777">
        <ele>162</ele>
        <time>2013-11-03T14:23:13Z</time>
      </trkpt>
      <trkpt lat="48.7613" lon="2.23774">
        <ele>162</ele>
        <time>2013-11-03T14:23:19Z</time>
      </trkpt>
      <trkpt lat="48.76126" lon="2.23768">
        <ele>162</ele>
        <time>2013-11-03T14:23:25Z</time>
      </trkpt>
      <trkpt lat="48.76124" lon="2.23761">
        <ele>162</ele>
        <time>2013-11-03T14:23:32Z</time>
      </trkpt>
      <trkpt lat="48.76118" lon="2.23754">
        <ele>161</ele>
        <time>2013-11-03T14:23:42Z</time>
      </trkpt>
      <trkpt lat="48.76114" lon="2.23753">
        <ele>161</ele>
        <time>2013-11-03T14:23:45Z</time>
      </trkpt>
      <trkpt lat="48.76109" lon="2.23749">
        <ele>161</ele>
        <time>2013-11-03T14:23:49Z</time>
      </trkpt>
      <trkpt lat="48.76108" lon="2.23734">
        <ele>161</ele>
        <time>2013-11-03T14:24:00Z</time>
      </trkpt>
      <trkpt lat="48.76106" lon="2.23721">
        <ele>161</ele>
        <time>2013-11-03T14:24:08Z</time>
      </trkpt>
      <trkpt lat="48.76101" lon="2.23721">
        <ele>161</ele>
        <time>2013-11-03T14:24:13Z</time>
      </trkpt>
      <trkpt lat="48.76096" lon="2.23723">
        <ele>161</ele>
        <time>2013-11-03T14:24:15Z</time>
      </trkpt>
      <trkpt lat="48.76091" lon="2.23726">
        <ele>162</ele>
        <time>2013-11-03T14:24:18Z</time>
      </trkpt>
      <trkpt lat="48.76085" lon="2.23727">
        <ele>164</ele>
        <time>2013-11-03T14:24:23Z</time>
      </trkpt>
      <trkpt lat="48.7608" lon="2.23725">
        <ele>168</ele>
        <time>2013-11-03T14:24:27Z</time>
      </trkpt>
      <trkpt lat="48.76076" lon="2.2372">
        <ele>171</ele>
        <time>2013-11-03T14:24:32Z</time>
      </trkpt>
      <trkpt lat="48.76077" lon="2.23713">
        <ele>171</ele>
        <time>2013-11-03T14:24:39Z</time>
      </trkpt>
      <trkpt lat="48.76078" lon="2.23705">
        <ele>169</ele>
        <time>2013-11-03T14:24:46Z</time>
      </trkpt>
      <trkpt lat="48.76082" lon="2.23699">
        <ele>167</ele>
        <time>2013-11-03T14:24:52Z</time>
      </trkpt>
      <trkpt lat="48.76085" lon="2.23693">
        <ele>167</ele>
        <time>2013-11-03T14:24:56Z</time>
      </trkpt>
      <trkpt lat="48.76085" lon="2.23685">
        <ele>166</ele>
        <time>2013-11-03T14:25:02Z</time>
      </trkpt>
      <trkpt lat="48.76087" lon="2.23678">
        <ele>165</ele>
        <time>2013-11-03T14:25:07Z</time>
      </trkpt>
      <trkpt lat="48.76089" lon="2.23671">
        <ele>164</ele>
        <time>2013-11-03T14:25:11Z</time>
      </trkpt>
      <trkpt lat="48.76091" lon="2.23664">
        <ele>164</ele>
        <time>2013-11-03T14:25:16Z</time>
      </trkpt>
      <trkpt lat="48.76092" lon="2.23657">
        <ele>163</ele>
        <time>2013-11-03T14:25:21Z</time>
      </trkpt>
      <trkpt lat="48.76094" lon="2.23649">
        <ele>162</ele>
        <time>2013-11-03T14:25:27Z</time>
      </trkpt>
      <trkpt lat="48.76094" lon="2.23642">
        <ele>162</ele>
        <time>2013-11-03T14:25:31Z</time>
      </trkpt>
      <trkpt lat="48.76097" lon="2.23636">
        <ele>163</ele>
        <time>2013-11-03T14:25:37Z</time>
      </trkpt>
      <trkpt lat="48.76101" lon="2.23632">
        <ele>164</ele>
        <time>2013-11-03T14:25:40Z</time>
      </trkpt>
      <trkpt lat="48.76104" lon="2.23627">
        <ele>168</ele>
        <time>2013-11-03T14:25:44Z</time>
      </trkpt>
      <trkpt lat="48.76105" lon="2.2362">
        <ele>169</ele>
        <time>2013-11-03T14:25:51Z</time>
      </trkpt>
      <trkpt lat="48.76107" lon="2.23613">
        <ele>168</ele>
        <time>2013-11-03T14:25:56Z</time>
      </trkpt>
      <trkpt lat="48.76108" lon="2.23602">
        <ele>168</ele>
        <time>2013-11-03T14:26:03Z</time>
      </trkpt>
      <trkpt lat="48.76109" lon="2.23593">
        <ele>168</ele>
        <time>2013-11-03T14:26:09Z</time>
      </trkpt>
      <trkpt lat="48.76112" lon="2.23585">
        <ele>167</ele>
        <time>2013-11-03T14:26:13Z</time>
      </trkpt>
      <trkpt lat="48.76114" lon="2.23577">
        <ele>167</ele>
        <time>2013-11-03T14:26:17Z</time>
      </trkpt>
      <trkpt lat="48.76112" lon="2.23571">
        <ele>165</ele>
        <time>2013-11-03T14:26:21Z</time>
      </trkpt>
      <trkpt lat="48.76112" lon="2.23563">
        <ele>164</ele>
        <time>2013-11-03T14:26:25Z</time>
      </trkpt>
      <trkpt lat="48.76114" lon="2.23557">
        <ele>164</ele>
        <time>2013-11-03T14:26:31Z</time>
      </trkpt>
      <trkpt lat="48.76115" lon="2.23549">
        <ele>165</ele>
        <time>2013-11-03T14:26:37Z</time>
      </trkpt>
      <trkpt lat="48.76117" lon="2.23542">
        <ele>166</ele>
        <time>2013-11-03T14:26:41Z</time>
      </trkpt>
      <trkpt lat="48.76119" lon="2.23536">
        <ele>167</ele>
        <time>2013-11-03T14:26:45Z</time>
      </trkpt>
      <trkpt lat="48.76119" lon="2.23529">
        <ele>167</ele>
        <time>2013-11-03T14:26:51Z</time>
      </trkpt>
      <trkpt lat="48.76121" lon="2.23521">
        <ele>167</ele>
        <time>2013-11-03T14:26:57Z</time>
      </trkpt>
      <trkpt lat="48.76124" lon="2.23515">
        <ele>168</ele>
        <time>2013-11-03T14:27:02Z</time>
      </trkpt>
      <trkpt lat="48.76126" lon="2.23508">
        <ele>168</ele>
        <time>2013-11-03T14:27:06Z</time>
      </trkpt>
      <trkpt lat="48.76125" lon="2.235">
        <ele>166</ele>
        <time>2013-11-03T14:27:11Z</time>
      </trkpt>
      <trkpt lat="48.76128" lon="2.23493">
        <ele>166</ele>
        <time>2013-11-03T14:27:17Z</time>
      </trkpt>
      <trkpt lat="48.76129" lon="2.23485">
        <ele>166</ele>
        <time>2013-11-03T14:27:22Z</time>
      </trkpt>
      <trkpt lat="48.76132" lon="2.2348">
        <ele>166</ele>
        <time>2013-11-03T14:27:25Z</time>
      </trkpt>
      <trkpt lat="48.76134" lon="2.23472">
        <ele>167</ele>
        <time>2013-11-03T14:27:29Z</time>
      </trkpt>
      <trkpt lat="48.76135" lon="2.23464">
        <ele>168</ele>
        <time>2013-11-03T14:27:34Z</time>
      </trkpt>
      <trkpt lat="48.76135" lon="2.23457">
        <ele>166</ele>
        <time>2013-11-03T14:27:40Z</time>
      </trkpt>
      <trkpt lat="48.76136" lon="2.2345">
        <ele>165</ele>
        <time>2013-11-03T14:27:45Z</time>
      </trkpt>
      <trkpt lat="48.76136" lon="2.23443">
        <ele>165</ele>
        <time>2013-11-03T14:27:51Z</time>
      </trkpt>
      <trkpt lat="48.7614" lon="2.23436">
        <ele>165</ele>
        <time>2013-11-03T14:27:55Z</time>
      </trkpt>
      <trkpt lat="48.76141" lon="2.23427">
        <ele>166</ele>
        <time>2013-11-03T14:27:59Z</time>
      </trkpt>
      <trkpt lat="48.76141" lon="2.2342">
        <ele>166</ele>
        <time>2013-11-03T14:28:04Z</time>
      </trkpt>
      <trkpt lat="48.76142" lon="2.23413">
        <ele>167</ele>
        <time>2013-11-03T14:28:09Z</time>
      </trkpt>
      <trkpt lat="48.76144" lon="2.23405">
        <ele>167</ele>
        <time>2013-11-03T14:28:14Z</time>
      </trkpt>
      <trkpt lat="48.76146" lon="2.23398">
        <ele>166</ele>
        <time>2013-11-03T14:28:19Z</time>
      </trkpt>
      <trkpt lat="48.76148" lon="2.23392">
        <ele>166</ele>
        <time>2013-11-03T14:28:24Z</time>
      </trkpt>
      <trkpt lat="48.76151" lon="2.23385">
        <ele>166</ele>
        <time>2013-11-03T14:28:29Z</time>
      </trkpt>
      <trkpt lat="48.76151" lon="2.23378">
        <ele>165</ele>
        <time>2013-11-03T14:28:34Z</time>
      </trkpt>
      <trkpt lat="48.7615" lon="2.2337">
        <ele>163</ele>
        <time>2013-11-03T14:28:40Z</time>
      </trkpt>
      <trkpt lat="48.76147" lon="2.23367">
        <ele>162</ele>
        <time>2013-11-03T14:29:00Z</time>
      </trkpt>
      <trkpt lat="48.76146" lon="2.2336">
        <ele>162</ele>
        <time>2013-11-03T14:29:05Z</time>
      </trkpt>
      <trkpt lat="48.76147" lon="2.23351">
        <ele>162</ele>
        <time>2013-11-03T14:29:16Z</time>
      </trkpt>
      <trkpt lat="48.76149" lon="2.23344">
        <ele>162</ele>
        <time>2013-11-03T14:29:21Z</time>
      </trkpt>
      <trkpt lat="48.76151" lon="2.23336">
        <ele>162</ele>
        <time>2013-11-03T14:29:26Z</time>
      </trkpt>
      <trkpt lat="48.76151" lon="2.23329">
        <ele>161</ele>
        <time>2013-11-03T14:29:30Z</time>
      </trkpt>
      <trkpt lat="48.7615" lon="2.23322">
        <ele>159</ele>
        <time>2013-11-03T14:29:36Z</time>
      </trkpt>
      <trkpt lat="48.76149" lon="2.23314">
        <ele>157</ele>
        <time>2013-11-03T14:29:42Z</time>
      </trkpt>
      <trkpt lat="48.76148" lon="2.23307">
        <ele>156</ele>
        <time>2013-11-03T14:29:53Z</time>
      </trkpt>
      <trkpt lat="48.76145" lon="2.23302">
        <ele>156</ele>
        <time>2013-11-03T14:30:00Z</time>
      </trkpt>
      <trkpt lat="48.76144" lon="2.23294">
        <ele>154</ele>
        <time>2013-11-03T14:30:08Z</time>
      </trkpt>
      <trkpt lat="48.76144" lon="2.23285">
        <ele>153</ele>
        <time>2013-11-03T14:30:13Z</time>
      </trkpt>
      <trkpt lat="48.76141" lon="2.23289">
        <ele>151</ele>
        <time>2013-11-03T14:30:33Z</time>
      </trkpt>
      <trkpt lat="48.76138" lon="2.23296">
        <ele>149</ele>
        <time>2013-11-03T14:33:50Z</time>
      </trkpt>
      <trkpt lat="48.76143" lon="2.23294">
        <ele>156</ele>
        <time>2013-11-03T14:37:05Z</time>
      </trkpt>
      <trkpt lat="48.76147" lon="2.23291">
        <ele>157</ele>
        <time>2013-11-03T14:37:09Z</time>
      </trkpt>
      <trkpt lat="48.76152" lon="2.23292">
        <ele>159</ele>
        <time>2013-11-03T14:37:13Z</time>
      </trkpt>
      <trkpt lat="48.76147" lon="2.23283">
        <ele>165</ele>
        <time>2013-11-03T14:37:37Z</time>
      </trkpt>
      <trkpt lat="48.76145" lon="2.23281">
        <ele>166</ele>
        <time>2013-11-03T14:37:54Z</time>
      </trkpt>
      <trkpt lat="48.7614" lon="2.23278">
        <ele>166</ele>
        <time>2013-11-03T14:38:02Z</time>
      </trkpt>
      <trkpt lat="48.76142" lon="2.23278">
        <ele>164</ele>
        <time>2013-11-03T14:41:17Z</time>
      </trkpt>
      <trkpt lat="48.76145" lon="2.23273">
        <ele>164</ele>
        <time>2013-11-03T14:41:23Z</time>
      </trkpt>
      <trkpt lat="48.76148" lon="2.23263">
        <ele>161</ele>
        <time>2013-11-03T14:41:25Z</time>
      </trkpt>
      <trkpt lat="48.76151" lon="2.23255">
        <ele>160</ele>
        <time>2013-11-03T14:41:27Z</time>
      </trkpt>
      <trkpt lat="48.76152" lon="2.23248">
        <ele>158</ele>
        <time>2013-11-03T14:41:30Z</time>
      </trkpt>
      <trkpt lat="48.76153" lon="2.23241">
        <ele>156</ele>
        <time>2013-11-03T14:41:36Z</time>
      </trkpt>
      <trkpt lat="48.76158" lon="2.2324">
        <ele>155</ele>
        <time>2013-11-03T14:41:39Z</time>
      </trkpt>
      <trkpt lat="48.76165" lon="2.23247">
        <ele>153</ele>
        <time>2013-11-03T14:41:48Z</time>
      </trkpt>
      <trkpt lat="48.76161" lon="2.23246">
        <ele>154</ele>
        <time>2013-11-03T14:42:05Z</time>
      </trkpt>
      <trkpt lat="48.76157" lon="2.23251">
        <ele>155</ele>
        <time>2013-11-03T14:42:17Z</time>
      </trkpt>
      <trkpt lat="48.76155" lon="2.23257">
        <ele>154</ele>
        <time>2013-11-03T14:42:23Z</time>
      </trkpt>
      <trkpt lat="48.76152" lon="2.23263">
        <ele>154</ele>
        <time>2013-11-03T14:42:25Z</time>
      </trkpt>
      <trkpt lat="48.76149" lon="2.23271">
        <ele>155</ele>
        <time>2013-11-03T14:42:30Z</time>
      </trkpt>
      <trkpt lat="48.76146" lon="2.23277">
        <ele>156</ele>
        <time>2013-11-03T14:42:33Z</time>
      </trkpt>
      <trkpt lat="48.76142" lon="2.23282">
        <ele>156</ele>
        <time>2013-11-03T14:42:35Z</time>
      </trkpt>
      <trkpt lat="48.76138" lon="2.23281">
        <ele>158</ele>
        <time>2013-11-03T14:42:48Z</time>
      </trkpt>
      <trkpt lat="48.76136" lon="2.23278">
        <ele>157</ele>
        <time>2013-11-03T14:43:43Z</time>
      </trkpt>
      <trkpt lat="48.76131" lon="2.23282">
        <ele>157</ele>
        <time>2013-11-03T14:43:47Z</time>
      </trkpt>
      <trkpt lat="48.76133" lon="2.23281">
        <ele>161</ele>
        <time>2013-11-03T14:44:16Z</time>
      </trkpt>
      <trkpt lat="48.76134" lon="2.23275">
        <ele>160</ele>
        <time>2013-11-03T14:44:50Z</time>
      </trkpt>
      <trkpt lat="48.76131" lon="2.2327">
        <ele>160</ele>
        <time>2013-11-03T14:44:52Z</time>
      </trkpt>
      <trkpt lat="48.76119" lon="2.23259">
        <ele>154</ele>
        <time>2013-11-03T14:45:08Z</time>
      </trkpt>
      <trkpt lat="48.76115" lon="2.23256">
        <ele>153</ele>
        <time>2013-11-03T14:45:14Z</time>
      </trkpt>
      <trkpt lat="48.76112" lon="2.23251">
        <ele>152</ele>
        <time>2013-11-03T14:45:19Z</time>
      </trkpt>
      <trkpt lat="48.76108" lon="2.23247">
        <ele>150</ele>
        <time>2013-11-03T14:45:24Z</time>
      </trkpt>
      <trkpt lat="48.76103" lon="2.23245">
        <ele>149</ele>
        <time>2013-11-03T14:45:30Z</time>
      </trkpt>
      <trkpt lat="48.76102" lon="2.23238">
        <ele>149</ele>
        <time>2013-11-03T14:45:35Z</time>
      </trkpt>
      <trkpt lat="48.76099" lon="2.23233">
        <ele>148</ele>
        <time>2013-11-03T14:45:41Z</time>
      </trkpt>
      <trkpt lat="48.76095" lon="2.23228">
        <ele>148</ele>
        <time>2013-11-03T14:45:45Z</time>
      </trkpt>
      <trkpt lat="48.76091" lon="2.23223">
        <ele>150</ele>
        <time>2013-11-03T14:45:50Z</time>
      </trkpt>
      <trkpt lat="48.76086" lon="2.23218">
        <ele>150</ele>
        <time>2013-11-03T14:45:53Z</time>
      </trkpt>
      <trkpt lat="48.76082" lon="2.23212">
        <ele>152</ele>
        <time>2013-11-03T14:45:57Z</time>
      </trkpt>
      <trkpt lat="48.76079" lon="2.23207">
        <ele>152</ele>
        <time>2013-11-03T14:45:59Z</time>
      </trkpt>
      <trkpt lat="48.76075" lon="2.23203">
        <ele>152</ele>
        <time>2013-11-03T14:46:03Z</time>
      </trkpt>
      <trkpt lat="48.7607" lon="2.23198">
        <ele>150</ele>
        <time>2013-11-03T14:46:08Z</time>
      </trkpt>
      <trkpt lat="48.76065" lon="2.23194">
        <ele>149</ele>
        <time>2013-11-03T14:46:13Z</time>
      </trkpt>
      <trkpt lat="48.76061" lon="2.23189">
        <ele>148</ele>
        <time>2013-11-03T14:46:17Z</time>
      </trkpt>
      <trkpt lat="48.76057" lon="2.23185">
        <ele>148</ele>
        <time>2013-11-03T14:46:20Z</time>
      </trkpt>
      <trkpt lat="48.76055" lon="2.23177">
        <ele>149</ele>
        <time>2013-11-03T14:46:25Z</time>
      </trkpt>
      <trkpt lat="48.76051" lon="2.23174">
        <ele>146</ele>
        <time>2013-11-03T14:46:33Z</time>
      </trkpt>
      <trkpt lat="48.76048" lon="2.2317">
        <ele>145</ele>
        <time>2013-11-03T14:46:39Z</time>
      </trkpt>
      <trkpt lat="48.76042" lon="2.2317">
        <ele>144</ele>
        <time>2013-11-03T14:46:43Z</time>
      </trkpt>
      <trkpt lat="48.76037" lon="2.23169">
        <ele>144</ele>
        <time>2013-11-03T14:46:47Z</time>
      </trkpt>
      <trkpt lat="48.76033" lon="2.23164">
        <ele>144</ele>
        <time>2013-11-03T14:46:51Z</time>
      </trkpt>
      <trkpt lat="48.76029" lon="2.23158">
        <ele>144</ele>
        <time>2013-11-03T14:46:55Z</time>
      </trkpt>
      <trkpt lat="48.76025" lon="2.23152">
        <ele>144</ele>
        <time>2013-11-03T14:46:59Z</time>
      </trkpt>
      <trkpt lat="48.76024" lon="2.23145">
        <ele>144</ele>
        <time>2013-11-03T14:47:02Z</time>
      </trkpt>
      <trkpt lat="48.76021" lon="2.23136">
        <ele>145</ele>
        <time>2013-11-03T14:47:06Z</time>
      </trkpt>
      <trkpt lat="48.76018" lon="2.2313">
        <ele>145</ele>
        <time>2013-11-03T14:47:10Z</time>
      </trkpt>
      <trkpt lat="48.76013" lon="2.23127">
        <ele>145</ele>
        <time>2013-11-03T14:47:14Z</time>
      </trkpt>
      <trkpt lat="48.76008" lon="2.23122">
        <ele>146</ele>
        <time>2013-11-03T14:47:18Z</time>
      </trkpt>
      <trkpt lat="48.76004" lon="2.23114">
        <ele>147</ele>
        <time>2013-11-03T14:47:21Z</time>
      </trkpt>
      <trkpt lat="48.76001" lon="2.23108">
        <ele>147</ele>
        <time>2013-11-03T14:47:23Z</time>
      </trkpt>
      <trkpt lat="48.75998" lon="2.23103">
        <ele>148</ele>
        <time>2013-11-03T14:47:25Z</time>
      </trkpt>
      <trkpt lat="48.75994" lon="2.23098">
        <ele>148</ele>
        <time>2013-11-03T14:47:27Z</time>
      </trkpt>
      <trkpt lat="48.7599" lon="2.23091">
        <ele>149</ele>
        <time>2013-11-03T14:47:30Z</time>
      </trkpt>
      <trkpt lat="48.75986" lon="2.23086">
        <ele>150</ele>
        <time>2013-11-03T14:47:34Z</time>
      </trkpt>
      <trkpt lat="48.75984" lon="2.23078">
        <ele>152</ele>
        <time>2013-11-03T14:47:38Z</time>
      </trkpt>
      <trkpt lat="48.75982" lon="2.2307">
        <ele>153</ele>
        <time>2013-11-03T14:47:41Z</time>
      </trkpt>
      <trkpt lat="48.75978" lon="2.23064">
        <ele>153</ele>
        <time>2013-11-03T14:47:44Z</time>
      </trkpt>
      <trkpt lat="48.75975" lon="2.23058">
        <ele>154</ele>
        <time>2013-11-03T14:47:48Z</time>
      </trkpt>
      <trkpt lat="48.75972" lon="2.23051">
        <ele>155</ele>
        <time>2013-11-03T14:47:53Z</time>
      </trkpt>
      <trkpt lat="48.7597" lon="2.23045">
        <ele>157</ele>
        <time>2013-11-03T14:47:57Z</time>
      </trkpt>
      <trkpt lat="48.75967" lon="2.23039">
        <ele>157</ele>
        <time>2013-11-03T14:48:01Z</time>
      </trkpt>
      <trkpt lat="48.75966" lon="2.23031">
        <ele>159</ele>
        <time>2013-11-03T14:48:07Z</time>
      </trkpt>
      <trkpt lat="48.75967" lon="2.23024">
        <ele>160</ele>
        <time>2013-11-03T14:48:11Z</time>
      </trkpt>
      <trkpt lat="48.75965" lon="2.23017">
        <ele>162</ele>
        <time>2013-11-03T14:48:17Z</time>
      </trkpt>
      <trkpt lat="48.75962" lon="2.23011">
        <ele>163</ele>
        <time>2013-11-03T14:48:21Z</time>
      </trkpt>
      <trkpt lat="48.75957" lon="2.23005">
        <ele>164</ele>
        <time>2013-11-03T14:48:24Z</time>
      </trkpt>
      <trkpt lat="48.75954" lon="2.22999">
        <ele>164</ele>
        <time>2013-11-03T14:48:27Z</time>
      </trkpt>
      <trkpt lat="48.75951" lon="2.2299">
        <ele>164</ele>
        <time>2013-11-03T14:48:31Z</time>
      </trkpt>
      <trkpt lat="48.75947" lon="2.22984">
        <ele>161</ele>
        <time>2013-11-03T14:48:34Z</time>
      </trkpt>
      <trkpt lat="48.75944" lon="2.22979">
        <ele>160</ele>
        <time>2013-11-03T14:48:37Z</time>
      </trkpt>
      <trkpt lat="48.75939" lon="2.22975">
        <ele>160</ele>
        <time>2013-11-03T14:48:42Z</time>
      </trkpt>
      <trkpt lat="48.75936" lon="2.22969">
        <ele>161</ele>
        <time>2013-11-03T14:48:45Z</time>
      </trkpt>
      <trkpt lat="48.75932" lon="2.22962">
        <ele>162</ele>
        <time>2013-11-03T14:48:48Z</time>
      </trkpt>
      <trkpt lat="48.7593" lon="2.22956">
        <ele>163</ele>
        <time>2013-11-03T14:48:49Z</time>
      </trkpt>
      <trkpt lat="48.75926" lon="2.22951">
        <ele>164</ele>
        <time>2013-11-03T14:48:54Z</time>
      </trkpt>
      <trkpt lat="48.75924" lon="2.22945">
        <ele>164</ele>
        <time>2013-11-03T14:48:57Z</time>
      </trkpt>
      <trkpt lat="48.7592" lon="2.22939">
        <ele>163</ele>
        <time>2013-11-03T14:49:00Z</time>
      </trkpt>
      <trkpt lat="48.75918" lon="2.22932">
        <ele>163</ele>
        <time>2013-11-03T14:49:05Z</time>
      </trkpt>
      <trkpt lat="48.75916" lon="2.22925">
        <ele>164</ele>
        <time>2013-11-03T14:49:11Z</time>
      </trkpt>
      <trkpt lat="48.75913" lon="2.22918">
        <ele>164</ele>
        <time>2013-11-03T14:49:16Z</time>
      </trkpt>
      <trkpt lat="48.75908" lon="2.22912">
        <ele>163</ele>
        <time>2013-11-03T14:49:19Z</time>
      </trkpt>
      <trkpt lat="48.75902" lon="2.22908">
        <ele>162</ele>
        <time>2013-11-03T14:49:22Z</time>
      </trkpt>
      <trkpt lat="48.75899" lon="2.22902">
        <ele>161</ele>
        <time>2013-11-03T14:49:26Z</time>
      </trkpt>
      <trkpt lat="48.75895" lon="2.22896">
        <ele>160</ele>
        <time>2013-11-03T14:49:29Z</time>
      </trkpt>
      <trkpt lat="48.75891" lon="2.2289">
        <ele>160</ele>
        <time>2013-11-03T14:49:34Z</time>
      </trkpt>
      <trkpt lat="48.75889" lon="2.22884">
        <ele>159</ele>
        <time>2013-11-03T14:49:38Z</time>
      </trkpt>
      <trkpt lat="48.75885" lon="2.22877">
        <ele>158</ele>
        <time>2013-11-03T14:49:41Z</time>
      </trkpt>
      <trkpt lat="48.75881" lon="2.22871">
        <ele>159</ele>
        <time>2013-11-03T14:49:44Z</time>
      </trkpt>
      <trkpt lat="48.75877" lon="2.22869">
        <ele>159</ele>
        <time>2013-11-03T14:49:46Z</time>
      </trkpt>
      <trkpt lat="48.75872" lon="2.22866">
        <ele>159</ele>
        <time>2013-11-03T14:49:50Z</time>
      </trkpt>
      <trkpt lat="48.75868" lon="2.22861">
        <ele>157</ele>
        <time>2013-11-03T14:49:56Z</time>
      </trkpt>
      <trkpt lat="48.75863" lon="2.22857">
        <ele>157</ele>
        <time>2013-11-03T14:50:00Z</time>
      </trkpt>
      <trkpt lat="48.7586" lon="2.22852">
        <ele>157</ele>
        <time>2013-11-03T14:50:04Z</time>
      </trkpt>
      <trkpt lat="48.75856" lon="2.22846">
        <ele>156</ele>
        <time>2013-11-03T14:50:08Z</time>
      </trkpt>
      <trkpt lat="48.75851" lon="2.22842">
        <ele>156</ele>
        <time>2013-11-03T14:50:10Z</time>
      </trkpt>
      <trkpt lat="48.75846" lon="2.22839">
        <ele>156</ele>
        <time>2013-11-03T14:50:16Z</time>
      </trkpt>
      <trkpt lat="48.75841" lon="2.22837">
        <ele>155</ele>
        <time>2013-11-03T14:50:21Z</time>
      </trkpt>
      <trkpt lat="48.75839" lon="2.22831">
        <ele>155</ele>
        <time>2013-11-03T14:50:25Z</time>
      </trkpt>
      <trkpt lat="48.75837" lon="2.22824">
        <ele>157</ele>
        <time>2013-11-03T14:50:28Z</time>
      </trkpt>
      <trkpt lat="48.75833" lon="2.22819">
        <ele>157</ele>
        <time>2013-11-03T14:50:31Z</time>
      </trkpt>
      <trkpt lat="48.75829" lon="2.22816">
        <ele>157</ele>
        <time>2013-11-03T14:50:39Z</time>
      </trkpt>
      <trkpt lat="48.75825" lon="2.22811">
        <ele>155</ele>
        <time>2013-11-03T14:50:45Z</time>
      </trkpt>
      <trkpt lat="48.75821" lon="2.22806">
        <ele>152</ele>
        <time>2013-11-03T14:50:49Z</time>
      </trkpt>
      <trkpt lat="48.75816" lon="2.22801">
        <ele>151</ele>
        <time>2013-11-03T14:50:52Z</time>
      </trkpt>
      <trkpt lat="48.75811" lon="2.22797">
        <ele>149</ele>
        <time>2013-11-03T14:50:58Z</time>
      </trkpt>
      <trkpt lat="48.75807" lon="2.22792">
        <ele>147</ele>
        <time>2013-11-03T14:51:03Z</time>
      </trkpt>
      <trkpt lat="48.75803" lon="2.22786">
        <ele>145</ele>
        <time>2013-11-03T14:51:07Z</time>
      </trkpt>
      <trkpt lat="48.758" lon="2.2278">
        <ele>145</ele>
        <time>2013-11-03T14:51:10Z</time>
      </trkpt>
      <trkpt lat="48.75797" lon="2.22774">
        <ele>145</ele>
        <time>2013-11-03T14:51:14Z</time>
      </trkpt>
      <trkpt lat="48.75793" lon="2.22769">
        <ele>146</ele>
        <time>2013-11-03T14:51:17Z</time>
      </trkpt>
      <trkpt lat="48.75789" lon="2.22765">
        <ele>147</ele>
        <time>2013-11-03T14:51:20Z</time>
      </trkpt>
      <trkpt lat="48.75785" lon="2.22759">
        <ele>148</ele>
        <time>2013-11-03T14:51:23Z</time>
      </trkpt>
      <trkpt lat="48.75781" lon="2.22752">
        <ele>149</ele>
        <time>2013-11-03T14:51:26Z</time>
      </trkpt>
      <trkpt lat="48.75776" lon="2.22747">
        <ele>150</ele>
        <time>2013-11-03T14:51:30Z</time>
      </trkpt>
      <trkpt lat="48.75771" lon="2.22745">
        <ele>149</ele>
        <time>2013-11-03T14:51:35Z</time>
      </trkpt>
      <trkpt lat="48.75766" lon="2.22744">
        <ele>148</ele>
        <time>2013-11-03T14:51:41Z</time>
      </trkpt>
      <trkpt lat="48.75762" lon="2.2274">
        <ele>148</ele>
        <time>2013-11-03T14:51:42Z</time>
      </trkpt>
      <trkpt lat="48.75758" lon="2.22735">
        <ele>148</ele>
        <time>2013-11-03T14:51:46Z</time>
      </trkpt>
      <trkpt lat="48.75754" lon="2.22732">
        <ele>149</ele>
        <time>2013-11-03T14:51:49Z</time>
      </trkpt>
      <trkpt lat="48.75749" lon="2.22731">
        <ele>148</ele>
        <time>2013-11-03T14:51:56Z</time>
      </trkpt>
      <trkpt lat="48.75744" lon="2.22726">
        <ele>146</ele>
        <time>2013-11-03T14:52:00Z</time>
      </trkpt>
      <trkpt lat="48.7574" lon="2.2272">
        <ele>146</ele>
        <time>2013-11-03T14:52:03Z</time>
      </trkpt>
      <trkpt lat="48.75736" lon="2.22716">
        <ele>146</ele>
        <time>2013-11-03T14:52:08Z</time>
      </trkpt>
      <trkpt lat="48.75731" lon="2.22711">
        <ele>146</ele>
        <time>2013-11-03T14:52:13Z</time>
      </trkpt>
      <trkpt lat="48.75727" lon="2.22705">
        <ele>147</ele>
        <time>2013-11-03T14:52:16Z</time>
      </trkpt>
      <trkpt lat="48.75723" lon="2.22703">
        <ele>146</ele>
        <time>2013-11-03T14:52:23Z</time>
      </trkpt>
      <trkpt lat="48.75718" lon="2.227">
        <ele>146</ele>
        <time>2013-11-03T14:52:27Z</time>
      </trkpt>
      <trkpt lat="48.75713" lon="2.22699">
        <ele>142</ele>
        <time>2013-11-03T14:52:36Z</time>
      </trkpt>
      <trkpt lat="48.75708" lon="2.227">
        <ele>142</ele>
        <time>2013-11-03T14:52:41Z</time>
      </trkpt>
      <trkpt lat="48.75703" lon="2.22704">
        <ele>143</ele>
        <time>2013-11-03T14:52:43Z</time>
      </trkpt>
      <trkpt lat="48.75699" lon="2.2271">
        <ele>143</ele>
        <time>2013-11-03T14:52:48Z</time>
      </trkpt>
      <trkpt lat="48.75696" lon="2.22715">
        <ele>143</ele>
        <time>2013-11-03T14:52:53Z</time>
      </trkpt>
      <trkpt lat="48.75693" lon="2.22721">
        <ele>142</ele>
        <time>2013-11-03T14:52:59Z</time>
      </trkpt>
      <trkpt lat="48.7569" lon="2.22726">
        <ele>143</ele>
        <time>2013-11-03T14:53:06Z</time>
      </trkpt>
      <trkpt lat="48.75686" lon="2.22731">
        <ele>144</ele>
        <time>2013-11-03T14:53:10Z</time>
      </trkpt>
      <trkpt lat="48.75682" lon="2.22736">
        <ele>145</ele>
        <time>2013-11-03T14:53:13Z</time>
      </trkpt>
      <trkpt lat="48.7568" lon="2.22743">
        <ele>147</ele>
        <time>2013-11-03T14:53:18Z</time>
      </trkpt>
      <trkpt lat="48.75676" lon="2.22748">
        <ele>149</ele>
        <time>2013-11-03T14:53:22Z</time>
      </trkpt>
      <trkpt lat="48.75673" lon="2.22757">
        <ele>150</ele>
        <time>2013-11-03T14:53:26Z</time>
      </trkpt>
      <trkpt lat="48.75671" lon="2.22763">
        <ele>152</ele>
        <time>2013-11-03T14:53:29Z</time>
      </trkpt>
      <trkpt lat="48.75668" lon="2.22769">
        <ele>153</ele>
        <time>2013-11-03T14:53:32Z</time>
      </trkpt>
      <trkpt lat="48.75667" lon="2.22778">
        <ele>153</ele>
        <time>2013-11-03T14:53:37Z</time>
      </trkpt>
      <trkpt lat="48.75665" lon="2.22785">
        <ele>154</ele>
        <time>2013-11-03T14:53:40Z</time>
      </trkpt>
      <trkpt lat="48.75663" lon="2.22792">
        <ele>155</ele>
        <time>2013-11-03T14:53:44Z</time>
      </trkpt>
      <trkpt lat="48.75661" lon="2.228">
        <ele>157</ele>
        <time>2013-11-03T14:53:48Z</time>
      </trkpt>
      <trkpt lat="48.75658" lon="2.22805">
        <ele>158</ele>
        <time>2013-11-03T14:53:51Z</time>
      </trkpt>
      <trkpt lat="48.75654" lon="2.2281">
        <ele>158</ele>
        <time>2013-11-03T14:53:54Z</time>
      </trkpt>
      <trkpt lat="48.75651" lon="2.22815">
        <ele>159</ele>
        <time>2013-11-03T14:53:58Z</time>
      </trkpt>
      <trkpt lat="48.75646" lon="2.22817">
        <ele>159</ele>
        <time>2013-11-03T14:54:00Z</time>
      </trkpt>
      <trkpt lat="48.75642" lon="2.2282">
        <ele>160</ele>
        <time>2013-11-03T14:54:04Z</time>
      </trkpt>
      <trkpt lat="48.75639" lon="2.22827">
        <ele>160</ele>
        <time>2013-11-03T14:54:08Z</time>
      </trkpt>
      <trkpt lat="48.75637" lon="2.22835">
        <ele>160</ele>
        <time>2013-11-03T14:54:11Z</time>
      </trkpt>
      <trkpt lat="48.75635" lon="2.22843">
        <ele>159</ele>
        <time>2013-11-03T14:54:14Z</time>
      </trkpt>
      <trkpt lat="48.75633" lon="2.22849">
        <ele>159</ele>
        <time>2013-11-03T14:54:18Z</time>
      </trkpt>
      <trkpt lat="48.75633" lon="2.22856">
        <ele>158</ele>
        <time>2013-11-03T14:54:22Z</time>
      </trkpt>
      <trkpt lat="48.75631" lon="2.22863">
        <ele>159</ele>
        <time>2013-11-03T14:54:27Z</time>
      </trkpt>
      <trkpt lat="48.75629" lon="2.22869">
        <ele>160</ele>
        <time>2013-11-03T14:54:30Z</time>
      </trkpt>
      <trkpt lat="48.75625" lon="2.22874">
        <ele>161</ele>
        <time>2013-11-03T14:54:34Z</time>
      </trkpt>
      <trkpt lat="48.75623" lon="2.22882">
        <ele>162</ele>
        <time>2013-11-03T14:54:38Z</time>
      </trkpt>
      <trkpt lat="48.7562" lon="2.22887">
        <ele>163</ele>
        <time>2013-11-03T14:54:41Z</time>
      </trkpt>
      <trkpt lat="48.75616" lon="2.22895">
        <ele>164</ele>
        <time>2013-11-03T14:54:45Z</time>
      </trkpt>
      <trkpt lat="48.75614" lon="2.22901">
        <ele>165</ele>
        <time>2013-11-03T14:54:47Z</time>
      </trkpt>
      <trkpt lat="48.7561" lon="2.22907">
        <ele>166</ele>
        <time>2013-11-03T14:54:50Z</time>
      </trkpt>
      <trkpt lat="48.75606" lon="2.2291">
        <ele>168</ele>
        <time>2013-11-03T14:54:55Z</time>
      </trkpt>
      <trkpt lat="48.75603" lon="2.22916">
        <ele>168</ele>
        <time>2013-11-03T14:55:00Z</time>
      </trkpt>
      <trkpt lat="48.75598" lon="2.2292">
        <ele>168</ele>
        <time>2013-11-03T14:55:03Z</time>
      </trkpt>
      <trkpt lat="48.75597" lon="2.22927">
        <ele>167</ele>
        <time>2013-11-03T14:55:07Z</time>
      </trkpt>
      <trkpt lat="48.75596" lon="2.22934">
        <ele>166</ele>
        <time>2013-11-03T14:55:12Z</time>
      </trkpt>
      <trkpt lat="48.75595" lon="2.22942">
        <ele>165</ele>
        <time>2013-11-03T14:55:14Z</time>
      </trkpt>
      <trkpt lat="48.75595" lon="2.22949">
        <ele>164</ele>
        <time>2013-11-03T14:55:16Z</time>
      </trkpt>
      <trkpt lat="48.75592" lon="2.22955">
        <ele>162</ele>
        <time>2013-11-03T14:55:20Z</time>
      </trkpt>
      <trkpt lat="48.7559" lon="2.22961">
        <ele>160</ele>
        <time>2013-11-03T14:55:25Z</time>
      </trkpt>
      <trkpt lat="48.75588" lon="2.22969">
        <ele>158</ele>
        <time>2013-11-03T14:55:30Z</time>
      </trkpt>
      <trkpt lat="48.75586" lon="2.22975">
        <ele>156</ele>
        <time>2013-11-03T14:55:34Z</time>
      </trkpt>
      <trkpt lat="48.75585" lon="2.22984">
        <ele>155</ele>
        <time>2013-11-03T14:55:40Z</time>
      </trkpt>
      <trkpt lat="48.75586" lon="2.22991">
        <ele>155</ele>
        <time>2013-11-03T14:55:45Z</time>
      </trkpt>
      <trkpt lat="48.75583" lon="2.22998">
        <ele>155</ele>
        <time>2013-11-03T14:55:51Z</time>
      </trkpt>
      <trkpt lat="48.75581" lon="2.23006">
        <ele>155</ele>
        <time>2013-11-03T14:55:54Z</time>
      </trkpt>
      <trkpt lat="48.75578" lon="2.23012">
        <ele>154</ele>
        <time>2013-11-03T14:55:58Z</time>
      </trkpt>
      <trkpt lat="48.75574" lon="2.23017">
        <ele>153</ele>
        <time>2013-11-03T14:56:01Z</time>
      </trkpt>
      <trkpt lat="48.75572" lon="2.23023">
        <ele>153</ele>
        <time>2013-11-03T14:56:04Z</time>
      </trkpt>
      <trkpt lat="48.75571" lon="2.23033">
        <ele>153</ele>
        <time>2013-11-03T14:56:08Z</time>
      </trkpt>
      <trkpt lat="48.75568" lon="2.2304">
        <ele>152</ele>
        <time>2013-11-03T14:56:12Z</time>
      </trkpt>
      <trkpt lat="48.75566" lon="2.23045">
        <ele>152</ele>
        <time>2013-11-03T14:56:16Z</time>
      </trkpt>
      <trkpt lat="48.75562" lon="2.23053">
        <ele>153</ele>
        <time>2013-11-03T14:56:20Z</time>
      </trkpt>
      <trkpt lat="48.75559" lon="2.2306">
        <ele>153</ele>
        <time>2013-11-03T14:56:23Z</time>
      </trkpt>
      <trkpt lat="48.75557" lon="2.23068">
        <ele>154</ele>
        <time>2013-11-03T14:56:27Z</time>
      </trkpt>
      <trkpt lat="48.75554" lon="2.23075">
        <ele>153</ele>
        <time>2013-11-03T14:56:31Z</time>
      </trkpt>
      <trkpt lat="48.75551" lon="2.23081">
        <ele>153</ele>
        <time>2013-11-03T14:56:35Z</time>
      </trkpt>
      <trkpt lat="48.75548" lon="2.23088">
        <ele>153</ele>
        <time>2013-11-03T14:56:37Z</time>
      </trkpt>
      <trkpt lat="48.75545" lon="2.23094">
        <ele>152</ele>
        <time>2013-11-03T14:56:41Z</time>
      </trkpt>
      <trkpt lat="48.75542" lon="2.231">
        <ele>151</ele>
        <time>2013-11-03T14:56:47Z</time>
      </trkpt>
      <trkpt lat="48.7554" lon="2.23106">
        <ele>151</ele>
        <time>2013-11-03T14:56:50Z</time>
      </trkpt>
      <trkpt lat="48.75539" lon="2.23113">
        <ele>152</ele>
        <time>2013-11-03T14:56:53Z</time>
      </trkpt>
      <trkpt lat="48.75538" lon="2.23121">
        <ele>152</ele>
        <time>2013-11-03T14:56:59Z</time>
      </trkpt>
      <trkpt lat="48.75535" lon="2.23128">
        <ele>153</ele>
        <time>2013-11-03T14:57:02Z</time>
      </trkpt>
      <trkpt lat="48.75532" lon="2.23133">
        <ele>153</ele>
        <time>2013-11-03T14:57:06Z</time>
      </trkpt>
      <trkpt lat="48.7553" lon="2.23142">
        <ele>153</ele>
        <time>2013-11-03T14:57:09Z</time>
      </trkpt>
      <trkpt lat="48.75527" lon="2.23149">
        <ele>153</ele>
        <time>2013-11-03T14:57:14Z</time>
      </trkpt>
      <trkpt lat="48.75524" lon="2.23155">
        <ele>152</ele>
        <time>2013-11-03T14:57:19Z</time>
      </trkpt>
      <trkpt lat="48.7552" lon="2.23162">
        <ele>151</ele>
        <time>2013-11-03T14:57:22Z</time>
      </trkpt>
      <trkpt lat="48.75518" lon="2.2317">
        <ele>150</ele>
        <time>2013-11-03T14:57:27Z</time>
      </trkpt>
      <trkpt lat="48.75516" lon="2.23178">
        <ele>150</ele>
        <time>2013-11-03T14:57:32Z</time>
      </trkpt>
      <trkpt lat="48.75513" lon="2.23183">
        <ele>149</ele>
        <time>2013-11-03T14:57:38Z</time>
      </trkpt>
      <trkpt lat="48.7551" lon="2.23189">
        <ele>147</ele>
        <time>2013-11-03T14:57:42Z</time>
      </trkpt>
      <trkpt lat="48.75509" lon="2.23195">
        <ele>147</ele>
        <time>2013-11-03T14:57:44Z</time>
      </trkpt>
      <trkpt lat="48.75506" lon="2.23202">
        <ele>147</ele>
        <time>2013-11-03T14:57:48Z</time>
      </trkpt>
      <trkpt lat="48.75503" lon="2.23207">
        <ele>146</ele>
        <time>2013-11-03T14:57:50Z</time>
      </trkpt>
      <trkpt lat="48.75501" lon="2.23214">
        <ele>146</ele>
        <time>2013-11-03T14:57:54Z</time>
      </trkpt>
      <trkpt lat="48.75499" lon="2.2322">
        <ele>146</ele>
        <time>2013-11-03T14:57:57Z</time>
      </trkpt>
      <trkpt lat="48.75497" lon="2.23226">
        <ele>147</ele>
        <time>2013-11-03T14:58:00Z</time>
      </trkpt>
      <trkpt lat="48.75494" lon="2.23232">
        <ele>147</ele>
        <time>2013-11-03T14:58:06Z</time>
      </trkpt>
      <trkpt lat="48.75492" lon="2.23241">
        <ele>148</ele>
        <time>2013-11-03T14:58:10Z</time>
      </trkpt>
      <trkpt lat="48.7549" lon="2.23247">
        <ele>149</ele>
        <time>2013-11-03T14:58:13Z</time>
      </trkpt>
      <trkpt lat="48.75489" lon="2.23254">
        <ele>149</ele>
        <time>2013-11-03T14:58:16Z</time>
      </trkpt>
      <trkpt lat="48.7549" lon="2.23261">
        <ele>148</ele>
        <time>2013-11-03T14:58:20Z</time>
      </trkpt>
      <trkpt lat="48.75488" lon="2.23268">
        <ele>147</ele>
        <time>2013-11-03T14:58:24Z</time>
      </trkpt>
      <trkpt lat="48.75483" lon="2.23273">
        <ele>148</ele>
        <time>2013-11-03T14:58:28Z</time>
      </trkpt>
      <trkpt lat="48.75479" lon="2.2328">
        <ele>150</ele>
        <time>2013-11-03T14:58:32Z</time>
      </trkpt>
      <trkpt lat="48.75476" lon="2.23286">
        <ele>149</ele>
        <time>2013-11-03T14:58:36Z</time>
      </trkpt>
      <trkpt lat="48.75475" lon="2.23293">
        <ele>148</ele>
        <time>2013-11-03T14:58:42Z</time>
      </trkpt>
      <trkpt lat="48.75472" lon="2.23294">
        <ele>148</ele>
        <time>2013-11-03T14:59:23Z</time>
      </trkpt>
      <trkpt lat="48.75467" lon="2.23298">
        <ele>147</ele>
        <time>2013-11-03T14:59:28Z</time>
      </trkpt>
      <trkpt lat="48.75462" lon="2.23302">
        <ele>146</ele>
        <time>2013-11-03T14:59:30Z</time>
      </trkpt>
      <trkpt lat="48.75458" lon="2.23307">
        <ele>146</ele>
        <time>2013-11-03T14:59:34Z</time>
      </trkpt>
      <trkpt lat="48.75454" lon="2.23311">
        <ele>148</ele>
        <time>2013-11-03T14:59:38Z</time>
      </trkpt>
      <trkpt lat="48.7545" lon="2.23316">
        <ele>150</ele>
        <time>2013-11-03T14:59:42Z</time>
      </trkpt>
      <trkpt lat="48.75446" lon="2.2332">
        <ele>151</ele>
        <time>2013-11-03T14:59:45Z</time>
      </trkpt>
      <trkpt lat="48.75442" lon="2.23326">
        <ele>152</ele>
        <time>2013-11-03T14:59:49Z</time>
      </trkpt>
      <trkpt lat="48.75439" lon="2.2333">
        <ele>152</ele>
        <time>2013-11-03T14:59:53Z</time>
      </trkpt>
      <trkpt lat="48.75438" lon="2.23338">
        <ele>152</ele>
        <time>2013-11-03T14:59:57Z</time>
      </trkpt>
      <trkpt lat="48.75437" lon="2.23345">
        <ele>152</ele>
        <time>2013-11-03T15:00:01Z</time>
      </trkpt>
      <trkpt lat="48.75433" lon="2.23353">
        <ele>152</ele>
        <time>2013-11-03T15:00:05Z</time>
      </trkpt>
      <trkpt lat="48.75428" lon="2.23358">
        <ele>152</ele>
        <time>2013-11-03T15:00:08Z</time>
      </trkpt>
      <trkpt lat="48.75425" lon="2.23364">
        <ele>152</ele>
        <time>2013-11-03T15:00:11Z</time>
      </trkpt>
      <trkpt lat="48.75421" lon="2.23371">
        <ele>151</ele>
        <time>2013-11-03T15:00:16Z</time>
      </trkpt>
      <trkpt lat="48.75418" lon="2.23378">
        <ele>151</ele>
        <time>2013-11-03T15:00:19Z</time>
      </trkpt>
      <trkpt lat="48.75414" lon="2.23382">
        <ele>150</ele>
        <time>2013-11-03T15:00:23Z</time>
      </trkpt>
      <trkpt lat="48.7541" lon="2.23384">
        <ele>152</ele>
        <time>2013-11-03T15:00:28Z</time>
      </trkpt>
      <trkpt lat="48.75406" lon="2.23393">
        <ele>151</ele>
        <time>2013-11-03T15:00:41Z</time>
      </trkpt>
      <trkpt lat="48.75405" lon="2.23399">
        <ele>151</ele>
        <time>2013-11-03T15:00:48Z</time>
      </trkpt>
      <trkpt lat="48.75407" lon="2.23407">
        <ele>152</ele>
        <time>2013-11-03T15:00:51Z</time>
      </trkpt>
      <trkpt lat="48.75407" lon="2.23414">
        <ele>152</ele>
        <time>2013-11-03T15:00:54Z</time>
      </trkpt>
      <trkpt lat="48.75408" lon="2.23421">
        <ele>153</ele>
        <time>2013-11-03T15:00:58Z</time>
      </trkpt>
      <trkpt lat="48.75409" lon="2.23429">
        <ele>154</ele>
        <time>2013-11-03T15:01:04Z</time>
      </trkpt>
      <trkpt lat="48.75408" lon="2.23443">
        <ele>160</ele>
        <time>2013-11-03T15:01:17Z</time>
      </trkpt>
      <trkpt lat="48.75409" lon="2.2345">
        <ele>160</ele>
        <time>2013-11-03T15:01:20Z</time>
      </trkpt>
      <trkpt lat="48.7541" lon="2.23458">
        <ele>161</ele>
        <time>2013-11-03T15:01:24Z</time>
      </trkpt>
      <trkpt lat="48.75408" lon="2.23466">
        <ele>162</ele>
        <time>2013-11-03T15:01:28Z</time>
      </trkpt>
      <trkpt lat="48.75407" lon="2.23473">
        <ele>162</ele>
        <time>2013-11-03T15:01:33Z</time>
      </trkpt>
      <trkpt lat="48.7541" lon="2.23482">
        <ele>162</ele>
        <time>2013-11-03T15:01:36Z</time>
      </trkpt>
      <trkpt lat="48.7541" lon="2.2349">
        <ele>162</ele>
        <time>2013-11-03T15:01:39Z</time>
      </trkpt>
      <trkpt lat="48.7541" lon="2.23497">
        <ele>161</ele>
        <time>2013-11-03T15:01:43Z</time>
      </trkpt>
      <trkpt lat="48.75412" lon="2.23506">
        <ele>161</ele>
        <time>2013-11-03T15:01:47Z</time>
      </trkpt>
      <trkpt lat="48.75414" lon="2.23513">
        <ele>161</ele>
        <time>2013-11-03T15:01:50Z</time>
      </trkpt>
      <trkpt lat="48.75415" lon="2.2352">
        <ele>161</ele>
        <time>2013-11-03T15:01:52Z</time>
      </trkpt>
      <trkpt lat="48.75415" lon="2.23527">
        <ele>163</ele>
        <time>2013-11-03T15:01:58Z</time>
      </trkpt>
      <trkpt lat="48.75414" lon="2.23534">
        <ele>166</ele>
        <time>2013-11-03T15:02:02Z</time>
      </trkpt>
      <trkpt lat="48.75414" lon="2.23541">
        <ele>168</ele>
        <time>2013-11-03T15:02:06Z</time>
      </trkpt>
      <trkpt lat="48.75413" lon="2.23548">
        <ele>170</ele>
        <time>2013-11-03T15:02:12Z</time>
      </trkpt>
      <trkpt lat="48.75415" lon="2.23556">
        <ele>170</ele>
        <time>2013-11-03T15:02:17Z</time>
      </trkpt>
      <trkpt lat="48.75417" lon="2.23564">
        <ele>168</ele>
        <time>2013-11-03T15:02:22Z</time>
      </trkpt>
      <trkpt lat="48.75416" lon="2.23572">
        <ele>168</ele>
        <time>2013-11-03T15:02:25Z</time>
      </trkpt>
      <trkpt lat="48.75417" lon="2.23579">
        <ele>168</ele>
        <time>2013-11-03T15:02:29Z</time>
      </trkpt>
      <trkpt lat="48.7542" lon="2.23587">
        <ele>169</ele>
        <time>2013-11-03T15:02:31Z</time>
      </trkpt>
      <trkpt lat="48.75423" lon="2.23594">
        <ele>170</ele>
        <time>2013-11-03T15:02:35Z</time>
      </trkpt>
      <trkpt lat="48.75421" lon="2.236">
        <ele>170</ele>
        <time>2013-11-03T15:02:39Z</time>
      </trkpt>
      <trkpt lat="48.75418" lon="2.23606">
        <ele>169</ele>
        <time>2013-11-03T15:02:42Z</time>
      </trkpt>
      <trkpt lat="48.75416" lon="2.23613">
        <ele>170</ele>
        <time>2013-11-03T15:02:50Z</time>
      </trkpt>
      <trkpt lat="48.75416" lon="2.23622">
        <ele>171</ele>
        <time>2013-11-03T15:02:53Z</time>
      </trkpt>
      <trkpt lat="48.75417" lon="2.23629">
        <ele>171</ele>
        <time>2013-11-03T15:02:56Z</time>
      </trkpt>
      <trkpt lat="48.75417" lon="2.23636">
        <ele>171</ele>
        <time>2013-11-03T15:03:01Z</time>
      </trkpt>
      <trkpt lat="48.75418" lon="2.23644">
        <ele>171</ele>
        <time>2013-11-03T15:03:03Z</time>
      </trkpt>
      <trkpt lat="48.75419" lon="2.23653">
        <ele>171</ele>
        <time>2013-11-03T15:03:05Z</time>
      </trkpt>
      <trkpt lat="48.7542" lon="2.23661">
        <ele>170</ele>
        <time>2013-11-03T15:03:10Z</time>
      </trkpt>
      <trkpt lat="48.75418" lon="2.23668">
        <ele>168</ele>
        <time>2013-11-03T15:03:13Z</time>
      </trkpt>
      <trkpt lat="48.75418" lon="2.23676">
        <ele>166</ele>
        <time>2013-11-03T15:03:18Z</time>
      </trkpt>
      <trkpt lat="48.75416" lon="2.23683">
        <ele>166</ele>
        <time>2013-11-03T15:03:22Z</time>
      </trkpt>
      <trkpt lat="48.75415" lon="2.2369">
        <ele>166</ele>
        <time>2013-11-03T15:03:26Z</time>
      </trkpt>
      <trkpt lat="48.75415" lon="2.23697">
        <ele>166</ele>
        <time>2013-11-03T15:03:30Z</time>
      </trkpt>
      <trkpt lat="48.75417" lon="2.23704">
        <ele>165</ele>
        <time>2013-11-03T15:03:33Z</time>
      </trkpt>
      <trkpt lat="48.75418" lon="2.23712">
        <ele>163</ele>
        <time>2013-11-03T15:03:36Z</time>
      </trkpt>
      <trkpt lat="48.75418" lon="2.23719">
        <ele>162</ele>
        <time>2013-11-03T15:03:42Z</time>
      </trkpt>
      <trkpt lat="48.75417" lon="2.23728">
        <ele>161</ele>
        <time>2013-11-03T15:03:48Z</time>
      </trkpt>
      <trkpt lat="48.75417" lon="2.23737">
        <ele>162</ele>
        <time>2013-11-03T15:03:52Z</time>
      </trkpt>
      <trkpt lat="48.75415" lon="2.23744">
        <ele>163</ele>
        <time>2013-11-03T15:03:56Z</time>
      </trkpt>
      <trkpt lat="48.75413" lon="2.23751">
        <ele>164</ele>
        <time>2013-11-03T15:03:59Z</time>
      </trkpt>
      <trkpt lat="48.75411" lon="2.23757">
        <ele>165</ele>
        <time>2013-11-03T15:04:02Z</time>
      </trkpt>
      <trkpt lat="48.75413" lon="2.23764">
        <ele>165</ele>
        <time>2013-11-03T15:04:06Z</time>
      </trkpt>
      <trkpt lat="48.75415" lon="2.23774">
        <ele>165</ele>
        <time>2013-11-03T15:04:10Z</time>
      </trkpt>
      <trkpt lat="48.75417" lon="2.23781">
        <ele>165</ele>
        <time>2013-11-03T15:04:14Z</time>
      </trkpt>
      <trkpt lat="48.75417" lon="2.23789">
        <ele>165</ele>
        <time>2013-11-03T15:04:17Z</time>
      </trkpt>
      <trkpt lat="48.75417" lon="2.23796">
        <ele>165</ele>
        <time>2013-11-03T15:04:20Z</time>
      </trkpt>
      <trkpt lat="48.75417" lon="2.23804">
        <ele>166</ele>
        <time>2013-11-03T15:04:25Z</time>
      </trkpt>
      <trkpt lat="48.75419" lon="2.23812">
        <ele>165</ele>
        <time>2013-11-03T15:04:29Z</time>
      </trkpt>
      <trkpt lat="48.75421" lon="2.23818">
        <ele>164</ele>
        <time>2013-11-03T15:04:32Z</time>
      </trkpt>
      <trkpt lat="48.75422" lon="2.23825">
        <ele>164</ele>
        <time>2013-11-03T15:04:36Z</time>
      </trkpt>
      <trkpt lat="48.75425" lon="2.23833">
        <ele>164</ele>
        <time>2013-11-03T15:04:45Z</time>
      </trkpt>
      <trkpt lat="48.75426" lon="2.23841">
        <ele>163</ele>
        <time>2013-11-03T15:04:49Z</time>
      </trkpt>
      <trkpt lat="48.75424" lon="2.23848">
        <ele>162</ele>
        <time>2013-11-03T15:04:52Z</time>
      </trkpt>
      <trkpt lat="48.75424" lon="2.23856">
        <ele>164</ele>
        <time>2013-11-03T15:04:56Z</time>
      </trkpt>
      <trkpt lat="48.75421" lon="2.23863">
        <ele>167</ele>
        <time>2013-11-03T15:05:02Z</time>
      </trkpt>
      <trkpt lat="48.75419" lon="2.2387">
        <ele>167</ele>
        <time>2013-11-03T15:05:05Z</time>
      </trkpt>
      <trkpt lat="48.75418" lon="2.23877">
        <ele>166</ele>
        <time>2013-11-03T15:05:08Z</time>
      </trkpt>
      <trkpt lat="48.7542" lon="2.23885">
        <ele>164</ele>
        <time>2013-11-03T15:05:14Z</time>
      </trkpt>
      <trkpt lat="48.75421" lon="2.23893">
        <ele>163</ele>
        <time>2013-11-03T15:05:18Z</time>
      </trkpt>
      <trkpt lat="48.75423" lon="2.23897">
        <ele>164</ele>
        <time>2013-11-03T15:05:27Z</time>
      </trkpt>
      <trkpt lat="48.75427" lon="2.239">
        <ele>166</ele>
        <time>2013-11-03T15:05:36Z</time>
      </trkpt>
      <trkpt lat="48.75427" lon="2.23907">
        <ele>166</ele>
        <time>2013-11-03T15:05:41Z</time>
      </trkpt>
      <trkpt lat="48.75426" lon="2.23915">
        <ele>166</ele>
        <time>2013-11-03T15:05:46Z</time>
      </trkpt>
      <trkpt lat="48.75426" lon="2.23923">
        <ele>166</ele>
        <time>2013-11-03T15:05:50Z</time>
      </trkpt>
      <trkpt lat="48.75425" lon="2.2393">
        <ele>164</ele>
        <time>2013-11-03T15:05:57Z</time>
      </trkpt>
      <trkpt lat="48.75425" lon="2.23937">
        <ele>163</ele>
        <time>2013-11-03T15:06:02Z</time>
      </trkpt>
      <trkpt lat="48.75426" lon="2.23944">
        <ele>162</ele>
        <time>2013-11-03T15:06:05Z</time>
      </trkpt>
      <trkpt lat="48.75425" lon="2.23952">
        <ele>161</ele>
        <time>2013-11-03T15:06:10Z</time>
      </trkpt>
      <trkpt lat="48.75423" lon="2.23958">
        <ele>159</ele>
        <time>2013-11-03T15:06:14Z</time>
      </trkpt>
      <trkpt lat="48.75423" lon="2.23966">
        <ele>159</ele>
        <time>2013-11-03T15:06:20Z</time>
      </trkpt>
      <trkpt lat="48.75424" lon="2.23973">
        <ele>161</ele>
        <time>2013-11-03T15:06:25Z</time>
      </trkpt>
      <trkpt lat="48.75423" lon="2.2398">
        <ele>161</ele>
        <time>2013-11-03T15:06:29Z</time>
      </trkpt>
      <trkpt lat="48.75422" lon="2.23988">
        <ele>160</ele>
        <time>2013-11-03T15:06:33Z</time>
      </trkpt>
      <trkpt lat="48.75422" lon="2.23996">
        <ele>160</ele>
        <time>2013-11-03T15:06:37Z</time>
      </trkpt>
      <trkpt lat="48.75422" lon="2.24005">
        <ele>160</ele>
        <time>2013-11-03T15:06:44Z</time>
      </trkpt>
      <trkpt lat="48.75422" lon="2.24012">
        <ele>160</ele>
        <time>2013-11-03T15:06:47Z</time>
      </trkpt>
      <trkpt lat="48.75423" lon="2.24021">
        <ele>160</ele>
        <time>2013-11-03T15:06:50Z</time>
      </trkpt>
      <trkpt lat="48.75424" lon="2.2403">
        <ele>162</ele>
        <time>2013-11-03T15:06:54Z</time>
      </trkpt>
      <trkpt lat="48.75425" lon="2.24038">
        <ele>162</ele>
        <time>2013-11-03T15:06:57Z</time>
      </trkpt>
      <trkpt lat="48.75425" lon="2.24045">
        <ele>161</ele>
        <time>2013-11-03T15:07:00Z</time>
      </trkpt>
      <trkpt lat="48.75424" lon="2.24052">
        <ele>160</ele>
        <time>2013-11-03T15:07:06Z</time>
      </trkpt>
      <trkpt lat="48.75424" lon="2.24059">
        <ele>157</ele>
        <time>2013-11-03T15:07:13Z</time>
      </trkpt>
      <trkpt lat="48.75424" lon="2.24067">
        <ele>158</ele>
        <time>2013-11-03T15:07:16Z</time>
      </trkpt>
      <trkpt lat="48.75425" lon="2.24075">
        <ele>158</ele>
        <time>2013-11-03T15:07:19Z</time>
      </trkpt>
      <trkpt lat="48.75426" lon="2.24083">
        <ele>158</ele>
        <time>2013-11-03T15:07:23Z</time>
      </trkpt>
      <trkpt lat="48.75428" lon="2.24091">
        <ele>159</ele>
        <time>2013-11-03T15:07:27Z</time>
      </trkpt>
      <trkpt lat="48.75426" lon="2.24097">
        <ele>159</ele>
        <time>2013-11-03T15:07:31Z</time>
      </trkpt>
      <trkpt lat="48.75424" lon="2.24105">
        <ele>160</ele>
        <time>2013-11-03T15:07:34Z</time>
      </trkpt>
      <trkpt lat="48.75424" lon="2.24112">
        <ele>159</ele>
        <time>2013-11-03T15:07:38Z</time>
      </trkpt>
      <trkpt lat="48.75424" lon="2.2412">
        <ele>159</ele>
        <time>2013-11-03T15:07:41Z</time>
      </trkpt>
      <trkpt lat="48.75424" lon="2.24128">
        <ele>161</ele>
        <time>2013-11-03T15:07:46Z</time>
      </trkpt>
      <trkpt lat="48.75426" lon="2.24135">
        <ele>160</ele>
        <time>2013-11-03T15:07:50Z</time>
      </trkpt>
      <trkpt lat="48.75426" lon="2.24145">
        <ele>159</ele>
        <time>2013-11-03T15:07:54Z</time>
      </trkpt>
      <trkpt lat="48.75425" lon="2.24152">
        <ele>159</ele>
        <time>2013-11-03T15:07:56Z</time>
      </trkpt>
      <trkpt lat="48.75426" lon="2.24159">
        <ele>158</ele>
        <time>2013-11-03T15:08:01Z</time>
      </trkpt>
      <trkpt lat="48.75426" lon="2.24167">
        <ele>156</ele>
        <time>2013-11-03T15:08:06Z</time>
      </trkpt>
      <trkpt lat="48.75426" lon="2.24175">
        <ele>155</ele>
        <time>2013-11-03T15:08:13Z</time>
      </trkpt>
      <trkpt lat="48.75426" lon="2.24182">
        <ele>155</ele>
        <time>2013-11-03T15:08:17Z</time>
      </trkpt>
      <trkpt lat="48.75421" lon="2.24185">
        <ele>154</ele>
        <time>2013-11-03T15:08:24Z</time>
      </trkpt>
      <trkpt lat="48.75416" lon="2.24183">
        <ele>153</ele>
        <time>2013-11-03T15:08:26Z</time>
      </trkpt>
      <trkpt lat="48.75411" lon="2.24181">
        <ele>153</ele>
        <time>2013-11-03T15:08:30Z</time>
      </trkpt>
      <trkpt lat="48.75408" lon="2.24174">
        <ele>154</ele>
        <time>2013-11-03T15:08:35Z</time>
      </trkpt>
      <trkpt lat="48.754" lon="2.24167">
        <ele>154</ele>
        <time>2013-11-03T15:08:42Z</time>
      </trkpt>
      <trkpt lat="48.75391" lon="2.24172">
        <ele>154</ele>
        <time>2013-11-03T15:08:49Z</time>
      </trkpt>
      <trkpt lat="48.75387" lon="2.24169">
        <ele>153</ele>
        <time>2013-11-03T15:08:52Z</time>
      </trkpt>
      <trkpt lat="48.75382" lon="2.2417">
        <ele>152</ele>
        <time>2013-11-03T15:08:57Z</time>
      </trkpt>
      <trkpt lat="48.75377" lon="2.2417">
        <ele>153</ele>
        <time>2013-11-03T15:09:01Z</time>
      </trkpt>
      <trkpt lat="48.75372" lon="2.24166">
        <ele>154</ele>
        <time>2013-11-03T15:09:03Z</time>
      </trkpt>
      <trkpt lat="48.75367" lon="2.2416">
        <ele>155</ele>
        <time>2013-11-03T15:09:08Z</time>
      </trkpt>
      <trkpt lat="48.75363" lon="2.24158">
        <ele>156</ele>
        <time>2013-11-03T15:09:11Z</time>
      </trkpt>
      <trkpt lat="48.75358" lon="2.24161">
        <ele>156</ele>
        <time>2013-11-03T15:09:17Z</time>
      </trkpt>
      <trkpt lat="48.75355" lon="2.24167">
        <ele>157</ele>
        <time>2013-11-03T15:09:24Z</time>
      </trkpt>
      <trkpt lat="48.7535" lon="2.24167">
        <ele>157</ele>
        <time>2013-11-03T15:09:28Z</time>
      </trkpt>
      <trkpt lat="48.75344" lon="2.24163">
        <ele>157</ele>
        <time>2013-11-03T15:09:31Z</time>
      </trkpt>
      <trkpt lat="48.75341" lon="2.24159">
        <ele>156</ele>
        <time>2013-11-03T15:09:34Z</time>
      </trkpt>
      <trkpt lat="48.75336" lon="2.24157">
        <ele>156</ele>
        <time>2013-11-03T15:09:38Z</time>
      </trkpt>
      <trkpt lat="48.75331" lon="2.24151">
        <ele>156</ele>
        <time>2013-11-03T15:09:41Z</time>
      </trkpt>
      <trkpt lat="48.75326" lon="2.24148">
        <ele>155</ele>
        <time>2013-11-03T15:09:45Z</time>
      </trkpt>
      <trkpt lat="48.75321" lon="2.24145">
        <ele>156</ele>
        <time>2013-11-03T15:09:50Z</time>
      </trkpt>
      <trkpt lat="48.75317" lon="2.24142">
        <ele>156</ele>
        <time>2013-11-03T15:09:52Z</time>
      </trkpt>
      <trkpt lat="48.75313" lon="2.24138">
        <ele>155</ele>
        <time>2013-11-03T15:09:56Z</time>
      </trkpt>
      <trkpt lat="48.75308" lon="2.24136">
        <ele>155</ele>
        <time>2013-11-03T15:10:00Z</time>
      </trkpt>
      <trkpt lat="48.75303" lon="2.24132">
        <ele>155</ele>
        <time>2013-11-03T15:10:02Z</time>
      </trkpt>
      <trkpt lat="48.75299" lon="2.2413">
        <ele>155</ele>
        <time>2013-11-03T15:10:05Z</time>
      </trkpt>
      <trkpt lat="48.75294" lon="2.24129">
        <ele>155</ele>
        <time>2013-11-03T15:10:08Z</time>
      </trkpt>
      <trkpt lat="48.75289" lon="2.24126">
        <ele>156</ele>
        <time>2013-11-03T15:10:12Z</time>
      </trkpt>
      <trkpt lat="48.75286" lon="2.2412">
        <ele>157</ele>
        <time>2013-11-03T15:10:16Z</time>
      </trkpt>
      <trkpt lat="48.75281" lon="2.24117">
        <ele>159</ele>
        <time>2013-11-03T15:10:18Z</time>
      </trkpt>
      <trkpt lat="48.75275" lon="2.24115">
        <ele>159</ele>
        <time>2013-11-03T15:10:24Z</time>
      </trkpt>
      <trkpt lat="48.75269" lon="2.24117">
        <ele>160</ele>
        <time>2013-11-03T15:10:28Z</time>
      </trkpt>
      <trkpt lat="48.75264" lon="2.24116">
        <ele>161</ele>
        <time>2013-11-03T15:10:30Z</time>
      </trkpt>
      <trkpt lat="48.75259" lon="2.24114">
        <ele>161</ele>
        <time>2013-11-03T15:10:35Z</time>
      </trkpt>
      <trkpt lat="48.75255" lon="2.24111">
        <ele>162</ele>
        <time>2013-11-03T15:10:38Z</time>
      </trkpt>
      <trkpt lat="48.75249" lon="2.24108">
        <ele>163</ele>
        <time>2013-11-03T15:10:41Z</time>
      </trkpt>
      <trkpt lat="48.75243" lon="2.24107">
        <ele>165</ele>
        <time>2013-11-03T15:10:46Z</time>
      </trkpt>
      <trkpt lat="48.75235" lon="2.24097">
        <ele>166</ele>
        <time>2013-11-03T15:10:55Z</time>
      </trkpt>
      <trkpt lat="48.75228" lon="2.24094">
        <ele>165</ele>
        <time>2013-11-03T15:11:02Z</time>
      </trkpt>
      <trkpt lat="48.7522" lon="2.24094">
        <ele>165</ele>
        <time>2013-11-03T15:11:08Z</time>
      </trkpt>
      <trkpt lat="48.7521" lon="2.24091">
        <ele>165</ele>
        <time>2013-11-03T15:11:16Z</time>
      </trkpt>
      <trkpt lat="48.75206" lon="2.24092">
        <ele>164</ele>
        <time>2013-11-03T15:11:22Z</time>
      </trkpt>
      <trkpt lat="48.752" lon="2.24091">
        <ele>164</ele>
        <time>2013-11-03T15:11:27Z</time>
      </trkpt>
      <trkpt lat="48.75195" lon="2.24085">
        <ele>165</ele>
        <time>2013-11-03T15:11:30Z</time>
      </trkpt>
      <trkpt lat="48.7519" lon="2.24082">
        <ele>166</ele>
        <time>2013-11-03T15:11:34Z</time>
      </trkpt>
      <trkpt lat="48.75186" lon="2.24082">
        <ele>167</ele>
        <time>2013-11-03T15:11:39Z</time>
      </trkpt>
      <trkpt lat="48.75181" lon="2.24084">
        <ele>166</ele>
        <time>2013-11-03T15:11:45Z</time>
      </trkpt>
      <trkpt lat="48.75176" lon="2.24086">
        <ele>165</ele>
        <time>2013-11-03T15:11:53Z</time>
      </trkpt>
      <trkpt lat="48.75171" lon="2.24084">
        <ele>164</ele>
        <time>2013-11-03T15:11:58Z</time>
      </trkpt>
      <trkpt lat="48.75166" lon="2.24084">
        <ele>164</ele>
        <time>2013-11-03T15:12:02Z</time>
      </trkpt>
      <trkpt lat="48.75161" lon="2.24082">
        <ele>165</ele>
        <time>2013-11-03T15:12:06Z</time>
      </trkpt>
      <trkpt lat="48.75155" lon="2.24079">
        <ele>167</ele>
        <time>2013-11-03T15:12:12Z</time>
      </trkpt>
      <trkpt lat="48.75148" lon="2.24079">
        <ele>168</ele>
        <time>2013-11-03T15:12:16Z</time>
      </trkpt>
      <trkpt lat="48.75144" lon="2.24078">
        <ele>168</ele>
        <time>2013-11-03T15:12:18Z</time>
      </trkpt>
      <trkpt lat="48.75139" lon="2.24078">
        <ele>167</ele>
        <time>2013-11-03T15:12:21Z</time>
      </trkpt>
      <trkpt lat="48.75134" lon="2.24078">
        <ele>166</ele>
        <time>2013-11-03T15:12:25Z</time>
      </trkpt>
      <trkpt lat="48.75125" lon="2.24075">
        <ele>163</ele>
        <time>2013-11-03T15:12:34Z</time>
      </trkpt>
      <trkpt lat="48.75117" lon="2.24068">
        <ele>159</ele>
        <time>2013-11-03T15:12:42Z</time>
      </trkpt>
      <trkpt lat="48.75111" lon="2.24066">
        <ele>157</ele>
        <time>2013-11-03T15:12:46Z</time>
      </trkpt>
      <trkpt lat="48.75106" lon="2.24063">
        <ele>156</ele>
        <time>2013-11-03T15:12:49Z</time>
      </trkpt>
      <trkpt lat="48.75101" lon="2.24062">
        <ele>156</ele>
        <time>2013-11-03T15:12:54Z</time>
      </trkpt>
      <trkpt lat="48.75095" lon="2.24059">
        <ele>158</ele>
        <time>2013-11-03T15:12:57Z</time>
      </trkpt>
      <trkpt lat="48.75091" lon="2.24057">
        <ele>158</ele>
        <time>2013-11-03T15:13:01Z</time>
      </trkpt>
      <trkpt lat="48.75087" lon="2.24052">
        <ele>157</ele>
        <time>2013-11-03T15:13:04Z</time>
      </trkpt>
      <trkpt lat="48.75082" lon="2.24049">
        <ele>157</ele>
        <time>2013-11-03T15:13:08Z</time>
      </trkpt>
      <trkpt lat="48.75078" lon="2.2405">
        <ele>156</ele>
        <time>2013-11-03T15:13:11Z</time>
      </trkpt>
      <trkpt lat="48.75072" lon="2.2405">
        <ele>156</ele>
        <time>2013-11-03T15:13:16Z</time>
      </trkpt>
      <trkpt lat="48.75068" lon="2.24046">
        <ele>155</ele>
        <time>2013-11-03T15:13:23Z</time>
      </trkpt>
      <trkpt lat="48.75064" lon="2.24043">
        <ele>156</ele>
        <time>2013-11-03T15:13:26Z</time>
      </trkpt>
      <trkpt lat="48.7506" lon="2.24037">
        <ele>157</ele>
        <time>2013-11-03T15:13:29Z</time>
      </trkpt>
      <trkpt lat="48.75061" lon="2.24028">
        <ele>158</ele>
        <time>2013-11-03T15:13:36Z</time>
      </trkpt>
      <trkpt lat="48.75063" lon="2.24019">
        <ele>157</ele>
        <time>2013-11-03T15:13:38Z</time>
      </trkpt>
      <trkpt lat="48.7506" lon="2.24012">
        <ele>157</ele>
        <time>2013-11-03T15:13:42Z</time>
      </trkpt>
      <trkpt lat="48.75057" lon="2.24006">
        <ele>157</ele>
        <time>2013-11-03T15:13:44Z</time>
      </trkpt>
      <trkpt lat="48.75052" lon="2.24005">
        <ele>156</ele>
        <time>2013-11-03T15:13:50Z</time>
      </trkpt>
      <trkpt lat="48.75046" lon="2.24002">
        <ele>155</ele>
        <time>2013-11-03T15:13:54Z</time>
      </trkpt>
      <trkpt lat="48.75042" lon="2.23999">
        <ele>155</ele>
        <time>2013-11-03T15:13:57Z</time>
      </trkpt>
      <trkpt lat="48.75039" lon="2.23994">
        <ele>155</ele>
        <time>2013-11-03T15:14:02Z</time>
      </trkpt>
      <trkpt lat="48.75036" lon="2.23988">
        <ele>155</ele>
        <time>2013-11-03T15:14:06Z</time>
      </trkpt>
      <trkpt lat="48.75033" lon="2.23981">
        <ele>153</ele>
        <time>2013-11-03T15:14:13Z</time>
      </trkpt>
      <trkpt lat="48.7503" lon="2.23973">
        <ele>151</ele>
        <time>2013-11-03T15:14:17Z</time>
      </trkpt>
      <trkpt lat="48.75026" lon="2.23966">
        <ele>151</ele>
        <time>2013-11-03T15:14:20Z</time>
      </trkpt>
      <trkpt lat="48.75022" lon="2.23962">
        <ele>152</ele>
        <time>2013-11-03T15:14:23Z</time>
      </trkpt>
      <trkpt lat="48.75017" lon="2.2396">
        <ele>153</ele>
        <time>2013-11-03T15:14:26Z</time>
      </trkpt>
      <trkpt lat="48.75012" lon="2.23955">
        <ele>155</ele>
        <time>2013-11-03T15:14:30Z</time>
      </trkpt>
      <trkpt lat="48.75009" lon="2.23949">
        <ele>156</ele>
        <time>2013-11-03T15:14:32Z</time>
      </trkpt>
      <trkpt lat="48.75006" lon="2.23942">
        <ele>156</ele>
        <time>2013-11-03T15:14:34Z</time>
      </trkpt>
      <trkpt lat="48.75002" lon="2.23938">
        <ele>156</ele>
        <time>2013-11-03T15:14:37Z</time>
      </trkpt>
      <trkpt lat="48.75" lon="2.2393">
        <ele>153</ele>
        <time>2013-11-03T15:14:43Z</time>
      </trkpt>
      <trkpt lat="48.74995" lon="2.23928">
        <ele>149</ele>
        <time>2013-11-03T15:14:50Z</time>
      </trkpt>
      <trkpt lat="48.74992" lon="2.2392">
        <ele>149</ele>
        <time>2013-11-03T15:14:53Z</time>
      </trkpt>
      <trkpt lat="48.74989" lon="2.23913">
        <ele>149</ele>
        <time>2013-11-03T15:14:55Z</time>
      </trkpt>
      <trkpt lat="48.74986" lon="2.23907">
        <ele>150</ele>
        <time>2013-11-03T15:14:58Z</time>
      </trkpt>
      <trkpt lat="48.74982" lon="2.23902">
        <ele>150</ele>
        <time>2013-11-03T15:15:02Z</time>
      </trkpt>
      <trkpt lat="48.74978" lon="2.23898">
        <ele>152</ele>
        <time>2013-11-03T15:15:05Z</time>
      </trkpt>
      <trkpt lat="48.74975" lon="2.23892">
        <ele>153</ele>
        <time>2013-11-03T15:15:09Z</time>
      </trkpt>
      <trkpt lat="48.74972" lon="2.23887">
        <ele>155</ele>
        <time>2013-11-03T15:15:11Z</time>
      </trkpt>
      <trkpt lat="48.7497" lon="2.2388">
        <ele>156</ele>
        <time>2013-11-03T15:15:14Z</time>
      </trkpt>
      <trkpt lat="48.74966" lon="2.23876">
        <ele>158</ele>
        <time>2013-11-03T15:15:21Z</time>
      </trkpt>
      <trkpt lat="48.74962" lon="2.23871">
        <ele>158</ele>
        <time>2013-11-03T15:15:25Z</time>
      </trkpt>
      <trkpt lat="48.74958" lon="2.23865">
        <ele>159</ele>
        <time>2013-11-03T15:15:28Z</time>
      </trkpt>
      <trkpt lat="48.74954" lon="2.23862">
        <ele>160</ele>
        <time>2013-11-03T15:15:31Z</time>
      </trkpt>
      <trkpt lat="48.74949" lon="2.2386">
        <ele>160</ele>
        <time>2013-11-03T15:15:37Z</time>
      </trkpt>
      <trkpt lat="48.74945" lon="2.23856">
        <ele>159</ele>
        <time>2013-11-03T15:15:42Z</time>
      </trkpt>
      <trkpt lat="48.74941" lon="2.23852">
        <ele>159</ele>
        <time>2013-11-03T15:15:45Z</time>
      </trkpt>
      <trkpt lat="48.74938" lon="2.23845">
        <ele>157</ele>
        <time>2013-11-03T15:15:50Z</time>
      </trkpt>
      <trkpt lat="48.74935" lon="2.23839">
        <ele>156</ele>
        <time>2013-11-03T15:15:53Z</time>
      </trkpt>
      <trkpt lat="48.74931" lon="2.23832">
        <ele>156</ele>
        <time>2013-11-03T15:15:56Z</time>
      </trkpt>
      <trkpt lat="48.74928" lon="2.23827">
        <ele>156</ele>
        <time>2013-11-03T15:16:00Z</time>
      </trkpt>
      <trkpt lat="48.74925" lon="2.2382">
        <ele>157</ele>
        <time>2013-11-03T15:16:03Z</time>
      </trkpt>
      <trkpt lat="48.74919" lon="2.23807">
        <ele>157</ele>
        <time>2013-11-03T15:16:12Z</time>
      </trkpt>
      <trkpt lat="48.74916" lon="2.23801">
        <ele>155</ele>
        <time>2013-11-03T15:16:24Z</time>
      </trkpt>
      <trkpt lat="48.74913" lon="2.23795">
        <ele>155</ele>
        <time>2013-11-03T15:16:25Z</time>
      </trkpt>
      <trkpt lat="48.74911" lon="2.23788">
        <ele>155</ele>
        <time>2013-11-03T15:16:27Z</time>
      </trkpt>
      <trkpt lat="48.74908" lon="2.23783">
        <ele>154</ele>
        <time>2013-11-03T15:16:30Z</time>
      </trkpt>
      <trkpt lat="48.74902" lon="2.23777">
        <ele>153</ele>
        <time>2013-11-03T15:16:36Z</time>
      </trkpt>
      <trkpt lat="48.74898" lon="2.23772">
        <ele>152</ele>
        <time>2013-11-03T15:16:40Z</time>
      </trkpt>
      <trkpt lat="48.74892" lon="2.23766">
        <ele>153</ele>
        <time>2013-11-03T15:16:48Z</time>
      </trkpt>
      <trkpt lat="48.7489" lon="2.2376">
        <ele>153</ele>
        <time>2013-11-03T15:16:51Z</time>
      </trkpt>
      <trkpt lat="48.74888" lon="2.23754">
        <ele>153</ele>
        <time>2013-11-03T15:16:57Z</time>
      </trkpt>
      <trkpt lat="48.74883" lon="2.23749">
        <ele>153</ele>
        <time>2013-11-03T15:16:59Z</time>
      </trkpt>
      <trkpt lat="48.74879" lon="2.23744">
        <ele>154</ele>
        <time>2013-11-03T15:17:01Z</time>
      </trkpt>
      <trkpt lat="48.74876" lon="2.23737">
        <ele>155</ele>
        <time>2013-11-03T15:17:03Z</time>
      </trkpt>
      <trkpt lat="48.74874" lon="2.23734">
        <ele>155</ele>
        <time>2013-11-03T15:17:06Z</time>
      </trkpt>
      <trkpt lat="48.74869" lon="2.23735">
        <ele>153</ele>
        <time>2013-11-03T15:17:11Z</time>
      </trkpt>
      <trkpt lat="48.74866" lon="2.2374">
        <ele>152</ele>
        <time>2013-11-03T15:17:14Z</time>
      </trkpt>
      <trkpt lat="48.74863" lon="2.23745">
        <ele>153</ele>
        <time>2013-11-03T15:17:18Z</time>
      </trkpt>
      <trkpt lat="48.74853" lon="2.2375">
        <ele>154</ele>
        <time>2013-11-03T15:17:26Z</time>
      </trkpt>
      <trkpt lat="48.74849" lon="2.23762">
        <ele>155</ele>
        <time>2013-11-03T15:17:32Z</time>
      </trkpt>
      <trkpt lat="48.74846" lon="2.23767">
        <ele>155</ele>
        <time>2013-11-03T15:17:35Z</time>
      </trkpt>
      <trkpt lat="48.74842" lon="2.23772">
        <ele>155</ele>
        <time>2013-11-03T15:17:38Z</time>
      </trkpt>
      <trkpt lat="48.74838" lon="2.23777">
        <ele>154</ele>
        <time>2013-11-03T15:17:42Z</time>
      </trkpt>
      <trkpt lat="48.74833" lon="2.2378">
        <ele>154</ele>
        <time>2013-11-03T15:17:47Z</time>
      </trkpt>
      <trkpt lat="48.74828" lon="2.23783">
        <ele>154</ele>
        <time>2013-11-03T15:17:52Z</time>
      </trkpt>
      <trkpt lat="48.74823" lon="2.23785">
        <ele>155</ele>
        <time>2013-11-03T15:17:55Z</time>
      </trkpt>
      <trkpt lat="48.74817" lon="2.23784">
        <ele>155</ele>
        <time>2013-11-03T15:17:58Z</time>
      </trkpt>
      <trkpt lat="48.74813" lon="2.23779">
        <ele>155</ele>
        <time>2013-11-03T15:18:01Z</time>
      </trkpt>
      <trkpt lat="48.74808" lon="2.23776">
        <ele>154</ele>
        <time>2013-11-03T15:18:06Z</time>
      </trkpt>
      <trkpt lat="48.74804" lon="2.23773">
        <ele>152</ele>
        <time>2013-11-03T15:18:10Z</time>
      </trkpt>
      <trkpt lat="48.748" lon="2.23767">
        <ele>152</ele>
        <time>2013-11-03T15:18:14Z</time>
      </trkpt>
      <trkpt lat="48.748" lon="2.2376">
        <ele>149</ele>
        <time>2013-11-03T15:18:19Z</time>
      </trkpt>
      <trkpt lat="48.74797" lon="2.23754">
        <ele>148</ele>
        <time>2013-11-03T15:18:24Z</time>
      </trkpt>
      <trkpt lat="48.74794" lon="2.23748">
        <ele>146</ele>
        <time>2013-11-03T15:18:30Z</time>
      </trkpt>
      <trkpt lat="48.74792" lon="2.23741">
        <ele>146</ele>
        <time>2013-11-03T15:18:34Z</time>
      </trkpt>
      <trkpt lat="48.7479" lon="2.23734">
        <ele>144</ele>
        <time>2013-11-03T15:18:42Z</time>
      </trkpt>
      <trkpt lat="48.74787" lon="2.23728">
        <ele>142</ele>
        <time>2013-11-03T15:18:48Z</time>
      </trkpt>
      <trkpt lat="48.74784" lon="2.23723">
        <ele>140</ele>
        <time>2013-11-03T15:18:50Z</time>
      </trkpt>
      <trkpt lat="48.74781" lon="2.23717">
        <ele>138</ele>
        <time>2013-11-03T15:18:55Z</time>
      </trkpt>
      <trkpt lat="48.74778" lon="2.23709">
        <ele>137</ele>
        <time>2013-11-03T15:19:01Z</time>
      </trkpt>
      <trkpt lat="48.74774" lon="2.23702">
        <ele>137</ele>
        <time>2013-11-03T15:19:05Z</time>
      </trkpt>
      <trkpt lat="48.74771" lon="2.23696">
        <ele>138</ele>
        <time>2013-11-03T15:19:06Z</time>
      </trkpt>
      <trkpt lat="48.74766" lon="2.23692">
        <ele>137</ele>
        <time>2013-11-03T15:19:11Z</time>
      </trkpt>
      <trkpt lat="48.74761" lon="2.23694">
        <ele>136</ele>
        <time>2013-11-03T15:19:16Z</time>
      </trkpt>
      <trkpt lat="48.74756" lon="2.23689">
        <ele>133</ele>
        <time>2013-11-03T15:19:22Z</time>
      </trkpt>
      <trkpt lat="48.74752" lon="2.23685">
        <ele>132</ele>
        <time>2013-11-03T15:19:26Z</time>
      </trkpt>
      <trkpt lat="48.74747" lon="2.23681">
        <ele>130</ele>
        <time>2013-11-03T15:19:30Z</time>
      </trkpt>
      <trkpt lat="48.74741" lon="2.23674">
        <ele>129</ele>
        <time>2013-11-03T15:19:33Z</time>
      </trkpt>
      <trkpt lat="48.74737" lon="2.23669">
        <ele>129</ele>
        <time>2013-11-03T15:19:37Z</time>
      </trkpt>
      <trkpt lat="48.74733" lon="2.23665">
        <ele>127</ele>
        <time>2013-11-03T15:19:41Z</time>
      </trkpt>
      <trkpt lat="48.7473" lon="2.2366">
        <ele>125</ele>
        <time>2013-11-03T15:19:44Z</time>
      </trkpt>
      <trkpt lat="48.74726" lon="2.23656">
        <ele>123</ele>
        <time>2013-11-03T15:19:48Z</time>
      </trkpt>
      <trkpt lat="48.74721" lon="2.23652">
        <ele>123</ele>
        <time>2013-11-03T15:19:51Z</time>
      </trkpt>
      <trkpt lat="48.74717" lon="2.2365">
        <ele>122</ele>
        <time>2013-11-03T15:19:54Z</time>
      </trkpt>
      <trkpt lat="48.74713" lon="2.23647">
        <ele>122</ele>
        <time>2013-11-03T15:19:58Z</time>
      </trkpt>
      <trkpt lat="48.74709" lon="2.23643">
        <ele>122</ele>
        <time>2013-11-03T15:20:00Z</time>
      </trkpt>
      <trkpt lat="48.74705" lon="2.23638">
        <ele>121</ele>
        <time>2013-11-03T15:20:05Z</time>
      </trkpt>
      <trkpt lat="48.747" lon="2.23634">
        <ele>123</ele>
        <time>2013-11-03T15:20:10Z</time>
      </trkpt>
      <trkpt lat="48.74696" lon="2.2363">
        <ele>125</ele>
        <time>2013-11-03T15:20:14Z</time>
      </trkpt>
      <trkpt lat="48.74693" lon="2.23625">
        <ele>126</ele>
        <time>2013-11-03T15:20:18Z</time>
      </trkpt>
      <trkpt lat="48.74688" lon="2.23621">
        <ele>126</ele>
        <time>2013-11-03T15:20:21Z</time>
      </trkpt>
      <trkpt lat="48.74683" lon="2.23617">
        <ele>126</ele>
        <time>2013-11-03T15:20:23Z</time>
      </trkpt>
      <trkpt lat="48.74677" lon="2.23613">
        <ele>126</ele>
        <time>2013-11-03T15:20:26Z</time>
      </trkpt>
      <trkpt lat="48.7467" lon="2.23613">
        <ele>126</ele>
        <time>2013-11-03T15:20:29Z</time>
      </trkpt>
      <trkpt lat="48.74666" lon="2.23617">
        <ele>126</ele>
        <time>2013-11-03T15:20:33Z</time>
      </trkpt>
      <trkpt lat="48.74663" lon="2.23623">
        <ele>125</ele>
        <time>2013-11-03T15:20:38Z</time>
      </trkpt>
      <trkpt lat="48.74659" lon="2.23628">
        <ele>125</ele>
        <time>2013-11-03T15:20:42Z</time>
      </trkpt>
      <trkpt lat="48.74654" lon="2.23631">
        <ele>126</ele>
        <time>2013-11-03T15:20:47Z</time>
      </trkpt>
      <trkpt lat="48.74649" lon="2.23633">
        <ele>126</ele>
        <time>2013-11-03T15:20:52Z</time>
      </trkpt>
      <trkpt lat="48.74646" lon="2.23639">
        <ele>127</ele>
        <time>2013-11-03T15:20:58Z</time>
      </trkpt>
      <trkpt lat="48.74646" lon="2.23648">
        <ele>126</ele>
        <time>2013-11-03T15:21:00Z</time>
      </trkpt>
      <trkpt lat="48.74647" lon="2.23656">
        <ele>126</ele>
        <time>2013-11-03T15:21:03Z</time>
      </trkpt>
      <trkpt lat="48.74642" lon="2.23663">
        <ele>126</ele>
        <time>2013-11-03T15:21:07Z</time>
      </trkpt>
      <trkpt lat="48.74637" lon="2.23664">
        <ele>127</ele>
        <time>2013-11-03T15:21:10Z</time>
      </trkpt>
      <trkpt lat="48.74632" lon="2.2367">
        <ele>125</ele>
        <time>2013-11-03T15:21:17Z</time>
      </trkpt>
      <trkpt lat="48.74627" lon="2.2367">
        <ele>124</ele>
        <time>2013-11-03T15:21:19Z</time>
      </trkpt>
      <trkpt lat="48.74623" lon="2.23672">
        <ele>123</ele>
        <time>2013-11-03T15:21:22Z</time>
      </trkpt>
      <trkpt lat="48.74618" lon="2.23672">
        <ele>124</ele>
        <time>2013-11-03T15:21:25Z</time>
      </trkpt>
      <trkpt lat="48.74613" lon="2.23671">
        <ele>123</ele>
        <time>2013-11-03T15:21:29Z</time>
      </trkpt>
      <trkpt lat="48.74609" lon="2.23675">
        <ele>124</ele>
        <time>2013-11-03T15:21:33Z</time>
      </trkpt>
      <trkpt lat="48.746" lon="2.23679">
        <ele>124</ele>
        <time>2013-11-03T15:21:40Z</time>
      </trkpt>
      <trkpt lat="48.74595" lon="2.23679">
        <ele>126</ele>
        <time>2013-11-03T15:21:44Z</time>
      </trkpt>
      <trkpt lat="48.74591" lon="2.23683">
        <ele>128</ele>
        <time>2013-11-03T15:21:48Z</time>
      </trkpt>
      <trkpt lat="48.74591" lon="2.23691">
        <ele>129</ele>
        <time>2013-11-03T15:21:51Z</time>
      </trkpt>
      <trkpt lat="48.74587" lon="2.23697">
        <ele>131</ele>
        <time>2013-11-03T15:21:57Z</time>
      </trkpt>
      <trkpt lat="48.74582" lon="2.237">
        <ele>132</ele>
        <time>2013-11-03T15:22:01Z</time>
      </trkpt>
      <trkpt lat="48.74576" lon="2.23702">
        <ele>134</ele>
        <time>2013-11-03T15:22:06Z</time>
      </trkpt>
      <trkpt lat="48.7457" lon="2.23703">
        <ele>136</ele>
        <time>2013-11-03T15:22:09Z</time>
      </trkpt>
      <trkpt lat="48.74565" lon="2.23706">
        <ele>137</ele>
        <time>2013-11-03T15:22:16Z</time>
      </trkpt>
      <trkpt lat="48.74561" lon="2.23711">
        <ele>136</ele>
        <time>2013-11-03T15:22:21Z</time>
      </trkpt>
      <trkpt lat="48.74552" lon="2.23718">
        <ele>139</ele>
        <time>2013-11-03T15:22:32Z</time>
      </trkpt>
      <trkpt lat="48.74548" lon="2.23723">
        <ele>140</ele>
        <time>2013-11-03T15:22:37Z</time>
      </trkpt>
      <trkpt lat="48.74544" lon="2.23728">
        <ele>141</ele>
        <time>2013-11-03T15:22:40Z</time>
      </trkpt>
      <trkpt lat="48.74539" lon="2.23733">
        <ele>143</ele>
        <time>2013-11-03T15:22:44Z</time>
      </trkpt>
      <trkpt lat="48.74533" lon="2.23734">
        <ele>143</ele>
        <time>2013-11-03T15:22:46Z</time>
      </trkpt>
      <trkpt lat="48.74529" lon="2.23738">
        <ele>143</ele>
        <time>2013-11-03T15:22:50Z</time>
      </trkpt>
      <trkpt lat="48.74523" lon="2.23741">
        <ele>143</ele>
        <time>2013-11-03T15:22:56Z</time>
      </trkpt>
      <trkpt lat="48.74519" lon="2.23744">
        <ele>143</ele>
        <time>2013-11-03T15:23:00Z</time>
      </trkpt>
      <trkpt lat="48.74516" lon="2.23751">
        <ele>141</ele>
        <time>2013-11-03T15:23:06Z</time>
      </trkpt>
      <trkpt lat="48.74512" lon="2.23754">
        <ele>140</ele>
        <time>2013-11-03T15:23:11Z</time>
      </trkpt>
      <trkpt lat="48.74507" lon="2.23755">
        <ele>140</ele>
        <time>2013-11-03T15:23:14Z</time>
      </trkpt>
      <trkpt lat="48.74502" lon="2.23758">
        <ele>139</ele>
        <time>2013-11-03T15:23:18Z</time>
      </trkpt>
      <trkpt lat="48.74497" lon="2.23758">
        <ele>138</ele>
        <time>2013-11-03T15:23:23Z</time>
      </trkpt>
      <trkpt lat="48.74492" lon="2.23757">
        <ele>137</ele>
        <time>2013-11-03T15:23:25Z</time>
      </trkpt>
      <trkpt lat="48.74488" lon="2.23762">
        <ele>135</ele>
        <time>2013-11-03T15:23:30Z</time>
      </trkpt>
      <trkpt lat="48.74484" lon="2.23765">
        <ele>134</ele>
        <time>2013-11-03T15:23:34Z</time>
      </trkpt>
      <trkpt lat="48.74479" lon="2.23769">
        <ele>135</ele>
        <time>2013-11-03T15:23:39Z</time>
      </trkpt>
      <trkpt lat="48.74474" lon="2.2377">
        <ele>135</ele>
        <time>2013-11-03T15:23:42Z</time>
      </trkpt>
      <trkpt lat="48.74468" lon="2.23773">
        <ele>135</ele>
        <time>2013-11-03T15:23:47Z</time>
      </trkpt>
      <trkpt lat="48.74463" lon="2.23774">
        <ele>135</ele>
        <time>2013-11-03T15:23:51Z</time>
      </trkpt>
      <trkpt lat="48.74459" lon="2.23776">
        <ele>135</ele>
        <time>2013-11-03T15:23:56Z</time>
      </trkpt>
      <trkpt lat="48.74456" lon="2.23781">
        <ele>134</ele>
        <time>2013-11-03T15:24:00Z</time>
      </trkpt>
      <trkpt lat="48.7445" lon="2.23782">
        <ele>133</ele>
        <time>2013-11-03T15:24:07Z</time>
      </trkpt>
      <trkpt lat="48.74446" lon="2.23785">
        <ele>133</ele>
        <time>2013-11-03T15:24:10Z</time>
      </trkpt>
      <trkpt lat="48.74441" lon="2.23787">
        <ele>133</ele>
        <time>2013-11-03T15:24:13Z</time>
      </trkpt>
      <trkpt lat="48.74437" lon="2.23791">
        <ele>131</ele>
        <time>2013-11-03T15:24:17Z</time>
      </trkpt>
      <trkpt lat="48.74426" lon="2.23792">
        <ele>125</ele>
        <time>2013-11-03T15:24:27Z</time>
      </trkpt>
      <trkpt lat="48.74419" lon="2.23789">
        <ele>125</ele>
        <time>2013-11-03T15:24:30Z</time>
      </trkpt>
      <trkpt lat="48.74414" lon="2.23783">
        <ele>124</ele>
        <time>2013-11-03T15:24:32Z</time>
      </trkpt>
      <trkpt lat="48.7441" lon="2.23781">
        <ele>123</ele>
        <time>2013-11-03T15:24:36Z</time>
      </trkpt>
      <trkpt lat="48.74405" lon="2.23782">
        <ele>121</ele>
        <time>2013-11-03T15:24:41Z</time>
      </trkpt>
      <trkpt lat="48.744" lon="2.23781">
        <ele>121</ele>
        <time>2013-11-03T15:24:44Z</time>
      </trkpt>
      <trkpt lat="48.74394" lon="2.23781">
        <ele>122</ele>
        <time>2013-11-03T15:24:48Z</time>
      </trkpt>
      <trkpt lat="48.7439" lon="2.23779">
        <ele>122</ele>
        <time>2013-11-03T15:24:51Z</time>
      </trkpt>
      <trkpt lat="48.74385" lon="2.23777">
        <ele>123</ele>
        <time>2013-11-03T15:24:56Z</time>
      </trkpt>
      <trkpt lat="48.74381" lon="2.23773">
        <ele>124</ele>
        <time>2013-11-03T15:24:58Z</time>
      </trkpt>
      <trkpt lat="48.74377" lon="2.23768">
        <ele>125</ele>
        <time>2013-11-03T15:25:02Z</time>
      </trkpt>
      <trkpt lat="48.74371" lon="2.23767">
        <ele>125</ele>
        <time>2013-11-03T15:25:13Z</time>
      </trkpt>
      <trkpt lat="48.74367" lon="2.23762">
        <ele>124</ele>
        <time>2013-11-03T15:25:17Z</time>
      </trkpt>
      <trkpt lat="48.7436" lon="2.23761">
        <ele>122</ele>
        <time>2013-11-03T15:25:24Z</time>
      </trkpt>
      <trkpt lat="48.74354" lon="2.23766">
        <ele>121</ele>
        <time>2013-11-03T15:25:27Z</time>
      </trkpt>
      <trkpt lat="48.74348" lon="2.23763">
        <ele>122</ele>
        <time>2013-11-03T15:25:31Z</time>
      </trkpt>
      <trkpt lat="48.74344" lon="2.2376">
        <ele>121</ele>
        <time>2013-11-03T15:25:34Z</time>
      </trkpt>
      <trkpt lat="48.74339" lon="2.23756">
        <ele>121</ele>
        <time>2013-11-03T15:25:40Z</time>
      </trkpt>
      <trkpt lat="48.74335" lon="2.23751">
        <ele>121</ele>
        <time>2013-11-03T15:25:43Z</time>
      </trkpt>
      <trkpt lat="48.7433" lon="2.23753">
        <ele>118</ele>
        <time>2013-11-03T15:25:51Z</time>
      </trkpt>
      <trkpt lat="48.74325" lon="2.2375">
        <ele>117</ele>
        <time>2013-11-03T15:25:55Z</time>
      </trkpt>
      <trkpt lat="48.74319" lon="2.2375">
        <ele>116</ele>
        <time>2013-11-03T15:25:59Z</time>
      </trkpt>
      <trkpt lat="48.74314" lon="2.23749">
        <ele>115</ele>
        <time>2013-11-03T15:26:03Z</time>
      </trkpt>
      <trkpt lat="48.74309" lon="2.23749">
        <ele>111</ele>
        <time>2013-11-03T15:26:11Z</time>
      </trkpt>
      <trkpt lat="48.74304" lon="2.23748">
        <ele>110</ele>
        <time>2013-11-03T15:26:18Z</time>
      </trkpt>
      <trkpt lat="48.74301" lon="2.23741">
        <ele>110</ele>
        <time>2013-11-03T15:26:29Z</time>
      </trkpt>
      <trkpt lat="48.74299" lon="2.23734">
        <ele>109</ele>
        <time>2013-11-03T15:26:36Z</time>
      </trkpt>
      <trkpt lat="48.74294" lon="2.23736">
        <ele>108</ele>
        <time>2013-11-03T15:26:49Z</time>
      </trkpt>
      <trkpt lat="48.74289" lon="2.23733">
        <ele>108</ele>
        <time>2013-11-03T15:26:53Z</time>
      </trkpt>
      <trkpt lat="48.7429" lon="2.23741">
        <ele>109</ele>
        <time>2013-11-03T15:27:01Z</time>
      </trkpt>
      <trkpt lat="48.74286" lon="2.23742">
        <ele>110</ele>
        <time>2013-11-03T15:27:06Z</time>
      </trkpt>
      <trkpt lat="48.74284" lon="2.23741">
        <ele>110</ele>
        <time>2013-11-03T15:27:11Z</time>
      </trkpt>
      <trkpt lat="48.74279" lon="2.23738">
        <ele>110</ele>
        <time>2013-11-03T15:27:17Z</time>
      </trkpt>
      <trkpt lat="48.74272" lon="2.23726">
        <ele>111</ele>
        <time>2013-11-03T15:27:22Z</time>
      </trkpt>
      <trkpt lat="48.74266" lon="2.23723">
        <ele>111</ele>
        <time>2013-11-03T15:27:27Z</time>
      </trkpt>
      <trkpt lat="48.74262" lon="2.23719">
        <ele>113</ele>
        <time>2013-11-03T15:27:34Z</time>
      </trkpt>
      <trkpt lat="48.74258" lon="2.23723">
        <ele>112</ele>
        <time>2013-11-03T15:27:42Z</time>
      </trkpt>
      <trkpt lat="48.74254" lon="2.23722">
        <ele>111</ele>
        <time>2013-11-03T15:27:46Z</time>
      </trkpt>
      <trkpt lat="48.74249" lon="2.23717">
        <ele>110</ele>
        <time>2013-11-03T15:27:51Z</time>
      </trkpt>
      <trkpt lat="48.74244" lon="2.23718">
        <ele>110</ele>
        <time>2013-11-03T15:27:58Z</time>
      </trkpt>
      <trkpt lat="48.7424" lon="2.23714">
        <ele>109</ele>
        <time>2013-11-03T15:28:07Z</time>
      </trkpt>
      <trkpt lat="48.74236" lon="2.2371">
        <ele>108</ele>
        <time>2013-11-03T15:28:12Z</time>
      </trkpt>
      <trkpt lat="48.74233" lon="2.23705">
        <ele>107</ele>
        <time>2013-11-03T15:28:17Z</time>
      </trkpt>
      <trkpt lat="48.74228" lon="2.23707">
        <ele>104</ele>
        <time>2013-11-03T15:28:27Z</time>
      </trkpt>
      <trkpt lat="48.74222" lon="2.23702">
        <ele>104</ele>
        <time>2013-11-03T15:28:37Z</time>
      </trkpt>
      <trkpt lat="48.74218" lon="2.23704">
        <ele>102</ele>
        <time>2013-11-03T15:28:54Z</time>
      </trkpt>
      <trkpt lat="48.74212" lon="2.23702">
        <ele>102</ele>
        <time>2013-11-03T15:28:59Z</time>
      </trkpt>
      <trkpt lat="48.74208" lon="2.23698">
        <ele>101</ele>
        <time>2013-11-03T15:29:05Z</time>
      </trkpt>
      <trkpt lat="48.74204" lon="2.23692">
        <ele>99</ele>
        <time>2013-11-03T15:29:10Z</time>
      </trkpt>
      <trkpt lat="48.742" lon="2.23693">
        <ele>98</ele>
        <time>2013-11-03T15:29:15Z</time>
      </trkpt>
      <trkpt lat="48.74196" lon="2.23695">
        <ele>96</ele>
        <time>2013-11-03T15:29:24Z</time>
      </trkpt>
      <trkpt lat="48.74185" lon="2.23689">
        <ele>89</ele>
        <time>2013-11-03T15:29:44Z</time>
      </trkpt>
      <trkpt lat="48.74177" lon="2.23685">
        <ele>89</ele>
        <time>2013-11-03T15:29:45Z</time>
      </trkpt>
      <trkpt lat="48.74173" lon="2.23682">
        <ele>89</ele>
        <time>2013-11-03T15:29:48Z</time>
      </trkpt>
      <trkpt lat="48.74168" lon="2.23683">
        <ele>89</ele>
        <time>2013-11-03T15:29:54Z</time>
      </trkpt>
      <trkpt lat="48.74163" lon="2.23685">
        <ele>88</ele>
        <time>2013-11-03T15:29:59Z</time>
      </trkpt>
      <trkpt lat="48.74159" lon="2.23682">
        <ele>86</ele>
        <time>2013-11-03T15:30:08Z</time>
      </trkpt>
      <trkpt lat="48.74155" lon="2.23682">
        <ele>84</ele>
        <time>2013-11-03T15:30:13Z</time>
      </trkpt>
      <trkpt lat="48.74149" lon="2.23681">
        <ele>82</ele>
        <time>2013-11-03T15:30:20Z</time>
      </trkpt>
      <trkpt lat="48.74144" lon="2.23682">
        <ele>80</ele>
        <time>2013-11-03T15:30:26Z</time>
      </trkpt>
      <trkpt lat="48.7414" lon="2.2368">
        <ele>78</ele>
        <time>2013-11-03T15:30:33Z</time>
      </trkpt>
      <trkpt lat="48.74136" lon="2.23677">
        <ele>76</ele>
        <time>2013-11-03T15:30:38Z</time>
      </trkpt>
      <trkpt lat="48.74131" lon="2.23674">
        <ele>75</ele>
        <time>2013-11-03T15:30:43Z</time>
      </trkpt>
      <trkpt lat="48.74127" lon="2.2367">
        <ele>74</ele>
        <time>2013-11-03T15:30:47Z</time>
      </trkpt>
      <trkpt lat="48.74122" lon="2.23666">
        <ele>72</ele>
        <time>2013-11-03T15:30:51Z</time>
      </trkpt>
      <trkpt lat="48.74117" lon="2.23665">
        <ele>69</ele>
        <time>2013-11-03T15:30:58Z</time>
      </trkpt>
      <trkpt lat="48.74114" lon="2.2366">
        <ele>67</ele>
        <time>2013-11-03T15:31:02Z</time>
      </trkpt>
      <trkpt lat="48.7411" lon="2.23656">
        <ele>65</ele>
        <time>2013-11-03T15:31:07Z</time>
      </trkpt>
      <trkpt lat="48.74107" lon="2.23649">
        <ele>63</ele>
        <time>2013-11-03T15:31:13Z</time>
      </trkpt>
      <trkpt lat="48.74103" lon="2.23644">
        <ele>61</ele>
        <time>2013-11-03T15:31:16Z</time>
      </trkpt>
      <trkpt lat="48.74098" lon="2.23639">
        <ele>61</ele>
        <time>2013-11-03T15:31:20Z</time>
      </trkpt>
      <trkpt lat="48.74095" lon="2.23633">
        <ele>61</ele>
        <time>2013-11-03T15:31:23Z</time>
      </trkpt>
      <trkpt lat="48.74097" lon="2.23625">
        <ele>62</ele>
        <time>2013-11-03T15:31:28Z</time>
      </trkpt>
      <trkpt lat="48.74099" lon="2.23619">
        <ele>63</ele>
        <time>2013-11-03T15:31:33Z</time>
      </trkpt>
      <trkpt lat="48.74102" lon="2.23612">
        <ele>65</ele>
        <time>2013-11-03T15:31:37Z</time>
      </trkpt>
      <trkpt lat="48.74105" lon="2.23605">
        <ele>67</ele>
        <time>2013-11-03T15:31:41Z</time>
      </trkpt>
      <trkpt lat="48.74109" lon="2.236">
        <ele>67</ele>
        <time>2013-11-03T15:31:48Z</time>
      </trkpt>
      <trkpt lat="48.74113" lon="2.23602">
        <ele>65</ele>
        <time>2013-11-03T15:31:54Z</time>
      </trkpt>
      <trkpt lat="48.74118" lon="2.23597">
        <ele>65</ele>
        <time>2013-11-03T15:31:57Z</time>
      </trkpt>
      <trkpt lat="48.74122" lon="2.23592">
        <ele>65</ele>
        <time>2013-11-03T15:32:00Z</time>
      </trkpt>
      <trkpt lat="48.74126" lon="2.23588">
        <ele>65</ele>
        <time>2013-11-03T15:32:03Z</time>
      </trkpt>
      <trkpt lat="48.7413" lon="2.23583">
        <ele>65</ele>
        <time>2013-11-03T15:32:06Z</time>
      </trkpt>
      <trkpt lat="48.74134" lon="2.23578">
        <ele>66</ele>
        <time>2013-11-03T15:32:09Z</time>
      </trkpt>
      <trkpt lat="48.74135" lon="2.2357">
        <ele>67</ele>
        <time>2013-11-03T15:32:13Z</time>
      </trkpt>
      <trkpt lat="48.74135" lon="2.23563">
        <ele>67</ele>
        <time>2013-11-03T15:32:17Z</time>
      </trkpt>
      <trkpt lat="48.74136" lon="2.23556">
        <ele>68</ele>
        <time>2013-11-03T15:32:21Z</time>
      </trkpt>
      <trkpt lat="48.74139" lon="2.23548">
        <ele>69</ele>
        <time>2013-11-03T15:32:27Z</time>
      </trkpt>
      <trkpt lat="48.74142" lon="2.23542">
        <ele>70</ele>
        <time>2013-11-03T15:32:30Z</time>
      </trkpt>
      <trkpt lat="48.74146" lon="2.23536">
        <ele>70</ele>
        <time>2013-11-03T15:32:34Z</time>
      </trkpt>
      <trkpt lat="48.74148" lon="2.23529">
        <ele>69</ele>
        <time>2013-11-03T15:32:37Z</time>
      </trkpt>
      <trkpt lat="48.7415" lon="2.2352">
        <ele>67</ele>
        <time>2013-11-03T15:32:41Z</time>
      </trkpt>
      <trkpt lat="48.7415" lon="2.23512">
        <ele>66</ele>
        <time>2013-11-03T15:32:45Z</time>
      </trkpt>
      <trkpt lat="48.74151" lon="2.23505">
        <ele>66</ele>
        <time>2013-11-03T15:32:49Z</time>
      </trkpt>
      <trkpt lat="48.74152" lon="2.23497">
        <ele>65</ele>
        <time>2013-11-03T15:32:54Z</time>
      </trkpt>
      <trkpt lat="48.74152" lon="2.23489">
        <ele>65</ele>
        <time>2013-11-03T15:32:59Z</time>
      </trkpt>
      <trkpt lat="48.74153" lon="2.23482">
        <ele>60</ele>
        <time>2013-11-03T15:33:03Z</time>
      </trkpt>
      <trkpt lat="48.74157" lon="2.23475">
        <ele>56</ele>
        <time>2013-11-03T15:33:09Z</time>
      </trkpt>
      <trkpt lat="48.7416" lon="2.23468">
        <ele>56</ele>
        <time>2013-11-03T15:33:14Z</time>
      </trkpt>
      <trkpt lat="48.74161" lon="2.23462">
        <ele>55</ele>
        <time>2013-11-03T15:33:17Z</time>
      </trkpt>
      <trkpt lat="48.74163" lon="2.2345">
        <ele>55</ele>
        <time>2013-11-03T15:33:21Z</time>
      </trkpt>
      <trkpt lat="48.74162" lon="2.23442">
        <ele>55</ele>
        <time>2013-11-03T15:33:24Z</time>
      </trkpt>
      <trkpt lat="48.74161" lon="2.23435">
        <ele>55</ele>
        <time>2013-11-03T15:33:27Z</time>
      </trkpt>
      <trkpt lat="48.7416" lon="2.23427">
        <ele>56</ele>
        <time>2013-11-03T15:33:32Z</time>
      </trkpt>
      <trkpt lat="48.7416" lon="2.2342">
        <ele>56</ele>
        <time>2013-11-03T15:33:36Z</time>
      </trkpt>
      <trkpt lat="48.74162" lon="2.23417">
        <ele>55</ele>
        <time>2013-11-03T15:33:48Z</time>
      </trkpt>
      <trkpt lat="48.74162" lon="2.2341">
        <ele>55</ele>
        <time>2013-11-03T15:33:51Z</time>
      </trkpt>
      <trkpt lat="48.7416" lon="2.23404">
        <ele>54</ele>
        <time>2013-11-03T15:33:53Z</time>
      </trkpt>
      <trkpt lat="48.74157" lon="2.23397">
        <ele>55</ele>
        <time>2013-11-03T15:33:55Z</time>
      </trkpt>
      <trkpt lat="48.74156" lon="2.23387">
        <ele>55</ele>
        <time>2013-11-03T15:33:58Z</time>
      </trkpt>
      <trkpt lat="48.74156" lon="2.23378">
        <ele>55</ele>
        <time>2013-11-03T15:34:02Z</time>
      </trkpt>
      <trkpt lat="48.74156" lon="2.23371">
        <ele>55</ele>
        <time>2013-11-03T15:34:06Z</time>
      </trkpt>
      <trkpt lat="48.74158" lon="2.23363">
        <ele>57</ele>
        <time>2013-11-03T15:34:11Z</time>
      </trkpt>
      <trkpt lat="48.7416" lon="2.23356">
        <ele>57</ele>
        <time>2013-11-03T15:34:16Z</time>
      </trkpt>
      <trkpt lat="48.7416" lon="2.23348">
        <ele>58</ele>
        <time>2013-11-03T15:34:20Z</time>
      </trkpt>
      <trkpt lat="48.7416" lon="2.2334">
        <ele>59</ele>
        <time>2013-11-03T15:34:24Z</time>
      </trkpt>
      <trkpt lat="48.7416" lon="2.23332">
        <ele>58</ele>
        <time>2013-11-03T15:34:28Z</time>
      </trkpt>
      <trkpt lat="48.74161" lon="2.23325">
        <ele>58</ele>
        <time>2013-11-03T15:34:32Z</time>
      </trkpt>
      <trkpt lat="48.74162" lon="2.23318">
        <ele>57</ele>
        <time>2013-11-03T15:34:37Z</time>
      </trkpt>
      <trkpt lat="48.74163" lon="2.2331">
        <ele>57</ele>
        <time>2013-11-03T15:34:42Z</time>
      </trkpt>
      <trkpt lat="48.74164" lon="2.23303">
        <ele>56</ele>
        <time>2013-11-03T15:34:47Z</time>
      </trkpt>
      <trkpt lat="48.74164" lon="2.23295">
        <ele>54</ele>
        <time>2013-11-03T15:34:53Z</time>
      </trkpt>
      <trkpt lat="48.74165" lon="2.23288">
        <ele>52</ele>
        <time>2013-11-03T15:34:57Z</time>
      </trkpt>
      <trkpt lat="48.74165" lon="2.2328">
        <ele>51</ele>
        <time>2013-11-03T15:35:01Z</time>
      </trkpt>
      <trkpt lat="48.74164" lon="2.23272">
        <ele>51</ele>
        <time>2013-11-03T15:35:05Z</time>
      </trkpt>
      <trkpt lat="48.74162" lon="2.23265">
        <ele>51</ele>
        <time>2013-11-03T15:35:08Z</time>
      </trkpt>
      <trkpt lat="48.74161" lon="2.23258">
        <ele>52</ele>
        <time>2013-11-03T15:35:12Z</time>
      </trkpt>
      <trkpt lat="48.7416" lon="2.2325">
        <ele>52</ele>
        <time>2013-11-03T15:35:16Z</time>
      </trkpt>
      <trkpt lat="48.7416" lon="2.23242">
        <ele>52</ele>
        <time>2013-11-03T15:35:23Z</time>
      </trkpt>
      <trkpt lat="48.7416" lon="2.23238">
        <ele>52</ele>
        <time>2013-11-03T15:35:30Z</time>
      </trkpt>
      <trkpt lat="48.74158" lon="2.2323">
        <ele>54</ele>
        <time>2013-11-03T15:35:38Z</time>
      </trkpt>
      <trkpt lat="48.74159" lon="2.23226">
        <ele>54</ele>
        <time>2013-11-03T15:35:59Z</time>
      </trkpt>
      <trkpt lat="48.7416" lon="2.23219">
        <ele>52</ele>
        <time>2013-11-03T15:36:05Z</time>
      </trkpt>
      <trkpt lat="48.7416" lon="2.23212">
        <ele>51</ele>
        <time>2013-11-03T15:36:10Z</time>
      </trkpt>
      <trkpt lat="48.74162" lon="2.23205">
        <ele>50</ele>
        <time>2013-11-03T15:36:14Z</time>
      </trkpt>
      <trkpt lat="48.74163" lon="2.23198">
        <ele>50</ele>
        <time>2013-11-03T15:36:17Z</time>
      </trkpt>
      <trkpt lat="48.74162" lon="2.2319">
        <ele>49</ele>
        <time>2013-11-03T15:36:20Z</time>
      </trkpt>
      <trkpt lat="48.7416" lon="2.23183">
        <ele>49</ele>
        <time>2013-11-03T15:36:23Z</time>
      </trkpt>
      <trkpt lat="48.74156" lon="2.23176">
        <ele>49</ele>
        <time>2013-11-03T15:36:26Z</time>
      </trkpt>
      <trkpt lat="48.74155" lon="2.23168">
        <ele>49</ele>
        <time>2013-11-03T15:36:28Z</time>
      </trkpt>
      <trkpt lat="48.74157" lon="2.23161">
        <ele>49</ele>
        <time>2013-11-03T15:36:31Z</time>
      </trkpt>
      <trkpt lat="48.74161" lon="2.2316">
        <ele>47</ele>
        <time>2013-11-03T15:36:37Z</time>
      </trkpt>
      <trkpt lat="48.74165" lon="2.23155">
        <ele>47</ele>
        <time>2013-11-03T15:36:45Z</time>
      </trkpt>
      <trkpt lat="48.74169" lon="2.23149">
        <ele>48</ele>
        <time>2013-11-03T15:36:49Z</time>
      </trkpt>
      <trkpt lat="48.7417" lon="2.23141">
        <ele>49</ele>
        <time>2013-11-03T15:36:52Z</time>
      </trkpt>
      <trkpt lat="48.74172" lon="2.23133">
        <ele>51</ele>
        <time>2013-11-03T15:36:57Z</time>
      </trkpt>
      <trkpt lat="48.74174" lon="2.23125">
        <ele>53</ele>
        <time>2013-11-03T15:37:02Z</time>
      </trkpt>
      <trkpt lat="48.74179" lon="2.23122">
        <ele>55</ele>
        <time>2013-11-03T15:37:07Z</time>
      </trkpt>
      <trkpt lat="48.74183" lon="2.23119">
        <ele>57</ele>
        <time>2013-11-03T15:37:10Z</time>
      </trkpt>
      <trkpt lat="48.74188" lon="2.23116">
        <ele>58</ele>
        <time>2013-11-03T15:37:14Z</time>
      </trkpt>
      <trkpt lat="48.74194" lon="2.23114">
        <ele>60</ele>
        <time>2013-11-03T15:37:18Z</time>
      </trkpt>
      <trkpt lat="48.74199" lon="2.23112">
        <ele>61</ele>
        <time>2013-11-03T15:37:22Z</time>
      </trkpt>
      <trkpt lat="48.74201" lon="2.23105">
        <ele>61</ele>
        <time>2013-11-03T15:37:26Z</time>
      </trkpt>
      <trkpt lat="48.74202" lon="2.23097">
        <ele>60</ele>
        <time>2013-11-03T15:37:30Z</time>
      </trkpt>
      <trkpt lat="48.74203" lon="2.2309">
        <ele>59</ele>
        <time>2013-11-03T15:37:34Z</time>
      </trkpt>
      <trkpt lat="48.74206" lon="2.23084">
        <ele>57</ele>
        <time>2013-11-03T15:37:37Z</time>
      </trkpt>
      <trkpt lat="48.7421" lon="2.23079">
        <ele>56</ele>
        <time>2013-11-03T15:37:41Z</time>
      </trkpt>
      <trkpt lat="48.74215" lon="2.23077">
        <ele>54</ele>
        <time>2013-11-03T15:37:44Z</time>
      </trkpt>
      <trkpt lat="48.74219" lon="2.23076">
        <ele>53</ele>
        <time>2013-11-03T15:37:49Z</time>
      </trkpt>
      <trkpt lat="48.74225" lon="2.23079">
        <ele>52</ele>
        <time>2013-11-03T15:37:53Z</time>
      </trkpt>
      <trkpt lat="48.74229" lon="2.23081">
        <ele>51</ele>
        <time>2013-11-03T15:37:58Z</time>
      </trkpt>
      <trkpt lat="48.74234" lon="2.23086">
        <ele>49</ele>
        <time>2013-11-03T15:38:03Z</time>
      </trkpt>
      <trkpt lat="48.74237" lon="2.2309">
        <ele>48</ele>
        <time>2013-11-03T15:38:10Z</time>
      </trkpt>
      <trkpt lat="48.74241" lon="2.23085">
        <ele>48</ele>
        <time>2013-11-03T15:38:15Z</time>
      </trkpt>
      <trkpt lat="48.74245" lon="2.23087">
        <ele>47</ele>
        <time>2013-11-03T15:38:18Z</time>
      </trkpt>
      <trkpt lat="48.7425" lon="2.23087">
        <ele>46</ele>
        <time>2013-11-03T15:38:21Z</time>
      </trkpt>
      <trkpt lat="48.74252" lon="2.23079">
        <ele>47</ele>
        <time>2013-11-03T15:38:26Z</time>
      </trkpt>
      <trkpt lat="48.74256" lon="2.23074">
        <ele>49</ele>
        <time>2013-11-03T15:38:32Z</time>
      </trkpt>
      <trkpt lat="48.74261" lon="2.23074">
        <ele>48</ele>
        <time>2013-11-03T15:38:36Z</time>
      </trkpt>
      <trkpt lat="48.74262" lon="2.23067">
        <ele>49</ele>
        <time>2013-11-03T15:38:42Z</time>
      </trkpt>
      <trkpt lat="48.74267" lon="2.2306">
        <ele>49</ele>
        <time>2013-11-03T15:38:46Z</time>
      </trkpt>
      <trkpt lat="48.74271" lon="2.23056">
        <ele>49</ele>
        <time>2013-11-03T15:38:50Z</time>
      </trkpt>
      <trkpt lat="48.74274" lon="2.23052">
        <ele>48</ele>
        <time>2013-11-03T15:38:53Z</time>
      </trkpt>
      <trkpt lat="48.7428" lon="2.23052">
        <ele>47</ele>
        <time>2013-11-03T15:38:58Z</time>
      </trkpt>
      <trkpt lat="48.74285" lon="2.23052">
        <ele>48</ele>
        <time>2013-11-03T15:39:02Z</time>
      </trkpt>
      <trkpt lat="48.74291" lon="2.23051">
        <ele>48</ele>
        <time>2013-11-03T15:39:06Z</time>
      </trkpt>
      <trkpt lat="48.74297" lon="2.23049">
        <ele>47</ele>
        <time>2013-11-03T15:39:10Z</time>
      </trkpt>
      <trkpt lat="48.74301" lon="2.23046">
        <ele>47</ele>
        <time>2013-11-03T15:39:15Z</time>
      </trkpt>
      <trkpt lat="48.74306" lon="2.23049">
        <ele>47</ele>
        <time>2013-11-03T15:39:19Z</time>
      </trkpt>
      <trkpt lat="48.7431" lon="2.23049">
        <ele>48</ele>
        <time>2013-11-03T15:39:24Z</time>
      </trkpt>
      <trkpt lat="48.74315" lon="2.23048">
        <ele>49</ele>
        <time>2013-11-03T15:39:30Z</time>
      </trkpt>
      <trkpt lat="48.7432" lon="2.23046">
        <ele>49</ele>
        <time>2013-11-03T15:39:37Z</time>
      </trkpt>
      <trkpt lat="48.74326" lon="2.23045">
        <ele>49</ele>
        <time>2013-11-03T15:39:41Z</time>
      </trkpt>
      <trkpt lat="48.74332" lon="2.23043">
        <ele>48</ele>
        <time>2013-11-03T15:39:44Z</time>
      </trkpt>
      <trkpt lat="48.74336" lon="2.2304">
        <ele>47</ele>
        <time>2013-11-03T15:39:47Z</time>
      </trkpt>
      <trkpt lat="48.74343" lon="2.23042">
        <ele>46</ele>
        <time>2013-11-03T15:39:52Z</time>
      </trkpt>
      <trkpt lat="48.7435" lon="2.23043">
        <ele>46</ele>
        <time>2013-11-03T15:39:56Z</time>
      </trkpt>
      <trkpt lat="48.74356" lon="2.23044">
        <ele>45</ele>
        <time>2013-11-03T15:39:58Z</time>
      </trkpt>
      <trkpt lat="48.74362" lon="2.23046">
        <ele>46</ele>
        <time>2013-11-03T15:40:02Z</time>
      </trkpt>
      <trkpt lat="48.74367" lon="2.2305">
        <ele>47</ele>
        <time>2013-11-03T15:40:05Z</time>
      </trkpt>
      <trkpt lat="48.7437" lon="2.23055">
        <ele>48</ele>
        <time>2013-11-03T15:40:10Z</time>
      </trkpt>
      <trkpt lat="48.74374" lon="2.23051">
        <ele>49</ele>
        <time>2013-11-03T15:40:16Z</time>
      </trkpt>
      <trkpt lat="48.74378" lon="2.23047">
        <ele>49</ele>
        <time>2013-11-03T15:40:20Z</time>
      </trkpt>
      <trkpt lat="48.74383" lon="2.23044">
        <ele>50</ele>
        <time>2013-11-03T15:40:24Z</time>
      </trkpt>
      <trkpt lat="48.74389" lon="2.23043">
        <ele>50</ele>
        <time>2013-11-03T15:40:27Z</time>
      </trkpt>
      <trkpt lat="48.74394" lon="2.23043">
        <ele>50</ele>
        <time>2013-11-03T15:40:32Z</time>
      </trkpt>
      <trkpt lat="48.74399" lon="2.23041">
        <ele>51</ele>
        <time>2013-11-03T15:40:36Z</time>
      </trkpt>
      <trkpt lat="48.74403" lon="2.23042">
        <ele>53</ele>
        <time>2013-11-03T15:40:42Z</time>
      </trkpt>
      <trkpt lat="48.74405" lon="2.23049">
        <ele>54</ele>
        <time>2013-11-03T15:40:46Z</time>
      </trkpt>
      <trkpt lat="48.74408" lon="2.23054">
        <ele>55</ele>
        <time>2013-11-03T15:40:54Z</time>
      </trkpt>
      <trkpt lat="48.74414" lon="2.23053">
        <ele>55</ele>
        <time>2013-11-03T15:41:00Z</time>
      </trkpt>
      <trkpt lat="48.74419" lon="2.23052">
        <ele>57</ele>
        <time>2013-11-03T15:41:05Z</time>
      </trkpt>
      <trkpt lat="48.74425" lon="2.23051">
        <ele>58</ele>
        <time>2013-11-03T15:41:09Z</time>
      </trkpt>
      <trkpt lat="48.7443" lon="2.23052">
        <ele>59</ele>
        <time>2013-11-03T15:41:13Z</time>
      </trkpt>
      <trkpt lat="48.74433" lon="2.23048">
        <ele>58</ele>
        <time>2013-11-03T15:41:17Z</time>
      </trkpt>
      <trkpt lat="48.74436" lon="2.23043">
        <ele>57</ele>
        <time>2013-11-03T15:41:21Z</time>
      </trkpt>
      <trkpt lat="48.74439" lon="2.23037">
        <ele>57</ele>
        <time>2013-11-03T15:41:25Z</time>
      </trkpt>
      <trkpt lat="48.74442" lon="2.23032">
        <ele>57</ele>
        <time>2013-11-03T15:41:30Z</time>
      </trkpt>
      <trkpt lat="48.74443" lon="2.23024">
        <ele>57</ele>
        <time>2013-11-03T15:41:36Z</time>
      </trkpt>
      <trkpt lat="48.74446" lon="2.23018">
        <ele>58</ele>
        <time>2013-11-03T15:41:40Z</time>
      </trkpt>
      <trkpt lat="48.7445" lon="2.23015">
        <ele>59</ele>
        <time>2013-11-03T15:41:43Z</time>
      </trkpt>
      <trkpt lat="48.74456" lon="2.23012">
        <ele>59</ele>
        <time>2013-11-03T15:41:47Z</time>
      </trkpt>
      <trkpt lat="48.74461" lon="2.23013">
        <ele>59</ele>
        <time>2013-11-03T15:41:51Z</time>
      </trkpt>
      <trkpt lat="48.74466" lon="2.23014">
        <ele>59</ele>
        <time>2013-11-03T15:41:55Z</time>
      </trkpt>
      <trkpt lat="48.7447" lon="2.23017">
        <ele>59</ele>
        <time>2013-11-03T15:41:59Z</time>
      </trkpt>
      <trkpt lat="48.74475" lon="2.2302">
        <ele>59</ele>
        <time>2013-11-03T15:42:03Z</time>
      </trkpt>
      <trkpt lat="48.74479" lon="2.23022">
        <ele>57</ele>
        <time>2013-11-03T15:42:07Z</time>
      </trkpt>
      <trkpt lat="48.74546" lon="2.22988">
        <ele>59</ele>
        <time>2013-11-03T15:43:06Z</time>
      </trkpt>
      <trkpt lat="48.74547" lon="2.2298">
        <ele>61</ele>
        <time>2013-11-03T15:43:12Z</time>
      </trkpt>
      <trkpt lat="48.74552" lon="2.22979">
        <ele>62</ele>
        <time>2013-11-03T15:43:15Z</time>
      </trkpt>
      <trkpt lat="48.74554" lon="2.22975">
        <ele>61</ele>
        <time>2013-11-03T15:43:24Z</time>
      </trkpt>
      <trkpt lat="48.74557" lon="2.22968">
        <ele>60</ele>
        <time>2013-11-03T15:43:35Z</time>
      </trkpt>
      <trkpt lat="48.74562" lon="2.22966">
        <ele>60</ele>
        <time>2013-11-03T15:43:41Z</time>
      </trkpt>
      <trkpt lat="48.74567" lon="2.22963">
        <ele>60</ele>
        <time>2013-11-03T15:43:45Z</time>
      </trkpt>
      <trkpt lat="48.74571" lon="2.22959">
        <ele>61</ele>
        <time>2013-11-03T15:43:49Z</time>
      </trkpt>
      <trkpt lat="48.74575" lon="2.22957">
        <ele>62</ele>
        <time>2013-11-03T15:43:54Z</time>
      </trkpt>
      <trkpt lat="48.7458" lon="2.22954">
        <ele>63</ele>
        <time>2013-11-03T15:43:57Z</time>
      </trkpt>
      <trkpt lat="48.74584" lon="2.22948">
        <ele>62</ele>
        <time>2013-11-03T15:44:02Z</time>
      </trkpt>
      <trkpt lat="48.74587" lon="2.22943">
        <ele>62</ele>
        <time>2013-11-03T15:44:11Z</time>
      </trkpt>
      <trkpt lat="48.74586" lon="2.22936">
        <ele>62</ele>
        <time>2013-11-03T15:44:16Z</time>
      </trkpt>
      <trkpt lat="48.74591" lon="2.22935">
        <ele>62</ele>
        <time>2013-11-03T15:44:22Z</time>
      </trkpt>
      <trkpt lat="48.74596" lon="2.22937">
        <ele>61</ele>
        <time>2013-11-03T15:44:25Z</time>
      </trkpt>
      <trkpt lat="48.74604" lon="2.22935">
        <ele>59</ele>
        <time>2013-11-03T15:44:33Z</time>
      </trkpt>
      <trkpt lat="48.74607" lon="2.22929">
        <ele>60</ele>
        <time>2013-11-03T15:44:37Z</time>
      </trkpt>
      <trkpt lat="48.7461" lon="2.22922">
        <ele>60</ele>
        <time>2013-11-03T15:44:40Z</time>
      </trkpt>
      <trkpt lat="48.74613" lon="2.22916">
        <ele>62</ele>
        <time>2013-11-03T15:44:44Z</time>
      </trkpt>
      <trkpt lat="48.74618" lon="2.22913">
        <ele>62</ele>
        <time>2013-11-03T15:44:48Z</time>
      </trkpt>
      <trkpt lat="48.7462" lon="2.22904">
        <ele>66</ele>
        <time>2013-11-03T15:44:58Z</time>
      </trkpt>
      <trkpt lat="48.74624" lon="2.22901">
        <ele>66</ele>
        <time>2013-11-03T15:45:05Z</time>
      </trkpt>
      <trkpt lat="48.7463" lon="2.22899">
        <ele>66</ele>
        <time>2013-11-03T15:45:09Z</time>
      </trkpt>
      <trkpt lat="48.74635" lon="2.22898">
        <ele>65</ele>
        <time>2013-11-03T15:45:13Z</time>
      </trkpt>
      <trkpt lat="48.74642" lon="2.22895">
        <ele>64</ele>
        <time>2013-11-03T15:45:18Z</time>
      </trkpt>
      <trkpt lat="48.74646" lon="2.22889">
        <ele>64</ele>
        <time>2013-11-03T15:45:22Z</time>
      </trkpt>
      <trkpt lat="48.74649" lon="2.22884">
        <ele>64</ele>
        <time>2013-11-03T15:45:25Z</time>
      </trkpt>
      <trkpt lat="48.74653" lon="2.22878">
        <ele>63</ele>
        <time>2013-11-03T15:45:28Z</time>
      </trkpt>
      <trkpt lat="48.74655" lon="2.22872">
        <ele>63</ele>
        <time>2013-11-03T15:45:33Z</time>
      </trkpt>
      <trkpt lat="48.74658" lon="2.22865">
        <ele>63</ele>
        <time>2013-11-03T15:45:38Z</time>
      </trkpt>
      <trkpt lat="48.74663" lon="2.22853">
        <ele>62</ele>
        <time>2013-11-03T15:45:45Z</time>
      </trkpt>
      <trkpt lat="48.74666" lon="2.22847">
        <ele>62</ele>
        <time>2013-11-03T15:45:47Z</time>
      </trkpt>
      <trkpt lat="48.74666" lon="2.22838">
        <ele>61</ele>
        <time>2013-11-03T15:45:50Z</time>
      </trkpt>
      <trkpt lat="48.74668" lon="2.22831">
        <ele>61</ele>
        <time>2013-11-03T15:45:58Z</time>
      </trkpt>
      <trkpt lat="48.74671" lon="2.22826">
        <ele>62</ele>
        <time>2013-11-03T15:46:03Z</time>
      </trkpt>
      <trkpt lat="48.74674" lon="2.22822">
        <ele>58</ele>
        <time>2013-11-03T15:46:12Z</time>
      </trkpt>
      <trkpt lat="48.74674" lon="2.22814">
        <ele>58</ele>
        <time>2013-11-03T15:46:17Z</time>
      </trkpt>
      <trkpt lat="48.74676" lon="2.22807">
        <ele>59</ele>
        <time>2013-11-03T15:46:22Z</time>
      </trkpt>
      <trkpt lat="48.74678" lon="2.22803">
        <ele>61</ele>
        <time>2013-11-03T15:46:30Z</time>
      </trkpt>
      <trkpt lat="48.74684" lon="2.22803">
        <ele>61</ele>
        <time>2013-11-03T15:46:35Z</time>
      </trkpt>
      <trkpt lat="48.74688" lon="2.22804">
        <ele>61</ele>
        <time>2013-11-03T15:46:38Z</time>
      </trkpt>
      <trkpt lat="48.74693" lon="2.22804">
        <ele>61</ele>
        <time>2013-11-03T15:46:42Z</time>
      </trkpt>
      <trkpt lat="48.74698" lon="2.22804">
        <ele>61</ele>
        <time>2013-11-03T15:46:46Z</time>
      </trkpt>
      <trkpt lat="48.74702" lon="2.22797">
        <ele>61</ele>
        <time>2013-11-03T15:46:52Z</time>
      </trkpt>
      <trkpt lat="48.74707" lon="2.22793">
        <ele>62</ele>
        <time>2013-11-03T15:46:57Z</time>
      </trkpt>
      <trkpt lat="48.74712" lon="2.22788">
        <ele>62</ele>
        <time>2013-11-03T15:46:59Z</time>
      </trkpt>
      <trkpt lat="48.74715" lon="2.2278">
        <ele>63</ele>
        <time>2013-11-03T15:47:03Z</time>
      </trkpt>
      <trkpt lat="48.74716" lon="2.22772">
        <ele>64</ele>
        <time>2013-11-03T15:47:05Z</time>
      </trkpt>
      <trkpt lat="48.74716" lon="2.22765">
        <ele>65</ele>
        <time>2013-11-03T15:47:08Z</time>
      </trkpt>
      <trkpt lat="48.7472" lon="2.22758">
        <ele>66</ele>
        <time>2013-11-03T15:47:12Z</time>
      </trkpt>
      <trkpt lat="48.74723" lon="2.22751">
        <ele>68</ele>
        <time>2013-11-03T15:47:17Z</time>
      </trkpt>
      <trkpt lat="48.74723" lon="2.22744">
        <ele>70</ele>
        <time>2013-11-03T15:47:25Z</time>
      </trkpt>
      <trkpt lat="48.74726" lon="2.22738">
        <ele>72</ele>
        <time>2013-11-03T15:47:28Z</time>
      </trkpt>
      <trkpt lat="48.74725" lon="2.22731">
        <ele>73</ele>
        <time>2013-11-03T15:47:32Z</time>
      </trkpt>
      <trkpt lat="48.74727" lon="2.22723">
        <ele>74</ele>
        <time>2013-11-03T15:47:38Z</time>
      </trkpt>
      <trkpt lat="48.7473" lon="2.22716">
        <ele>73</ele>
        <time>2013-11-03T15:47:41Z</time>
      </trkpt>
      <trkpt lat="48.74735" lon="2.2271">
        <ele>73</ele>
        <time>2013-11-03T15:47:45Z</time>
      </trkpt>
      <trkpt lat="48.74738" lon="2.22704">
        <ele>73</ele>
        <time>2013-11-03T15:47:49Z</time>
      </trkpt>
      <trkpt lat="48.74742" lon="2.227">
        <ele>70</ele>
        <time>2013-11-03T15:47:56Z</time>
      </trkpt>
      <trkpt lat="48.74745" lon="2.22692">
        <ele>69</ele>
        <time>2013-11-03T15:48:00Z</time>
      </trkpt>
      <trkpt lat="48.74747" lon="2.22685">
        <ele>69</ele>
        <time>2013-11-03T15:48:05Z</time>
      </trkpt>
      <trkpt lat="48.7475" lon="2.22679">
        <ele>68</ele>
        <time>2013-11-03T15:48:09Z</time>
      </trkpt>
      <trkpt lat="48.74753" lon="2.22673">
        <ele>67</ele>
        <time>2013-11-03T15:48:12Z</time>
      </trkpt>
      <trkpt lat="48.74755" lon="2.22666">
        <ele>68</ele>
        <time>2013-11-03T15:48:16Z</time>
      </trkpt>
      <trkpt lat="48.74755" lon="2.22658">
        <ele>67</ele>
        <time>2013-11-03T15:48:20Z</time>
      </trkpt>
      <trkpt lat="48.74759" lon="2.22655">
        <ele>66</ele>
        <time>2013-11-03T15:48:25Z</time>
      </trkpt>
      <trkpt lat="48.74763" lon="2.22652">
        <ele>64</ele>
        <time>2013-11-03T15:48:29Z</time>
      </trkpt>
      <trkpt lat="48.74767" lon="2.22647">
        <ele>62</ele>
        <time>2013-11-03T15:48:34Z</time>
      </trkpt>
      <trkpt lat="48.74772" lon="2.22644">
        <ele>61</ele>
        <time>2013-11-03T15:48:40Z</time>
      </trkpt>
      <trkpt lat="48.74778" lon="2.2264">
        <ele>62</ele>
        <time>2013-11-03T15:48:44Z</time>
      </trkpt>
      <trkpt lat="48.74783" lon="2.22635">
        <ele>62</ele>
        <time>2013-11-03T15:48:48Z</time>
      </trkpt>
      <trkpt lat="48.74786" lon="2.2263">
        <ele>62</ele>
        <time>2013-11-03T15:48:50Z</time>
      </trkpt>
      <trkpt lat="48.74835" lon="2.22341">
        <ele>49</ele>
        <time>2013-11-03T15:53:33Z</time>
      </trkpt>
      <trkpt lat="48.74836" lon="2.22333">
        <ele>54</ele>
        <time>2013-11-03T15:53:37Z</time>
      </trkpt>
      <trkpt lat="48.74837" lon="2.22326">
        <ele>56</ele>
        <time>2013-11-03T15:53:40Z</time>
      </trkpt>
      <trkpt lat="48.74839" lon="2.2232">
        <ele>57</ele>
        <time>2013-11-03T15:53:44Z</time>
      </trkpt>
      <trkpt lat="48.74843" lon="2.22314">
        <ele>58</ele>
        <time>2013-11-03T15:53:48Z</time>
      </trkpt>
      <trkpt lat="48.74846" lon="2.22307">
        <ele>58</ele>
        <time>2013-11-03T15:53:52Z</time>
      </trkpt>
      <trkpt lat="48.74847" lon="2.223">
        <ele>58</ele>
        <time>2013-11-03T15:53:57Z</time>
      </trkpt>
      <trkpt lat="48.7485" lon="2.22262">
        <ele>72</ele>
        <time>2013-11-03T15:54:19Z</time>
      </trkpt>
      <trkpt lat="48.74853" lon="2.22255">
        <ele>73</ele>
        <time>2013-11-03T15:54:22Z</time>
      </trkpt>
      <trkpt lat="48.74856" lon="2.2225">
        <ele>72</ele>
        <time>2013-11-03T15:54:26Z</time>
      </trkpt>
      <trkpt lat="48.7486" lon="2.22244">
        <ele>71</ele>
        <time>2013-11-03T15:54:31Z</time>
      </trkpt>
      <trkpt lat="48.74861" lon="2.22237">
        <ele>70</ele>
        <time>2013-11-03T15:54:37Z</time>
      </trkpt>
      <trkpt lat="48.74864" lon="2.22231">
        <ele>69</ele>
        <time>2013-11-03T15:54:40Z</time>
      </trkpt>
      <trkpt lat="48.74867" lon="2.22226">
        <ele>70</ele>
        <time>2013-11-03T15:54:46Z</time>
      </trkpt>
      <trkpt lat="48.74871" lon="2.22221">
        <ele>70</ele>
        <time>2013-11-03T15:54:50Z</time>
      </trkpt>
      <trkpt lat="48.74873" lon="2.22214">
        <ele>70</ele>
        <time>2013-11-03T15:54:55Z</time>
      </trkpt>
      <trkpt lat="48.74875" lon="2.22206">
        <ele>70</ele>
        <time>2013-11-03T15:55:01Z</time>
      </trkpt>
      <trkpt lat="48.74879" lon="2.22202">
        <ele>69</ele>
        <time>2013-11-03T15:55:06Z</time>
      </trkpt>
      <trkpt lat="48.74881" lon="2.22195">
        <ele>68</ele>
        <time>2013-11-03T15:55:10Z</time>
      </trkpt>
      <trkpt lat="48.74882" lon="2.22188">
        <ele>67</ele>
        <time>2013-11-03T15:55:15Z</time>
      </trkpt>
      <trkpt lat="48.74884" lon="2.2218">
        <ele>67</ele>
        <time>2013-11-03T15:55:19Z</time>
      </trkpt>
      <trkpt lat="48.74886" lon="2.22173">
        <ele>65</ele>
        <time>2013-11-03T15:55:24Z</time>
      </trkpt>
      <trkpt lat="48.7489" lon="2.22166">
        <ele>64</ele>
        <time>2013-11-03T15:55:29Z</time>
      </trkpt>
      <trkpt lat="48.74891" lon="2.22159">
        <ele>63</ele>
        <time>2013-11-03T15:55:33Z</time>
      </trkpt>
      <trkpt lat="48.74894" lon="2.22152">
        <ele>63</ele>
        <time>2013-11-03T15:55:38Z</time>
      </trkpt>
      <trkpt lat="48.74897" lon="2.22145">
        <ele>64</ele>
        <time>2013-11-03T15:55:42Z</time>
      </trkpt>
      <trkpt lat="48.74898" lon="2.22138">
        <ele>65</ele>
        <time>2013-11-03T15:55:46Z</time>
      </trkpt>
      <trkpt lat="48.74897" lon="2.22129">
        <ele>65</ele>
        <time>2013-11-03T15:55:51Z</time>
      </trkpt>
      <trkpt lat="48.749" lon="2.22122">
        <ele>64</ele>
        <time>2013-11-03T15:55:56Z</time>
      </trkpt>
      <trkpt lat="48.74904" lon="2.22118">
        <ele>64</ele>
        <time>2013-11-03T15:56:01Z</time>
      </trkpt>
      <trkpt lat="48.74907" lon="2.22111">
        <ele>65</ele>
        <time>2013-11-03T15:56:06Z</time>
      </trkpt>
      <trkpt lat="48.74909" lon="2.22113">
        <ele>67</ele>
        <time>2013-11-03T15:56:20Z</time>
      </trkpt>
      <trkpt lat="48.74912" lon="2.2212">
        <ele>67</ele>
        <time>2013-11-03T15:56:25Z</time>
      </trkpt>
      <trkpt lat="48.74917" lon="2.22118">
        <ele>70</ele>
        <time>2013-11-03T15:56:38Z</time>
      </trkpt>
      <trkpt lat="48.74915" lon="2.22112">
        <ele>70</ele>
        <time>2013-11-03T15:56:48Z</time>
      </trkpt>
      <trkpt lat="48.7491" lon="2.22111">
        <ele>70</ele>
        <time>2013-11-03T15:56:52Z</time>
      </trkpt>
      <trkpt lat="48.74907" lon="2.22109">
        <ele>72</ele>
        <time>2013-11-03T15:57:15Z</time>
      </trkpt>
      <trkpt lat="48.74906" lon="2.22102">
        <ele>73</ele>
        <time>2013-11-03T15:57:22Z</time>
      </trkpt>
      <trkpt lat="48.74902" lon="2.22097">
        <ele>75</ele>
        <time>2013-11-03T15:57:29Z</time>
      </trkpt>
      <trkpt lat="48.74897" lon="2.22092">
        <ele>77</ele>
        <time>2013-11-03T15:57:31Z</time>
      </trkpt>
      <trkpt lat="48.74892" lon="2.22085">
        <ele>79</ele>
        <time>2013-11-03T15:57:36Z</time>
      </trkpt>
      <trkpt lat="48.74893" lon="2.22078">
        <ele>81</ele>
        <time>2013-11-03T15:57:40Z</time>
      </trkpt>
      <trkpt lat="48.74896" lon="2.22071">
        <ele>81</ele>
        <time>2013-11-03T15:57:45Z</time>
      </trkpt>
      <trkpt lat="48.74899" lon="2.22064">
        <ele>81</ele>
        <time>2013-11-03T15:57:48Z</time>
      </trkpt>
      <trkpt lat="48.74902" lon="2.22059">
        <ele>80</ele>
        <time>2013-11-03T15:57:52Z</time>
      </trkpt>
      <trkpt lat="48.74905" lon="2.22053">
        <ele>79</ele>
        <time>2013-11-03T15:57:56Z</time>
      </trkpt>
      <trkpt lat="48.74908" lon="2.22045">
        <ele>79</ele>
        <time>2013-11-03T15:58:00Z</time>
      </trkpt>
      <trkpt lat="48.74907" lon="2.22037">
        <ele>79</ele>
        <time>2013-11-03T15:58:04Z</time>
      </trkpt>
      <trkpt lat="48.7491" lon="2.2203">
        <ele>80</ele>
        <time>2013-11-03T15:58:09Z</time>
      </trkpt>
      <trkpt lat="48.74912" lon="2.22024">
        <ele>81</ele>
        <time>2013-11-03T15:58:14Z</time>
      </trkpt>
      <trkpt lat="48.74915" lon="2.22019">
        <ele>82</ele>
        <time>2013-11-03T15:58:19Z</time>
      </trkpt>
      <trkpt lat="48.74919" lon="2.22013">
        <ele>82</ele>
        <time>2013-11-03T15:58:23Z</time>
      </trkpt>
      <trkpt lat="48.74923" lon="2.22007">
        <ele>81</ele>
        <time>2013-11-03T15:58:27Z</time>
      </trkpt>
      <trkpt lat="48.74924" lon="2.22001">
        <ele>80</ele>
        <time>2013-11-03T15:58:35Z</time>
      </trkpt>
      <trkpt lat="48.74929" lon="2.21998">
        <ele>78</ele>
        <time>2013-11-03T15:58:38Z</time>
      </trkpt>
      <trkpt lat="48.74934" lon="2.21997">
        <ele>76</ele>
        <time>2013-11-03T15:58:42Z</time>
      </trkpt>
      <trkpt lat="48.74939" lon="2.21992">
        <ele>76</ele>
        <time>2013-11-03T15:58:45Z</time>
      </trkpt>
      <trkpt lat="48.74942" lon="2.21987">
        <ele>75</ele>
        <time>2013-11-03T15:58:48Z</time>
      </trkpt>
      <trkpt lat="48.74945" lon="2.21981">
        <ele>74</ele>
        <time>2013-11-03T15:58:54Z</time>
      </trkpt>
      <trkpt lat="48.7495" lon="2.21977">
        <ele>73</ele>
        <time>2013-11-03T15:58:58Z</time>
      </trkpt>
      <trkpt lat="48.74954" lon="2.21972">
        <ele>73</ele>
        <time>2013-11-03T15:59:02Z</time>
      </trkpt>
      <trkpt lat="48.74957" lon="2.21965">
        <ele>73</ele>
        <time>2013-11-03T15:59:08Z</time>
      </trkpt>
      <trkpt lat="48.7496" lon="2.21958">
        <ele>74</ele>
        <time>2013-11-03T15:59:11Z</time>
      </trkpt>
      <trkpt lat="48.74963" lon="2.21951">
        <ele>75</ele>
        <time>2013-11-03T15:59:17Z</time>
      </trkpt>
      <trkpt lat="48.74966" lon="2.21945">
        <ele>76</ele>
        <time>2013-11-03T15:59:22Z</time>
      </trkpt>
      <trkpt lat="48.74969" lon="2.21939">
        <ele>77</ele>
        <time>2013-11-03T15:59:26Z</time>
      </trkpt>
      <trkpt lat="48.74972" lon="2.21932">
        <ele>78</ele>
        <time>2013-11-03T15:59:30Z</time>
      </trkpt>
      <trkpt lat="48.74974" lon="2.21924">
        <ele>79</ele>
        <time>2013-11-03T15:59:34Z</time>
      </trkpt>
      <trkpt lat="48.74978" lon="2.2192">
        <ele>79</ele>
        <time>2013-11-03T15:59:38Z</time>
      </trkpt>
      <trkpt lat="48.74982" lon="2.21916">
        <ele>80</ele>
        <time>2013-11-03T15:59:42Z</time>
      </trkpt>
      <trkpt lat="48.74986" lon="2.21911">
        <ele>81</ele>
        <time>2013-11-03T15:59:46Z</time>
      </trkpt>
      <trkpt lat="48.74989" lon="2.21907">
        <ele>80</ele>
        <time>2013-11-03T15:59:52Z</time>
      </trkpt>
      <trkpt lat="48.74992" lon="2.21901">
        <ele>79</ele>
        <time>2013-11-03T15:59:56Z</time>
      </trkpt>
      <trkpt lat="48.74995" lon="2.21896">
        <ele>77</ele>
        <time>2013-11-03T16:00:00Z</time>
      </trkpt>
      <trkpt lat="48.74999" lon="2.21891">
        <ele>76</ele>
        <time>2013-11-03T16:00:04Z</time>
      </trkpt>
      <trkpt lat="48.75002" lon="2.21886">
        <ele>75</ele>
        <time>2013-11-03T16:00:08Z</time>
      </trkpt>
      <trkpt lat="48.75004" lon="2.21879">
        <ele>74</ele>
        <time>2013-11-03T16:00:13Z</time>
      </trkpt>
      <trkpt lat="48.75006" lon="2.21872">
        <ele>74</ele>
        <time>2013-11-03T16:00:17Z</time>
      </trkpt>
      <trkpt lat="48.75007" lon="2.21866">
        <ele>74</ele>
        <time>2013-11-03T16:00:21Z</time>
      </trkpt>
      <trkpt lat="48.75009" lon="2.21859">
        <ele>74</ele>
        <time>2013-11-03T16:00:25Z</time>
      </trkpt>
      <trkpt lat="48.75014" lon="2.21855">
        <ele>72</ele>
        <time>2013-11-03T16:00:30Z</time>
      </trkpt>
      <trkpt lat="48.75018" lon="2.2185">
        <ele>71</ele>
        <time>2013-11-03T16:00:35Z</time>
      </trkpt>
      <trkpt lat="48.75022" lon="2.21848">
        <ele>69</ele>
        <time>2013-11-03T16:00:42Z</time>
      </trkpt>
      <trkpt lat="48.75027" lon="2.21845">
        <ele>68</ele>
        <time>2013-11-03T16:00:47Z</time>
      </trkpt>
      <trkpt lat="48.7503" lon="2.21839">
        <ele>68</ele>
        <time>2013-11-03T16:00:50Z</time>
      </trkpt>
      <trkpt lat="48.75035" lon="2.21836">
        <ele>66</ele>
        <time>2013-11-03T16:00:58Z</time>
      </trkpt>
      <trkpt lat="48.75039" lon="2.21831">
        <ele>66</ele>
        <time>2013-11-03T16:01:02Z</time>
      </trkpt>
      <trkpt lat="48.75043" lon="2.21829">
        <ele>67</ele>
        <time>2013-11-03T16:01:06Z</time>
      </trkpt>
      <trkpt lat="48.75049" lon="2.21826">
        <ele>67</ele>
        <time>2013-11-03T16:01:10Z</time>
      </trkpt>
      <trkpt lat="48.75053" lon="2.21821">
        <ele>67</ele>
        <time>2013-11-03T16:01:14Z</time>
      </trkpt>
      <trkpt lat="48.75057" lon="2.21814">
        <ele>69</ele>
        <time>2013-11-03T16:01:22Z</time>
      </trkpt>
      <trkpt lat="48.75061" lon="2.21817">
        <ele>68</ele>
        <time>2013-11-03T16:01:28Z</time>
      </trkpt>
      <trkpt lat="48.75066" lon="2.21819">
        <ele>65</ele>
        <time>2013-11-03T16:01:31Z</time>
      </trkpt>
      <trkpt lat="48.75069" lon="2.21813">
        <ele>63</ele>
        <time>2013-11-03T16:01:36Z</time>
      </trkpt>
      <trkpt lat="48.75071" lon="2.21799">
        <ele>62</ele>
        <time>2013-11-03T16:01:41Z</time>
      </trkpt>
      <trkpt lat="48.75072" lon="2.21791">
        <ele>62</ele>
        <time>2013-11-03T16:01:47Z</time>
      </trkpt>
      <trkpt lat="48.75076" lon="2.21787">
        <ele>62</ele>
        <time>2013-11-03T16:01:53Z</time>
      </trkpt>
      <trkpt lat="48.75078" lon="2.21779">
        <ele>63</ele>
        <time>2013-11-03T16:02:00Z</time>
      </trkpt>
      <trkpt lat="48.75082" lon="2.21776">
        <ele>65</ele>
        <time>2013-11-03T16:02:03Z</time>
      </trkpt>
      <trkpt lat="48.75087" lon="2.21769">
        <ele>66</ele>
        <time>2013-11-03T16:02:10Z</time>
      </trkpt>
      <trkpt lat="48.7509" lon="2.21763">
        <ele>67</ele>
        <time>2013-11-03T16:02:13Z</time>
      </trkpt>
      <trkpt lat="48.75095" lon="2.21756">
        <ele>67</ele>
        <time>2013-11-03T16:02:18Z</time>
      </trkpt>
      <trkpt lat="48.75098" lon="2.2175">
        <ele>69</ele>
        <time>2013-11-03T16:02:24Z</time>
      </trkpt>
      <trkpt lat="48.751" lon="2.21743">
        <ele>69</ele>
        <time>2013-11-03T16:02:29Z</time>
      </trkpt>
      <trkpt lat="48.75104" lon="2.21738">
        <ele>69</ele>
        <time>2013-11-03T16:02:34Z</time>
      </trkpt>
      <trkpt lat="48.75106" lon="2.21732">
        <ele>68</ele>
        <time>2013-11-03T16:02:39Z</time>
      </trkpt>
      <trkpt lat="48.75108" lon="2.21723">
        <ele>68</ele>
        <time>2013-11-03T16:02:46Z</time>
      </trkpt>
      <trkpt lat="48.75111" lon="2.21719">
        <ele>70</ele>
        <time>2013-11-03T16:02:56Z</time>
      </trkpt>
      <trkpt lat="48.75117" lon="2.21711">
        <ele>72</ele>
        <time>2013-11-03T16:03:16Z</time>
      </trkpt>
      <trkpt lat="48.7512" lon="2.21705">
        <ele>72</ele>
        <time>2013-11-03T16:03:20Z</time>
      </trkpt>
      <trkpt lat="48.75124" lon="2.217">
        <ele>72</ele>
        <time>2013-11-03T16:03:24Z</time>
      </trkpt>
      <trkpt lat="48.75126" lon="2.21693">
        <ele>72</ele>
        <time>2013-11-03T16:03:29Z</time>
      </trkpt>
      <trkpt lat="48.75128" lon="2.21688">
        <ele>71</ele>
        <time>2013-11-03T16:03:38Z</time>
      </trkpt>
      <trkpt lat="48.7513" lon="2.21681">
        <ele>71</ele>
        <time>2013-11-03T16:03:50Z</time>
      </trkpt>
      <trkpt lat="48.75133" lon="2.21676">
        <ele>70</ele>
        <time>2013-11-03T16:03:53Z</time>
      </trkpt>
      <trkpt lat="48.75136" lon="2.2167">
        <ele>70</ele>
        <time>2013-11-03T16:03:58Z</time>
      </trkpt>
      <trkpt lat="48.75139" lon="2.21664">
        <ele>71</ele>
        <time>2013-11-03T16:04:04Z</time>
      </trkpt>
      <trkpt lat="48.75142" lon="2.21658">
        <ele>71</ele>
        <time>2013-11-03T16:04:07Z</time>
      </trkpt>
      <trkpt lat="48.75145" lon="2.21656">
        <ele>70</ele>
        <time>2013-11-03T16:04:15Z</time>
      </trkpt>
      <trkpt lat="48.7515" lon="2.21653">
        <ele>68</ele>
        <time>2013-11-03T16:04:21Z</time>
      </trkpt>
      <trkpt lat="48.75154" lon="2.21646">
        <ele>68</ele>
        <time>2013-11-03T16:04:28Z</time>
      </trkpt>
      <trkpt lat="48.75156" lon="2.21639">
        <ele>67</ele>
        <time>2013-11-03T16:04:32Z</time>
      </trkpt>
      <trkpt lat="48.75159" lon="2.2163">
        <ele>66</ele>
        <time>2013-11-03T16:04:39Z</time>
      </trkpt>
      <trkpt lat="48.7516" lon="2.21617">
        <ele>67</ele>
        <time>2013-11-03T16:04:47Z</time>
      </trkpt>
      <trkpt lat="48.75165" lon="2.21603">
        <ele>69</ele>
        <time>2013-11-03T16:04:55Z</time>
      </trkpt>
      <trkpt lat="48.75168" lon="2.21597">
        <ele>71</ele>
        <time>2013-11-03T16:05:01Z</time>
      </trkpt>
      <trkpt lat="48.75166" lon="2.21589">
        <ele>73</ele>
        <time>2013-11-03T16:05:06Z</time>
      </trkpt>
      <trkpt lat="48.75163" lon="2.21582">
        <ele>75</ele>
        <time>2013-11-03T16:05:08Z</time>
      </trkpt>
      <trkpt lat="48.7516" lon="2.21576">
        <ele>77</ele>
        <time>2013-11-03T16:05:12Z</time>
      </trkpt>
      <trkpt lat="48.75159" lon="2.21575">
        <ele>81</ele>
        <time>2013-11-03T16:05:29Z</time>
      </trkpt>
    </trkseg>
  </trk>
</gpx>